ftp/pub/palmer/observations_modified/2017/November/AR171101_BASE.txt
Download
Sample DateTime Unit Id WS Avg 2min WD Avg 2min WGS 10min WGD 10min Air Temp Rel Humidity Dew Point Pyranometer Quantum Air Pressure Snow Level Rainfall PW Current Visibility CBase 1 CBase 2 CBase 3 Vert Vis
2017/11/01 00:00:00 BASE 0.00 146 M M -7.5 71 -11.9 7 20 977.8 NA 0.0000 9999 2400 0 0 0
2017/11/01 00:01:00 BASE 0.00 151 M M -7.5 71 -11.9 7 19 977.9 NA 0.0000 9999 2300 0 0 0
2017/11/01 00:02:00 BASE 0.00 167 M M -7.5 71 -11.9 6 18 977.9 NA 0.0000 9999 2430 0 0 0
2017/11/01 00:03:00 BASE 0.00 214 M M -7.5 71 -11.9 6 17 977.9 NA 0.0000 9999 2460 0 0 0
2017/11/01 00:04:00 BASE 0.00 234 M M -7.5 71 -11.9 6 17 977.9 NA 0.0000 9999 2460 0 0 0
2017/11/01 00:05:00 BASE 0.00 265 M M -7.5 71 -11.8 6 16 977.9 NA 0.0000 9999 2460 0 0 0
2017/11/01 00:06:00 BASE 0.55 295 2.06 261 -7.5 72 -11.8 5 16 977.9 NA 0.0000 9999 2490 0 0 0
2017/11/01 00:07:00 BASE 1.10 267 2.06 261 -7.5 72 -11.7 5 15 977.9 NA 0.0000 9999 2530 0 0 0
2017/11/01 00:08:00 BASE 0.55 236 2.06 261 -7.5 72 -11.6 5 15 977.9 NA 0.0000 9999 2530 0 0 0
2017/11/01 00:09:00 BASE 0.00 230 2.06 261 -7.5 73 -11.6 5 14 977.9 NA 0.0000 9999 2560 0 0 0
2017/11/01 00:10:00 BASE 0.00 241 2.06 261 -7.5 73 -11.6 5 13 977.9 NA 0.0000 9999 2560 0 0 0
2017/11/01 00:11:00 BASE 0.00 253 2.06 261 -7.5 73 -11.6 4 13 977.9 NA 0.0000 9999 2530 0 0 0
2017/11/01 00:12:00 BASE 0.60 249 2.06 261 -7.5 72 -11.6 4 12 977.9 NA 0.0000 9999 2490 0 0 0
2017/11/01 00:13:00 BASE 1.34 250 2.06 261 -7.5 72 -11.7 4 12 977.9 NA 0.0000 9999 2460 0 0 0
2017/11/01 00:14:00 BASE 1.69 248 2.11 233 -7.5 72 -11.7 4 11 977.9 NA 0.0000 9999 2460 0 0 0
2017/11/01 00:15:00 BASE 1.95 235 2.52 224 -7.5 72 -11.7 3 10 977.9 NA 0.0000 9999 2460 0 0 0
2017/11/01 00:16:00 BASE 2.05 229 2.57 223 -7.5 72 -11.7 3 10 977.9 NA 0.0000 9999 2460 0 0 0
2017/11/01 00:17:00 BASE 2.16 233 2.68 244 -7.5 72 -11.7 3 9 977.9 NA 0.0000 9999 2490 0 0 0
2017/11/01 00:18:00 BASE 2.46 237 2.98 237 -7.5 72 -11.7 3 9 977.9 NA 0.0000 9999 2430 0 0 0
2017/11/01 00:19:00 BASE 2.58 240 2.98 237 -7.5 72 -11.6 2 8 977.9 NA 0.0000 9999 2430 0 0 0
2017/11/01 00:20:00 BASE 2.57 244 3.04 237 -7.5 72 -11.6 2 8 977.9 NA 0.0000 9999 2430 0 0 0
2017/11/01 00:21:00 BASE 2.51 245 3.04 237 -7.5 72 -11.7 2 8 977.9 NA 0.0000 9999 2460 0 0 0
2017/11/01 00:22:00 BASE 2.29 245 3.04 237 -7.5 72 -11.7 2 7 977.9 NA 0.0000 9999 2430 0 0 0
2017/11/01 00:23:00 BASE 2.23 241 3.04 237 -7.5 72 -11.8 2 7 977.9 NA 0.0000 9999 2490 0 0 0
2017/11/01 00:24:00 BASE 2.27 236 3.04 237 -7.5 71 -11.8 2 6 977.8 NA 0.0000 9999 2490 0 0 0
2017/11/01 00:25:00 BASE 2.23 232 3.04 237 -7.5 71 -11.9 2 6 977.8 NA 0.0000 9999 2430 0 0 0
2017/11/01 00:26:00 BASE 1.93 234 3.04 237 -7.5 71 -11.9 2 6 977.8 NA 0.0000 9999 2400 0 0 0
2017/11/01 00:27:00 BASE 1.38 234 3.04 237 -7.5 71 -11.9 2 6 977.8 NA 0.0000 9999 2430 0 0 0
2017/11/01 00:28:00 BASE 0.51 226 3.04 237 -7.5 71 -11.8 2 5 977.8 NA 0.0000 9999 2490 0 0 0
2017/11/01 00:29:00 BASE 0.00 218 3.04 237 -7.5 71 -11.9 1 5 977.8 NA 0.0000 9999 2560 0 0 0
2017/11/01 00:30:00 BASE 0.00 219 2.78 246 -7.5 70 -11.9 1 5 977.8 NA 0.0000 9999 2530 0 0 0
2017/11/01 00:31:00 BASE 0.00 230 2.73 238 -7.4 70 -12.0 1 4 977.7 NA 0.0000 9999 2560 0 0 0
2017/11/01 00:32:00 BASE 0.00 246 2.73 238 -7.4 70 -12.0 1 4 977.8 NA 0.0000 9999 2560 0 0 0
2017/11/01 00:33:00 BASE 0.00 253 2.73 238 -7.4 70 -12.0 1 4 977.8 NA 0.0000 9999 2490 0 0 0
2017/11/01 00:34:00 BASE 0.37 250 2.42 232 -7.5 70 -12.0 1 4 977.8 NA 0.0000 9999 2360 0 0 0
2017/11/01 00:35:00 BASE 0.81 244 2.01 245 -7.5 70 -11.9 1 3 977.8 NA 0.0000 9999 2360 0 0 0
2017/11/01 00:36:00 BASE 1.23 228 1.95 214 -7.5 71 -11.9 1 3 977.7 NA 0.0000 9999 2360 0 0 0
2017/11/01 00:37:00 BASE 1.65 214 2.11 194 -7.5 71 -11.8 1 3 977.8 NA 0.0000 9999 2360 0 0 0
2017/11/01 00:38:00 BASE 1.83 208 2.68 222 -7.5 72 -11.8 1 3 977.7 NA 0.0000 9999 2400 0 0 0
2017/11/01 00:39:00 BASE 2.01 209 2.68 222 -7.5 72 -11.7 1 3 977.7 NA 0.0000 9999 2360 0 0 0
2017/11/01 00:40:00 BASE 2.25 216 2.78 213 -7.5 72 -11.7 1 2 977.7 NA 0.0000 9999 2400 0 0 0
2017/11/01 00:41:00 BASE 2.34 215 2.78 213 -7.5 72 -11.7 1 2 977.7 NA 0.0000 9999 2430 0 0 0
2017/11/01 00:42:00 BASE 2.34 204 2.78 213 -7.5 72 -11.7 1 2 977.7 NA 0.0000 9999 2430 0 0 0
2017/11/01 00:43:00 BASE 2.40 195 2.78 213 -7.5 72 -11.8 1 2 977.7 NA 0.0000 9999 2400 0 0 0
2017/11/01 00:44:00 BASE 2.37 194 2.78 213 -7.5 71 -11.8 1 2 977.7 NA 0.0000 9999 2490 0 0 0
2017/11/01 00:45:00 BASE 2.39 200 2.78 213 -7.5 71 -11.9 1 2 977.7 NA 0.0000 9999 2530 0 0 0
2017/11/01 00:46:00 BASE 2.53 208 3.14 218 -7.5 71 -11.8 0 1 977.7 NA 0.0000 9999 2460 0 0 0
2017/11/01 00:47:00 BASE 2.66 214 3.14 218 -7.5 71 -11.8 0 1 977.7 NA 0.0000 9999 2460 0 0 0
2017/11/01 00:48:00 BASE 2.69 216 3.14 218 -7.5 72 -11.7 0 1 977.7 NA 0.0000 9999 2490 0 0 0
2017/11/01 00:49:00 BASE 2.79 215 3.14 218 -7.5 72 -11.7 0 1 977.7 NA 0.0000 9999 2460 0 0 0
2017/11/01 00:50:00 BASE 2.81 216 3.14 218 -7.5 73 -11.6 0 1 977.7 NA 0.0000 9999 2430 0 0 0
2017/11/01 00:51:00 BASE 2.51 218 3.14 218 -7.5 73 -11.6 0 1 977.7 NA 0.0000 9999 2460 0 0 0
2017/11/01 00:52:00 BASE 2.27 219 3.14 218 -7.5 73 -11.6 0 1 977.7 NA 0.0000 9999 2430 0 0 0
2017/11/01 00:53:00 BASE 2.13 222 3.14 218 -7.5 72 -11.6 0 1 977.7 NA 0.0000 9999 2430 0 0 0
2017/11/01 00:54:00 BASE 2.00 222 3.14 218 -7.5 72 -11.7 0 1 977.7 NA 0.0000 9999 2430 0 0 0
2017/11/01 00:55:00 BASE 1.90 220 3.14 218 -7.5 72 -11.7 0 1 977.7 NA 0.0000 9999 2460 0 0 0
2017/11/01 00:56:00 BASE 1.92 215 3.09 208 -7.5 72 -11.8 0 1 977.7 NA 0.0000 9999 2490 0 0 0
2017/11/01 00:57:00 BASE 1.97 211 3.09 208 -7.5 72 -11.8 0 1 977.7 NA 0.0000 9999 2460 0 0 0
2017/11/01 00:58:00 BASE 1.87 214 3.09 208 -7.6 72 -11.8 0 1 977.7 NA 0.0000 9999 2430 0 0 0
2017/11/01 00:59:00 BASE 1.71 215 2.98 218 -7.6 72 -11.8 0 0 977.7 NA 0.0000 9999 2400 0 0 0
2017/11/01 01:00:00 BASE 1.48 218 2.57 213 -7.6 72 -11.8 0 0 977.7 NA 0.0000 9999 2400 0 0 0
2017/11/01 01:01:00 BASE 1.38 226 2.47 220 -7.6 72 -11.8 0 0 977.7 NA 0.0000 9999 2400 0 0 0
2017/11/01 01:02:00 BASE 1.29 230 2.21 206 -7.6 72 -11.8 0 0 977.7 NA 0.0000 9999 2460 0 0 0
2017/11/01 01:03:00 BASE 0.83 230 2.21 206 -7.6 72 -11.8 0 0 977.6 NA 0.0000 9999 2490 0 0 0
2017/11/01 01:04:00 BASE 0.47 230 2.21 206 -7.6 72 -11.8 0 0 977.6 NA 0.0000 9999 2460 0 0 0
2017/11/01 01:05:00 BASE 0.27 232 2.21 206 -7.6 72 -11.8 0 0 977.6 NA 0.0000 9999 2430 0 0 0
2017/11/01 01:06:00 BASE 0.18 236 2.06 215 -7.6 72 -11.8 0 0 977.6 NA 0.0000 9999 2400 0 0 0
2017/11/01 01:07:00 BASE 0.13 241 1.95 212 -7.6 72 -11.8 0 0 977.6 NA 0.0000 9999 2490 0 0 0
2017/11/01 01:08:00 BASE 0.00 242 1.80 213 -7.5 72 -11.8 0 0 977.6 NA 0.0000 9999 2590 0 0 0
2017/11/01 01:09:00 BASE 0.00 242 1.54 231 -7.5 71 -11.8 0 0 977.6 NA 0.0000 9999 2690 0 0 0
2017/11/01 01:10:00 BASE 0.00 242 1.54 231 -7.5 71 -11.8 0 0 977.5 NA 0.0000 9999 2620 0 0 0
2017/11/01 01:11:00 BASE 0.00 242 1.29 230 -7.5 71 -11.8 0 0 977.5 NA 0.0000 9999 2620 0 0 0
2017/11/01 01:12:00 BASE 0.00 242 1.23 230 -7.5 71 -11.8 0 0 977.5 NA 0.0000 9999 2620 0 0 0
2017/11/01 01:13:00 BASE 0.00 242 1.08 243 -7.5 71 -11.9 0 0 977.5 NA 0.0000 9999 2660 0 0 0
2017/11/01 01:14:00 BASE 0.00 242 1.08 243 -7.5 71 -11.9 0 0 977.5 NA 0.0000 9999 2490 0 0 0
2017/11/01 01:15:00 BASE 0.00 242 1.08 243 -7.5 71 -11.9 0 0 977.5 NA 0.0000 9999 2560 0 0 0
2017/11/01 01:16:00 BASE 0.00 242 M M -7.5 70 -12.0 0 0 977.5 NA 0.0000 9999 2530 0 0 0
2017/11/01 01:17:00 BASE 0.00 242 M M -7.5 70 -12.0 0 0 977.5 NA 0.0000 9999 2560 0 0 0
2017/11/01 01:18:00 BASE 0.00 242 M M -7.5 70 -12.0 0 0 977.4 NA 0.0000 9999 2560 0 0 0
2017/11/01 01:19:00 BASE 0.00 242 M M -7.5 70 -12.0 0 0 977.5 NA 0.0000 9999 2560 0 0 0
2017/11/01 01:20:00 BASE 0.00 242 M M -7.5 70 -12.0 0 0 977.4 NA 0.0000 9999 2590 0 0 0
2017/11/01 01:21:00 BASE 0.00 242 M M -7.5 70 -12.0 0 0 977.4 NA 0.0000 9999 2590 0 0 0
2017/11/01 01:22:00 BASE 0.00 242 M M -7.5 70 -12.0 0 0 977.3 NA 0.0000 9999 2490 0 0 0
2017/11/01 01:23:00 BASE 0.00 242 M M -7.5 70 -12.0 0 0 977.3 NA 0.0000 9999 2530 0 0 0
2017/11/01 01:24:00 BASE 0.00 242 M M -7.5 70 -12.0 0 0 977.3 NA 0.0000 9999 2590 0 0 0
2017/11/01 01:25:00 BASE 0.00 242 M M -7.5 70 -12.0 0 0 977.3 NA 0.0000 9999 2590 0 0 0
2017/11/01 01:26:00 BASE 0.00 242 M M -7.5 70 -12.0 0 0 977.2 NA 0.0000 9999 2590 0 0 0
2017/11/01 01:27:00 BASE 0.00 242 M M -7.5 70 -12.0 0 0 977.2 NA 0.0000 9999 2560 0 0 0
2017/11/01 01:28:00 BASE 0.00 242 M M -7.5 70 -12.0 0 0 977.2 NA 0.0000 9999 2560 0 0 0
2017/11/01 01:29:00 BASE 0.00 242 M M -7.5 70 -12.0 0 0 977.2 NA 0.0000 9999 2560 0 0 0
2017/11/01 01:30:00 BASE 0.00 242 M M -7.5 70 -12.0 0 0 977.2 NA 0.0000 9999 2590 0 0 0
2017/11/01 01:31:00 BASE 0.00 242 M M -7.5 70 -12.0 0 0 977.2 NA 0.0000 9999 2590 0 0 0
2017/11/01 01:32:00 BASE 0.00 242 M M -7.5 71 -11.9 0 0 977.2 NA 0.0000 9999 2560 0 0 0
2017/11/01 01:33:00 BASE 0.00 242 M M -7.5 71 -11.9 0 0 977.2 NA 0.0000 9999 2530 0 0 0
2017/11/01 01:34:00 BASE 0.00 242 M M -7.5 71 -11.9 0 0 977.2 NA 0.0000 9999 2530 0 0 0
2017/11/01 01:35:00 BASE 0.00 256 M M -7.5 71 -11.9 0 0 977.2 NA 0.0000 9999 2530 0 0 0
2017/11/01 01:36:00 BASE 0.00 322 M M -7.5 71 -11.9 0 0 977.2 NA 0.0000 9999 2560 0 0 0
2017/11/01 01:37:00 BASE 0.00 348 M M -7.6 72 -11.8 0 0 977.2 NA 0.0000 9999 2560 0 0 0
2017/11/01 01:38:00 BASE 0.00 341 M M -7.7 72 -11.8 0 0 977.2 NA 0.0000 9999 2490 0 0 0
2017/11/01 01:39:00 BASE 0.00 350 M M -7.7 73 -11.7 0 0 977.2 NA 0.0000 9999 2490 0 0 0
2017/11/01 01:40:00 BASE 0.00 3 M M -7.8 73 -11.7 0 0 977.2 NA 0.0000 9999 2490 0 0 0
2017/11/01 01:41:00 BASE 0.00 4 M M -7.8 74 -11.6 0 0 977.2 NA 0.0000 9999 2560 0 0 0
2017/11/01 01:42:00 BASE 0.00 5 M M -7.8 74 -11.6 0 0 977.2 NA 0.0000 9999 2530 0 0 0
2017/11/01 01:43:00 BASE 0.00 8 M M -7.8 74 -11.6 0 0 977.2 NA 0.0000 9999 2530 0 0 0
2017/11/01 01:44:00 BASE 0.00 10 M M -7.8 74 -11.7 0 0 977.1 NA 0.0000 9999 2560 0 0 0
2017/11/01 01:45:00 BASE 0.00 11 M M -7.8 74 -11.7 0 0 977.1 NA 0.0000 9999 2530 0 0 0
2017/11/01 01:46:00 BASE 0.00 11 M M -7.8 73 -11.7 0 0 977.1 NA 0.0000 9999 2530 0 0 0
2017/11/01 01:47:00 BASE 0.00 11 M M -7.8 73 -11.8 0 0 977.1 NA 0.0000 9999 2530 0 0 0
2017/11/01 01:48:00 BASE 0.00 11 M M -7.8 73 -11.8 0 0 977.1 NA 0.0000 9999 2560 0 0 0
2017/11/01 01:49:00 BASE 0.22 7 1.08 3 -7.8 73 -11.8 0 0 977.1 NA 0.0000 9999 2560 0 0 0
2017/11/01 01:50:00 BASE 0.78 4 1.18 2 -7.8 73 -11.8 0 0 977.1 NA 0.0000 9999 2560 0 0 0
2017/11/01 01:51:00 BASE 1.13 356 1.23 350 -7.8 73 -11.8 0 0 977.1 NA 0.0000 9999 2560 0 0 0
2017/11/01 01:52:00 BASE 1.11 350 1.23 350 -7.8 73 -11.8 0 0 977.1 NA 0.0000 9999 2560 0 0 0
2017/11/01 01:53:00 BASE 0.68 351 1.23 350 -7.8 73 -11.8 0 0 977.1 NA 0.0000 9999 2560 0 0 0
2017/11/01 01:54:00 BASE 0.17 354 1.23 350 -7.8 73 -11.8 0 0 977.1 NA 0.0000 9999 2560 0 0 0
2017/11/01 01:55:00 BASE 0.04 0 1.23 350 -7.8 73 -11.8 0 0 977.1 NA 0.0000 9999 2560 0 0 0
2017/11/01 01:56:00 BASE 0.00 4 1.23 350 -7.8 73 -11.8 0 0 977.1 NA 0.0000 9999 2560 0 0 0
2017/11/01 01:57:00 BASE 0.32 6 1.23 350 -7.8 73 -11.8 0 0 977.1 NA 0.0000 9999 2560 0 0 0
2017/11/01 01:58:00 BASE 0.68 15 1.23 22 -7.8 73 -11.8 0 0 977.1 NA 0.0000 9999 2530 0 0 0
2017/11/01 01:59:00 BASE 0.93 25 1.39 25 -7.8 73 -11.8 0 0 977.0 NA 0.0000 9999 2530 0 0 0
2017/11/01 02:00:00 BASE 1.14 32 1.44 26 -7.8 73 -11.8 0 0 977.0 NA 0.0000 9999 2530 0 0 0
2017/11/01 02:01:00 BASE 1.00 38 1.44 31 -7.8 73 -11.7 0 0 977.0 NA 0.0000 9999 2530 0 0 0
2017/11/01 02:02:00 BASE 1.05 42 1.44 31 -7.8 74 -11.7 0 0 977.0 NA 0.0000 9999 2490 0 0 0
2017/11/01 02:03:00 BASE 1.23 37 1.44 31 -7.8 74 -11.7 0 0 977.0 NA 0.0000 9999 2490 0 0 0
2017/11/01 02:04:00 BASE 1.18 31 1.44 31 -7.8 74 -11.6 0 0 977.0 NA 0.0000 9999 2490 0 0 0
2017/11/01 02:05:00 BASE 1.03 31 1.44 31 -7.8 74 -11.6 0 0 977.0 NA 0.0000 9999 2490 0 0 0
2017/11/01 02:06:00 BASE 1.06 29 1.44 31 -7.8 74 -11.6 0 0 976.9 NA 0.0000 9999 2460 0 0 0
2017/11/01 02:07:00 BASE 1.25 30 1.44 31 -7.8 75 -11.5 0 0 976.9 NA 0.0000 9999 2490 0 0 0
2017/11/01 02:08:00 BASE 0.77 38 1.44 31 -7.8 75 -11.5 0 0 976.9 NA 0.0000 9999 2490 0 0 0
2017/11/01 02:09:00 BASE 0.14 45 1.44 31 -7.8 75 -11.4 0 0 976.9 NA 0.0000 9999 2490 0 0 0
2017/11/01 02:10:00 BASE 0.13 43 1.44 31 -7.9 76 -11.4 0 0 976.9 NA 0.0000 9999 2460 0 0 0
2017/11/01 02:11:00 BASE 0.44 40 1.39 31 -7.9 76 -11.4 0 0 976.9 NA 0.0000 9999 2460 0 0 0
2017/11/01 02:12:00 BASE 0.86 36 1.39 31 -7.9 76 -11.4 0 0 976.9 NA 0.0000 9999 2460 0 0 0
2017/11/01 02:13:00 BASE 1.14 31 1.39 31 -7.9 76 -11.4 0 0 976.9 NA 0.0000 9999 2460 0 0 0
2017/11/01 02:14:00 BASE 1.16 32 1.39 33 -7.9 76 -11.4 0 0 976.9 NA 0.0000 9999 2460 0 0 0
2017/11/01 02:15:00 BASE 1.12 37 1.39 33 -7.9 76 -11.4 0 0 976.9 NA 0.0000 9999 2460 0 0 0
2017/11/01 02:16:00 BASE 1.23 45 1.54 45 -7.9 76 -11.4 0 0 976.9 NA 0.0000 9999 2460 0 0 0
2017/11/01 02:17:00 BASE 1.32 50 1.54 45 -7.9 76 -11.4 0 0 976.8 NA 0.0000 9999 2460 0 0 0
2017/11/01 02:18:00 BASE 1.25 46 1.54 45 -7.9 76 -11.4 0 0 976.9 NA 0.0000 9999 2490 0 0 0
2017/11/01 02:19:00 BASE 1.18 40 1.54 45 -8.0 76 -11.4 0 0 976.8 NA 0.0000 9999 2430 0 0 0
2017/11/01 02:20:00 BASE 1.27 33 1.59 26 -8.0 76 -11.4 0 0 976.8 NA 0.0000 9999 2430 0 0 0
2017/11/01 02:21:00 BASE 1.47 27 1.65 24 -8.0 77 -11.4 0 0 976.8 NA 0.0000 9999 2430 0 0 0
2017/11/01 02:22:00 BASE 1.59 25 1.80 24 -8.0 77 -11.4 0 0 976.7 NA 0.0000 9999 2430 0 0 0
2017/11/01 02:23:00 BASE 1.59 23 1.80 22 -8.0 77 -11.3 0 0 976.7 NA 0.0000 9999 2400 0 0 0
2017/11/01 02:24:00 BASE 1.55 24 1.80 22 -8.0 77 -11.3 0 0 976.7 NA 0.0000 9999 2430 0 0 0
2017/11/01 02:25:00 BASE 1.51 25 1.80 22 -8.1 77 -11.3 0 0 976.7 NA 0.0000 9999 2430 0 0 0
2017/11/01 02:26:00 BASE 1.46 25 1.80 22 -8.1 78 -11.3 0 0 976.6 NA 0.0000 9999 2460 0 0 0
2017/11/01 02:27:00 BASE 1.36 27 1.80 22 -8.1 78 -11.3 0 0 976.6 NA 0.0000 9999 2460 0 0 0
2017/11/01 02:28:00 BASE 1.25 27 1.80 22 -8.1 78 -11.3 0 0 976.6 NA 0.0000 9999 2430 0 0 0
2017/11/01 02:29:00 BASE 0.99 31 1.80 22 -8.1 77 -11.3 0 0 976.6 NA 0.0000 9999 2430 0 0 0
2017/11/01 02:30:00 BASE 0.85 34 1.80 22 -8.0 77 -11.3 0 0 976.6 NA 0.0000 9999 2460 0 0 0
2017/11/01 02:31:00 BASE 0.99 34 1.80 22 -8.1 77 -11.4 0 0 976.6 NA 0.0000 9999 2430 0 0 0
2017/11/01 02:32:00 BASE 0.67 28 1.80 22 -8.1 77 -11.4 0 0 976.6 NA 0.0000 9999 2400 0 0 0
2017/11/01 02:33:00 BASE 0.65 26 1.75 22 -8.1 77 -11.4 0 0 976.6 NA 0.0000 9999 2430 0 0 0
2017/11/01 02:34:00 BASE 0.84 26 1.59 21 -8.1 77 -11.4 0 0 976.6 NA 0.0000 9999 2430 0 0 0
2017/11/01 02:35:00 BASE 0.78 21 1.59 21 -8.1 77 -11.4 0 0 976.6 NA 0.0000 9999 2430 0 0 0
2017/11/01 02:36:00 BASE 0.95 19 1.39 17 -8.1 77 -11.4 0 0 976.6 NA 0.0000 9999 2400 0 0 0
2017/11/01 02:37:00 BASE 1.16 18 1.54 17 -8.1 77 -11.4 0 0 976.6 NA 0.0000 9999 2360 0 0 0
2017/11/01 02:38:00 BASE 1.29 18 1.54 17 -8.1 77 -11.4 0 0 976.6 NA 0.0000 9999 2400 0 0 0
2017/11/01 02:39:00 BASE 1.31 20 1.54 23 -8.1 77 -11.4 0 0 976.6 NA 0.0000 9999 2400 0 0 0
2017/11/01 02:40:00 BASE 1.32 21 1.54 22 -8.1 77 -11.4 0 0 976.6 NA 0.0000 9999 2400 0 0 0
2017/11/01 02:41:00 BASE 1.39 21 1.65 21 -8.1 77 -11.4 0 0 976.6 NA 0.0000 9999 2400 0 0 0
2017/11/01 02:42:00 BASE 1.42 28 1.65 21 -8.1 77 -11.4 0 0 976.6 NA 0.0000 9999 2430 0 0 0
2017/11/01 02:43:00 BASE 1.29 38 1.65 21 -8.1 77 -11.4 0 0 976.5 NA 0.0000 9999 2430 0 0 0
2017/11/01 02:44:00 BASE 1.16 44 1.65 21 -8.1 77 -11.4 0 0 976.5 NA 0.0000 9999 2400 0 0 0
2017/11/01 02:45:00 BASE 1.05 44 1.65 21 -8.1 77 -11.4 0 0 976.5 NA 0.0000 9999 2430 0 0 0
2017/11/01 02:46:00 BASE 1.21 40 1.65 21 -8.1 77 -11.4 0 0 976.5 NA 0.0000 9999 2430 0 0 0
2017/11/01 02:47:00 BASE 1.37 41 1.65 21 -8.1 77 -11.3 0 0 976.5 NA 0.0000 9999 2430 0 0 0
2017/11/01 02:48:00 BASE 1.41 41 1.65 21 -8.1 78 -11.3 0 0 976.5 NA 0.0000 9999 2430 0 0 0
2017/11/01 02:49:00 BASE 1.42 41 1.65 21 -8.1 78 -11.3 0 0 976.4 NA 0.0000 9999 2430 0 0 0
2017/11/01 02:50:00 BASE 1.35 46 1.65 21 -8.1 78 -11.3 0 0 976.4 NA 0.0000 9999 2430 0 0 0
2017/11/01 02:51:00 BASE 1.41 51 1.65 58 -8.1 78 -11.3 0 0 976.4 NA 0.0000 9999 2430 0 0 0
2017/11/01 02:52:00 BASE 1.58 52 1.85 51 -8.1 78 -11.3 0 0 976.4 NA 0.0000 9999 2430 0 0 0
2017/11/01 02:53:00 BASE 1.70 50 1.90 42 -8.1 78 -11.3 0 0 976.4 NA 0.0000 9999 2400 0 0 0
2017/11/01 02:54:00 BASE 1.66 47 1.90 42 -8.1 78 -11.3 0 0 976.3 NA 0.0000 9999 2400 0 0 0
2017/11/01 02:55:00 BASE 1.57 45 1.90 42 -8.1 78 -11.3 0 0 976.2 NA 0.0000 9999 2400 0 0 0
2017/11/01 02:56:00 BASE 1.58 41 1.90 42 -8.1 78 -11.3 0 0 976.2 NA 0.0000 9999 2400 0 0 0
2017/11/01 02:57:00 BASE 1.57 44 1.90 42 -8.1 77 -11.4 0 0 976.2 NA 0.0000 9999 2430 0 0 0
2017/11/01 02:58:00 BASE 1.56 51 1.90 42 -8.1 77 -11.4 0 0 976.2 NA 0.0000 9999 2430 0 0 0
2017/11/01 02:59:00 BASE 1.45 59 1.90 42 -8.1 77 -11.4 0 0 976.2 NA 0.0000 9999 2360 0 0 0
2017/11/01 03:00:00 BASE 1.32 66 1.90 42 -8.1 77 -11.4 0 0 976.2 NA 0.0000 9999 2300 0 0 0
2017/11/01 03:01:00 BASE 1.38 67 1.90 42 -8.1 77 -11.4 0 0 976.2 NA 0.0000 9999 2360 0 0 0
2017/11/01 03:02:00 BASE 1.48 65 1.90 42 -8.1 77 -11.4 0 0 976.2 NA 0.0000 9999 2330 0 0 0
2017/11/01 03:03:00 BASE 1.55 62 1.85 42 -8.1 77 -11.4 0 0 976.2 NA 0.0000 9999 2400 0 0 0
2017/11/01 03:04:00 BASE 1.66 60 1.75 61 -8.1 77 -11.4 0 0 976.2 NA 0.0000 9999 2400 0 0 0
2017/11/01 03:05:00 BASE 1.69 60 1.75 58 -8.1 77 -11.4 0 0 976.2 NA 0.0000 9999 2400 0 0 0
2017/11/01 03:06:00 BASE 1.68 58 1.90 56 -8.1 77 -11.4 0 0 976.2 NA 0.0000 9999 2360 0 0 0
2017/11/01 03:07:00 BASE 1.77 58 1.95 57 -8.1 77 -11.4 0 0 976.2 NA 0.0000 9999 2360 0 0 0
2017/11/01 03:08:00 BASE 1.90 57 2.01 57 -8.0 77 -11.4 0 0 976.2 NA 0.0000 9999 2330 0 0 0
2017/11/01 03:09:00 BASE 1.87 57 2.01 57 -8.0 77 -11.4 0 0 976.2 NA 0.0000 9999 2360 0 0 0
2017/11/01 03:10:00 BASE 1.81 57 2.01 57 -8.0 77 -11.4 0 0 976.2 NA 0.0000 9999 2400 0 0 0
2017/11/01 03:11:00 BASE 1.79 57 2.01 57 -8.0 76 -11.4 0 0 976.2 NA 0.0000 9999 2360 0 0 0
2017/11/01 03:12:00 BASE 1.79 57 2.01 57 -8.0 76 -11.4 0 0 976.2 NA 0.0000 9999 2360 0 0 0
2017/11/01 03:13:00 BASE 1.72 57 2.01 57 -8.0 76 -11.5 0 0 976.2 NA 0.0000 9999 2360 0 0 0
2017/11/01 03:14:00 BASE 1.70 54 2.01 57 -8.0 76 -11.5 0 0 976.2 NA 0.0000 9999 2360 0 0 0
2017/11/01 03:15:00 BASE 1.80 51 2.01 57 -7.9 75 -11.5 0 0 976.2 NA 0.0000 9999 2360 0 0 0
2017/11/01 03:16:00 BASE 1.74 48 2.01 57 -7.9 75 -11.5 0 0 976.2 NA 0.0000 9999 2360 0 0 0
2017/11/01 03:17:00 BASE 1.63 46 2.01 57 -7.9 75 -11.6 0 0 976.2 NA 0.0000 9999 2360 0 0 0
2017/11/01 03:18:00 BASE 1.56 45 1.95 51 -7.9 75 -11.6 0 0 976.2 NA 0.0000 9999 2360 0 0 0
2017/11/01 03:19:00 BASE 1.53 46 1.95 51 -7.9 75 -11.6 0 0 976.2 NA 0.0000 9999 2360 0 0 0
2017/11/01 03:20:00 BASE 1.55 49 1.95 51 -7.9 75 -11.6 0 0 976.2 NA 0.0000 9999 2360 0 0 0
2017/11/01 03:21:00 BASE 1.58 50 1.95 51 -7.9 75 -11.6 0 0 976.2 NA 0.0000 9999 2330 0 0 0
2017/11/01 03:22:00 BASE 1.72 53 1.95 57 -7.9 75 -11.6 0 0 976.2 NA 0.0000 9999 2360 0 0 0
2017/11/01 03:23:00 BASE 1.79 55 1.95 57 -7.9 75 -11.6 0 0 976.2 NA 0.0000 9999 2330 0 0 0
2017/11/01 03:24:00 BASE 1.68 54 1.95 57 -7.9 75 -11.6 0 0 976.2 NA 0.0000 9999 2330 0 0 0
2017/11/01 03:25:00 BASE 1.64 56 1.95 57 -8.0 75 -11.6 0 0 976.2 NA 0.0000 9999 2300 0 0 0
2017/11/01 03:26:00 BASE 1.68 59 1.95 61 -8.0 75 -11.6 0 0 976.2 NA 0.0000 9999 2330 0 0 0
2017/11/01 03:27:00 BASE 1.84 58 2.06 58 -8.0 75 -11.6 0 0 976.2 NA 0.0000 9999 2330 0 0 0
2017/11/01 03:28:00 BASE 1.89 54 2.06 58 -8.0 75 -11.6 0 0 976.1 NA 0.0000 9999 2430 0 0 0
2017/11/01 03:29:00 BASE 1.69 49 2.06 58 -8.0 76 -11.6 0 0 976.0 NA 0.0000 9999 2330 0 0 0
2017/11/01 03:30:00 BASE 1.66 52 2.06 58 -8.0 76 -11.6 0 0 976.0 NA 0.0000 9999 2330 0 0 0
2017/11/01 03:31:00 BASE 1.79 57 2.06 58 -8.0 76 -11.5 0 0 976.0 NA 0.0000 9999 2330 0 0 0
2017/11/01 03:32:00 BASE 1.79 58 2.06 58 -8.0 76 -11.5 0 0 976.0 NA 0.0000 9999 2360 0 0 0
2017/11/01 03:33:00 BASE 1.77 58 2.06 58 -8.0 76 -11.5 0 0 976.0 NA 0.0000 9999 2360 7740 0 0
2017/11/01 03:34:00 BASE 1.84 62 2.06 65 -8.0 76 -11.5 0 0 976.0 NA 0.0000 9999 2330 0 0 0
2017/11/01 03:35:00 BASE 1.91 66 2.06 68 -8.1 76 -11.6 0 0 976.0 NA 0.0000 9999 2330 0 0 0
2017/11/01 03:36:00 BASE 2.03 68 2.21 70 -8.1 76 -11.6 0 0 975.9 NA 0.0000 9999 2300 0 0 0
2017/11/01 03:37:00 BASE 2.15 71 2.21 75 -8.2 76 -11.6 0 0 975.9 NA 0.0000 9999 2330 0 0 0
2017/11/01 03:38:00 BASE 2.17 76 2.21 77 -8.3 77 -11.7 0 0 975.9 NA 0.0000 9999 2330 0 0 0
2017/11/01 03:39:00 BASE 2.12 78 2.21 77 -8.4 77 -11.7 0 0 975.9 NA 0.0000 9999 2330 0 0 0
2017/11/01 03:40:00 BASE 2.07 79 2.21 77 -8.4 78 -11.7 0 0 975.8 NA 0.0000 9999 2330 0 0 0
2017/11/01 03:41:00 BASE 2.00 80 2.21 77 -8.5 78 -11.6 0 0 975.8 NA 0.0000 9999 2330 8500 0 0
2017/11/01 03:42:00 BASE 1.86 81 2.21 77 -8.5 78 -11.6 0 0 975.8 NA 0.0000 9999 7840 0 0 0
2017/11/01 03:43:00 BASE 1.73 84 2.21 77 -8.4 78 -11.6 0 0 975.8 NA 0.0000 9999 8100 0 0 0
2017/11/01 03:44:00 BASE 1.74 88 2.21 77 -8.4 77 -11.7 0 0 975.8 NA 0.0000 9999 8960 0 0 0
2017/11/01 03:45:00 BASE 1.81 90 2.21 77 -8.4 77 -11.7 0 0 975.8 NA 0.0000 9999 8300 0 0 0
2017/11/01 03:46:00 BASE 1.93 86 2.21 77 -8.5 77 -11.8 0 0 975.8 NA 0.0000 9999 8100 0 0 0
2017/11/01 03:47:00 BASE 2.02 82 2.21 77 -8.5 77 -11.8 0 0 975.8 NA 0.0000 9999 8140 0 0 0
2017/11/01 03:48:00 BASE 2.03 81 2.16 81 -8.5 77 -11.8 0 0 975.8 NA 0.0000 9999 8890 0 0 0
2017/11/01 03:49:00 BASE 2.01 82 2.16 81 -8.5 77 -11.8 0 0 975.7 NA 0.0000 9999 8860 0 0 0
2017/11/01 03:50:00 BASE 1.90 88 2.16 81 -8.5 77 -11.7 0 0 975.6 NA 0.0000 9999 8830 0 0 0
2017/11/01 03:51:00 BASE 1.75 96 2.16 81 -8.4 77 -11.6 0 0 975.6 NA 0.0000 9999 8690 0 0 0
2017/11/01 03:52:00 BASE 1.69 101 2.16 81 -8.2 77 -11.6 0 0 975.6 NA 0.0000 9999 8500 0 0 0
2017/11/01 03:53:00 BASE 1.67 102 2.16 81 -8.1 76 -11.6 0 0 975.6 NA 0.0000 9999 8270 0 0 0
2017/11/01 03:54:00 BASE 1.59 101 2.16 81 -8.1 76 -11.6 0 0 975.6 NA 0.0000 9999 8070 0 0 0
2017/11/01 03:55:00 BASE 1.52 93 2.16 81 -8.1 75 -11.7 0 0 975.6 NA 0.0000 9999 7870 0 0 0
2017/11/01 03:56:00 BASE 1.63 80 2.16 81 -8.1 75 -11.8 0 0 975.6 NA 0.0000 9999 7580 0 0 0
2017/11/01 03:57:00 BASE 1.96 71 2.42 67 -8.2 75 -11.9 0 0 975.6 NA 0.0000 9999 7480 0 0 0
2017/11/01 03:58:00 BASE 2.02 71 2.42 67 -8.3 75 -12.0 0 0 975.6 NA 0.0000 9999 7450 0 0 0
2017/11/01 03:59:00 BASE 1.86 72 2.42 67 -8.4 75 -12.0 0 0 975.6 NA 0.0000 9999 7910 0 0 0
2017/11/01 04:00:00 BASE 1.80 75 2.42 67 -8.4 76 -11.9 0 0 975.6 NA 0.0000 9999 8140 0 0 0
2017/11/01 04:01:00 BASE 1.72 79 2.42 67 -8.4 76 -11.9 0 0 975.6 NA 0.0000 9999 8010 0 0 0
2017/11/01 04:02:00 BASE 1.62 81 2.42 67 -8.4 76 -11.9 0 0 975.6 NA 0.0000 9999 7840 0 0 0
2017/11/01 04:03:00 BASE 1.55 83 2.42 67 -8.4 76 -11.9 0 0 975.5 NA 0.0000 9999 8240 0 0 0
2017/11/01 04:04:00 BASE 1.53 86 2.42 67 -8.4 76 -11.9 0 0 975.4 NA 0.0000 9999 9020 0 0 0
2017/11/01 04:05:00 BASE 1.86 82 2.62 75 -8.5 76 -11.9 0 0 975.4 NA 0.0000 9999 9650 0 0 0
2017/11/01 04:06:00 BASE 2.51 74 2.98 74 -8.5 77 -11.9 0 0 975.4 NA 0.0000 9999 9610 0 0 0
2017/11/01 04:07:00 BASE 2.76 71 2.98 74 -8.5 77 -11.8 0 0 975.4 NA 0.0000 9999 9550 0 0 0
2017/11/01 04:08:00 BASE 2.56 70 2.98 74 -8.5 77 -11.8 0 0 975.4 NA 0.0000 9999 9710 0 0 0
2017/11/01 04:09:00 BASE 2.50 72 2.98 74 -8.5 77 -11.8 0 0 975.4 NA 0.0000 9999 9610 0 0 0
2017/11/01 04:10:00 BASE 2.68 74 3.14 73 -8.5 77 -11.8 0 0 975.4 NA 0.0000 9999 9550 0 0 0
2017/11/01 04:11:00 BASE 3.07 73 3.55 66 -8.5 77 -11.8 0 0 975.4 NA 0.0000 9999 9380 0 0 0
2017/11/01 04:12:00 BASE 3.33 68 3.55 66 -8.5 77 -11.8 0 0 975.4 NA 0.0000 9999 9190 0 0 0
2017/11/01 04:13:00 BASE 3.31 68 3.55 66 -8.6 77 -11.8 0 0 975.4 NA 0.0000 9999 8990 0 0 0
2017/11/01 04:14:00 BASE 3.23 72 3.55 66 -8.6 77 -11.9 0 0 975.4 NA 0.0000 9999 8830 0 0 0
2017/11/01 04:15:00 BASE 3.14 74 3.55 66 -8.7 78 -11.8 0 0 975.4 NA 0.0000 9999 8660 0 0 0
2017/11/01 04:16:00 BASE 3.22 75 3.55 66 -8.7 78 -11.8 0 0 975.4 NA 0.0000 9999 8690 0 0 0
2017/11/01 04:17:00 BASE 3.22 76 3.55 66 -8.7 79 -11.7 0 0 975.4 NA 0.0000 9999 8530 0 0 0
2017/11/01 04:18:00 BASE 3.20 77 3.55 66 -8.6 79 -11.7 0 0 975.4 NA 0.0000 9999 8460 0 0 0
2017/11/01 04:19:00 BASE 3.18 78 3.55 66 -8.6 79 -11.6 0 0 975.4 NA 0.0000 9999 8460 0 0 0
2017/11/01 04:20:00 BASE 3.07 81 3.55 66 -8.6 79 -11.6 0 0 975.4 NA 0.0000 9999 8430 0 0 0
2017/11/01 04:21:00 BASE 2.95 82 3.50 75 -8.7 79 -11.6 0 0 975.3 NA 0.0000 9999 8300 0 0 0
2017/11/01 04:22:00 BASE 2.92 82 3.50 75 -8.7 79 -11.7 0 0 975.3 NA 0.0000 9999 8270 0 0 0
2017/11/01 04:23:00 BASE 2.91 81 3.50 75 -8.7 79 -11.7 0 0 975.3 NA 0.0000 9999 8170 0 0 0
2017/11/01 04:24:00 BASE 2.76 81 3.50 75 -8.7 79 -11.6 0 0 975.3 NA 0.0000 9999 8170 0 0 0
2017/11/01 04:25:00 BASE 2.60 84 3.50 75 -8.7 79 -11.6 0 0 975.3 NA 0.0000 9999 8100 0 0 0
2017/11/01 04:26:00 BASE 2.49 88 3.50 75 -8.7 80 -11.5 0 0 975.3 NA 0.0000 9999 8010 0 0 0
2017/11/01 04:27:00 BASE 2.57 90 3.50 75 -8.6 80 -11.4 0 0 975.2 NA 0.0000 9999 8170 0 0 0
2017/11/01 04:28:00 BASE 2.71 91 3.45 80 -8.5 80 -11.3 0 0 975.2 NA 0.0000 9999 8240 0 0 0
2017/11/01 04:29:00 BASE 2.68 92 3.19 81 -8.4 80 -11.3 0 0 975.2 NA 0.0000 9999 8270 0 0 0
2017/11/01 04:30:00 BASE 2.72 93 3.04 76 -8.3 80 -11.2 0 0 975.2 NA 0.0000 9999 8200 0 0 0
2017/11/01 04:31:00 BASE 2.90 93 3.24 87 -8.3 79 -11.2 0 0 975.2 NA 0.0000 9999 8370 0 0 0
2017/11/01 04:32:00 BASE 3.16 87 3.60 80 -8.4 79 -11.3 0 0 975.2 NA 0.0000 9999 8330 0 0 0
2017/11/01 04:33:00 BASE 3.28 83 3.60 80 -8.5 79 -11.5 0 0 975.2 NA 0.0000 9999 8500 0 0 0
2017/11/01 04:34:00 BASE 3.13 84 3.60 80 -8.6 79 -11.5 0 0 975.1 NA 0.0000 9999 8690 0 0 0
2017/11/01 04:35:00 BASE 3.06 84 3.60 80 -8.6 79 -11.6 0 0 975.1 NA 0.0000 9999 8920 0 0 0
2017/11/01 04:36:00 BASE 3.13 82 3.60 80 -8.7 80 -11.5 0 0 975.1 NA 0.0000 9999 8790 0 0 0
2017/11/01 04:37:00 BASE 3.19 80 3.60 80 -8.6 80 -11.5 0 0 975.1 NA 0.0000 9999 8730 0 0 0
2017/11/01 04:38:00 BASE 3.15 83 3.60 80 -8.6 80 -11.4 0 0 975.1 NA 0.0000 9999 8760 0 0 0
2017/11/01 04:39:00 BASE 3.06 84 3.60 80 -8.5 79 -11.5 0 0 975.1 NA 0.0000 9999 8890 0 0 0
2017/11/01 04:40:00 BASE 3.22 84 3.60 80 -8.6 79 -11.6 0 0 975.1 NA 0.0000 9999 8860 0 0 0
2017/11/01 04:41:00 BASE 3.30 85 3.60 80 -8.6 78 -11.6 0 0 975.1 NA 0.0000 9999 8860 0 0 0
2017/11/01 04:42:00 BASE 3.18 86 3.55 90 -8.6 78 -11.7 0 0 975.1 NA 0.0000 9999 8920 0 0 0
2017/11/01 04:43:00 BASE 3.10 88 3.55 90 -8.7 78 -11.8 0 0 975.1 NA 0.0000 9999 8890 0 0 0
2017/11/01 04:44:00 BASE 3.04 87 3.55 90 -8.7 78 -11.8 0 0 975.1 NA 0.0000 9999 8860 0 0 0
2017/11/01 04:45:00 BASE 3.07 86 3.55 90 -8.8 78 -11.8 0 0 975.1 NA 0.0000 9999 8790 0 0 0
2017/11/01 04:46:00 BASE 3.27 80 3.76 73 -8.8 79 -11.9 0 0 975.1 NA 0.0000 9999 8860 0 0 0
2017/11/01 04:47:00 BASE 3.51 73 3.81 69 -8.8 79 -11.8 0 0 975.0 NA 0.0000 9999 8890 0 0 0
2017/11/01 04:48:00 BASE 3.49 71 3.81 69 -8.8 79 -11.7 0 0 975.0 NA 0.0000 9999 9020 0 0 0
2017/11/01 04:49:00 BASE 3.39 70 3.81 69 -8.7 79 -11.7 0 0 974.9 NA 0.0000 9999 9120 0 0 0
2017/11/01 04:50:00 BASE 3.28 68 3.81 69 -8.7 79 -11.7 0 0 974.9 NA 0.0000 9999 8990 0 0 0
2017/11/01 04:51:00 BASE 3.12 65 3.81 69 -8.7 79 -11.7 0 0 974.9 NA 0.0000 9999 8960 0 0 0
2017/11/01 04:52:00 BASE 3.26 67 3.81 69 -8.6 78 -11.8 0 0 974.9 NA 0.0000 9999 8860 0 0 0
2017/11/01 04:53:00 BASE 3.37 70 3.81 69 -8.6 78 -11.8 0 0 974.9 NA 0.0000 9999 8790 0 0 0
2017/11/01 04:54:00 BASE 3.32 72 3.81 69 -8.6 78 -11.8 0 0 974.9 NA 0.0000 9999 8730 0 0 0
2017/11/01 04:55:00 BASE 3.32 72 3.81 69 -8.6 77 -11.9 0 0 974.9 NA 0.0000 9999 8760 0 0 0
2017/11/01 04:56:00 BASE 3.25 71 3.81 69 -8.6 77 -11.9 0 0 974.9 NA 0.0000 9999 8660 0 0 0
2017/11/01 04:57:00 BASE 3.07 71 3.70 69 -8.6 77 -11.9 0 0 974.9 NA 0.0000 9999 8460 0 0 0
2017/11/01 04:58:00 BASE 2.87 68 3.60 69 -8.6 77 -11.9 0 0 974.9 NA 0.0000 9999 8300 0 0 0
2017/11/01 04:59:00 BASE 2.67 65 3.60 69 -8.6 78 -11.8 0 0 974.9 NA 0.0000 9999 8170 0 0 0
2017/11/01 05:00:00 BASE 2.46 63 3.60 69 -8.6 78 -11.8 0 0 974.8 NA 0.0000 9999 8140 0 0 0
2017/11/01 05:01:00 BASE 2.26 59 3.60 69 -8.5 78 -11.7 0 0 974.8 NA 0.0000 9999 8070 0 0 0
2017/11/01 05:02:00 BASE 2.18 55 3.55 70 -8.4 77 -11.7 0 0 974.8 NA 0.0000 9999 8010 0 0 0
2017/11/01 05:03:00 BASE 2.19 54 3.45 70 -8.3 77 -11.7 0 0 974.8 NA 0.0000 9999 8010 0 0 0
2017/11/01 05:04:00 BASE 2.24 54 3.40 69 -8.2 76 -11.7 0 0 974.8 NA 0.0000 9999 8070 0 0 0
2017/11/01 05:05:00 BASE 2.39 55 3.29 71 -8.1 76 -11.7 0 0 974.8 NA 0.0000 9999 8430 0 0 0
2017/11/01 05:06:00 BASE 2.47 54 3.19 72 -8.1 75 -11.7 0 0 974.8 NA 0.0000 9999 8400 0 0 0
2017/11/01 05:07:00 BASE 2.52 53 2.98 67 -8.0 75 -11.7 0 0 974.8 NA 0.0000 9999 8300 0 0 0
2017/11/01 05:08:00 BASE 2.62 52 2.88 59 -8.0 74 -11.8 0 0 974.8 NA 0.0000 9999 8370 0 0 0
2017/11/01 05:09:00 BASE 2.62 51 2.88 59 -8.0 74 -11.8 0 0 974.8 NA 0.0000 9999 8400 0 0 0
2017/11/01 05:10:00 BASE 2.54 52 2.88 59 -8.0 74 -11.8 0 0 974.8 NA 0.0000 9999 8460 0 0 0
2017/11/01 05:11:00 BASE 2.54 55 2.88 59 -8.0 74 -11.8 0 0 974.8 NA 0.0000 9999 8630 0 0 0
2017/11/01 05:12:00 BASE 2.61 53 2.88 59 -8.0 74 -11.8 0 0 974.8 NA 0.0000 9999 8860 0 0 0
2017/11/01 05:13:00 BASE 2.66 51 2.88 59 -8.0 74 -11.8 0 0 974.8 NA 0.0000 9999 8990 0 0 0
2017/11/01 05:14:00 BASE 2.60 50 2.88 59 -7.9 74 -11.8 0 0 974.7 NA 0.0000 9999 8920 0 0 0
2017/11/01 05:15:00 BASE 2.53 50 2.88 59 -7.9 74 -11.8 0 0 974.7 NA 0.0000 9999 8660 0 0 0
2017/11/01 05:16:00 BASE 2.41 53 2.88 59 -7.9 73 -11.8 0 0 974.7 NA 0.0000 9999 6660 0 0 0
2017/11/01 05:17:00 BASE 2.10 53 2.88 59 -7.8 73 -11.8 0 0 974.7 NA 0.0000 9999 6630 0 0 0
2017/11/01 05:18:00 BASE 1.86 52 2.78 51 -7.8 73 -11.8 0 0 974.7 NA 0.0000 9999 6690 0 0 0
2017/11/01 05:19:00 BASE 1.90 51 2.78 51 -7.8 73 -11.8 0 0 974.7 NA 0.0000 9999 6590 0 0 0
2017/11/01 05:20:00 BASE 1.87 40 2.78 51 -7.8 73 -11.8 0 0 974.7 NA 0.0000 9999 8530 0 0 0
2017/11/01 05:21:00 BASE 2.03 29 2.78 51 -7.9 73 -11.9 0 0 974.7 NA 0.0000 9999 8560 0 0 0
2017/11/01 05:22:00 BASE 2.40 25 2.78 51 -8.1 74 -12.0 0 0 974.6 NA 0.0000 9999 8530 0 0 0
2017/11/01 05:23:00 BASE 2.33 26 2.73 52 -8.2 74 -12.0 0 0 974.6 NA 0.0000 9999 8300 0 0 0
2017/11/01 05:24:00 BASE 2.00 32 2.73 52 -8.3 74 -12.1 0 0 974.6 NA 0.0000 9999 8070 0 0 0
2017/11/01 05:25:00 BASE 1.75 35 2.62 31 -8.4 75 -12.1 0 0 974.5 NA 0.0000 9999 7970 0 0 0
2017/11/01 05:26:00 BASE 1.76 33 2.62 31 -8.5 75 -12.1 0 0 974.5 NA 0.0000 9999 8040 0 0 0
2017/11/01 05:27:00 BASE 1.72 31 2.62 31 -8.4 75 -12.0 0 0 974.5 NA 0.0000 9999 8070 0 0 0
2017/11/01 05:28:00 BASE 1.47 34 2.62 31 -8.4 76 -11.9 0 0 974.5 NA 0.0000 9999 8170 0 0 0
2017/11/01 05:29:00 BASE 1.38 50 2.62 31 -8.4 76 -11.9 0 0 974.5 NA 0.0000 9999 8370 0 0 0
2017/11/01 05:30:00 BASE 1.71 58 2.62 31 -8.4 76 -11.9 0 0 974.5 NA 0.0000 9999 8430 0 0 0
2017/11/01 05:31:00 BASE 2.00 52 2.62 31 -8.4 76 -11.9 0 0 974.4 NA 0.0000 9999 8430 0 0 0
2017/11/01 05:32:00 BASE 2.21 51 2.62 52 -8.4 76 -11.9 0 0 974.3 NA 0.0000 9999 8600 0 0 0
2017/11/01 05:33:00 BASE 2.44 50 2.62 45 -8.3 76 -11.8 0 0 974.3 NA 0.0000 9999 8560 0 0 0
2017/11/01 05:34:00 BASE 2.40 48 2.88 53 -8.3 76 -11.8 0 0 974.3 NA 0.0000 9999 8530 0 0 0
2017/11/01 05:35:00 BASE 2.61 51 3.09 60 -8.3 76 -11.8 0 0 974.3 NA 0.0000 9999 8500 0 0 0
2017/11/01 05:36:00 BASE 2.88 51 3.09 60 -8.3 76 -11.8 0 0 974.2 NA 0.0000 9999 8500 0 0 0
2017/11/01 05:37:00 BASE 2.90 50 3.09 60 -8.3 76 -11.9 0 0 974.2 NA 0.0000 9999 8560 0 0 0
2017/11/01 05:38:00 BASE 3.18 53 3.60 61 -8.4 76 -11.9 0 0 974.2 NA 0.0000 9999 8830 0 0 0
2017/11/01 05:39:00 BASE 3.44 57 3.60 61 -8.4 76 -11.9 0 0 974.2 NA 0.0000 9999 8890 0 0 0
2017/11/01 05:40:00 BASE 3.32 57 3.60 61 -8.5 76 -12.0 0 0 974.2 NA 0.0000 9999 8760 0 0 0
2017/11/01 05:41:00 BASE 3.34 60 3.65 62 -8.5 76 -12.0 0 0 974.2 NA 0.0000 9999 8500 0 0 0
2017/11/01 05:42:00 BASE 3.31 63 3.65 62 -8.5 76 -12.0 0 0 974.2 NA 0.0000 9999 8460 0 0 0
2017/11/01 05:43:00 BASE 3.17 62 3.65 62 -8.6 76 -12.0 0 0 974.2 NA 0.0000 9999 8400 0 0 0
2017/11/01 05:44:00 BASE 3.28 62 3.65 70 -8.6 76 -12.0 0 0 974.2 NA 0.0000 9999 8330 0 0 0
2017/11/01 05:45:00 BASE 3.23 60 3.65 70 -8.6 76 -12.0 0 0 974.2 NA 0.0000 9999 8560 0 0 0
2017/11/01 05:46:00 BASE 3.12 58 3.65 70 -8.6 76 -12.1 0 0 974.1 NA 0.0000 9999 8660 0 0 0
2017/11/01 05:47:00 BASE 3.07 56 3.65 70 -8.7 76 -12.1 0 0 974.1 NA 0.0000 9999 8660 0 0 0
2017/11/01 05:48:00 BASE 3.25 57 3.76 60 -8.6 76 -12.1 0 0 974.1 NA 0.0000 9999 8370 0 0 0
2017/11/01 05:49:00 BASE 3.46 59 3.76 60 -8.6 76 -12.1 0 0 974.1 NA 0.0000 9999 8330 0 0 0
2017/11/01 05:50:00 BASE 3.25 60 3.76 60 -8.5 76 -12.0 0 0 974.1 NA 0.0000 9999 8790 0 0 0
2017/11/01 05:51:00 BASE 3.05 61 3.76 60 -8.4 75 -12.0 0 0 974.1 NA 0.0000 9999 8690 0 0 0
2017/11/01 05:52:00 BASE 3.00 60 3.76 60 -8.4 75 -12.0 0 0 974.1 NA 0.0000 9999 8690 0 0 0
2017/11/01 05:53:00 BASE 2.91 59 3.76 60 -8.3 74 -12.1 0 0 974.0 NA 0.0000 9999 8660 0 0 0
2017/11/01 05:54:00 BASE 2.74 57 3.76 60 -8.3 74 -12.1 0 0 974.0 NA 0.0000 9999 8690 0 0 0
2017/11/01 05:55:00 BASE 2.61 53 3.76 60 -8.2 73 -12.2 0 0 974.0 NA 0.0000 9999 8630 0 0 0
2017/11/01 05:56:00 BASE 2.44 51 3.76 60 -8.2 73 -12.2 0 0 974.0 NA 0.0000 9999 7220 0 0 0
2017/11/01 05:57:00 BASE 2.21 48 3.76 60 -8.0 72 -12.2 0 0 974.0 NA 0.0000 9999 8300 0 0 0
2017/11/01 05:58:00 BASE 2.06 42 3.65 59 -7.9 72 -12.2 0 0 974.0 NA 0.0000 9999 8170 0 0 0
2017/11/01 05:59:00 BASE 1.97 37 3.34 58 -7.8 71 -12.2 0 0 973.9 NA 0.0000 9999 8170 0 0 0
2017/11/01 06:00:00 BASE 1.83 36 3.19 56 -7.7 70 -12.2 0 0 973.9 NA 0.0000 9999 8100 0 0 0
2017/11/01 06:01:00 BASE 1.76 36 3.19 56 -7.7 70 -12.3 0 0 973.9 NA 0.0000 9999 7970 0 0 0
2017/11/01 06:02:00 BASE 1.72 39 2.98 54 -7.8 69 -12.4 0 0 973.9 NA 0.0000 9999 7910 0 0 0
2017/11/01 06:03:00 BASE 1.52 41 2.98 54 -7.8 69 -12.5 0 0 973.9 NA 0.0000 9999 7840 0 0 0
2017/11/01 06:04:00 BASE 1.34 35 2.73 52 -7.8 69 -12.5 0 0 973.9 NA 0.0000 9999 7740 0 0 0
2017/11/01 06:05:00 BASE 0.83 28 2.47 52 -7.9 69 -12.5 0 0 973.9 NA 0.0000 9999 7580 0 0 0
2017/11/01 06:06:00 BASE 0.76 29 2.16 48 -7.9 69 -12.5 0 0 973.9 NA 0.0000 9999 7580 0 0 0
2017/11/01 06:07:00 BASE 1.08 32 2.11 39 -7.9 69 -12.5 0 0 973.9 NA 0.0000 9999 7640 0 0 0
2017/11/01 06:08:00 BASE 0.88 34 2.01 31 -7.9 69 -12.5 0 0 973.9 NA 0.0000 9999 7840 0 0 0
2017/11/01 06:09:00 BASE 0.82 33 1.95 35 -7.9 69 -12.6 0 0 973.9 NA 0.0000 9999 8370 0 0 0
2017/11/01 06:10:00 BASE 0.43 24 1.90 33 -8.0 69 -12.6 0 0 973.9 NA 0.0000 9999 8600 0 0 0
2017/11/01 06:11:00 BASE 0.41 16 1.75 42 -8.0 70 -12.6 0 0 973.8 NA 0.0000 9999 8630 0 0 0
2017/11/01 06:12:00 BASE 0.91 17 1.54 41 -8.0 70 -12.6 0 0 973.9 NA 0.0000 9999 8560 0 0 0
2017/11/01 06:13:00 BASE 0.80 15 1.44 19 -8.1 70 -12.6 0 0 973.8 NA 0.0000 9999 8460 0 0 0
2017/11/01 06:14:00 BASE 0.58 11 1.29 22 -8.2 70 -12.6 0 0 973.7 NA 0.0000 9999 8460 0 0 0
2017/11/01 06:15:00 BASE 0.32 11 1.29 22 -8.3 71 -12.6 0 0 973.7 NA 0.0000 9999 8530 0 0 0
2017/11/01 06:16:00 BASE 0.56 21 1.29 22 -8.3 71 -12.6 0 0 973.7 NA 0.0000 9999 8330 0 0 0
2017/11/01 06:17:00 BASE 0.74 30 1.29 22 -8.4 72 -12.6 0 0 973.7 NA 0.0000 9999 8200 0 0 0
2017/11/01 06:18:00 BASE 0.27 30 1.29 22 -8.5 72 -12.6 0 0 973.7 NA 0.0000 9999 7870 0 0 0
2017/11/01 06:19:00 BASE 0.17 33 1.29 22 -8.5 73 -12.5 0 0 973.7 NA 0.0000 9999 7580 0 0 0
2017/11/01 06:20:00 BASE 0.75 37 1.39 39 -8.5 73 -12.5 0 0 973.7 NA 0.0000 9999 7380 0 0 0
2017/11/01 06:21:00 BASE 1.22 39 1.44 39 -8.5 73 -12.5 0 0 973.7 NA 0.0000 9999 7280 0 0 0
2017/11/01 06:22:00 BASE 1.20 38 1.44 38 -8.4 73 -12.4 0 0 973.7 NA 0.0000 9999 7350 0 0 0
2017/11/01 06:23:00 BASE 1.10 35 1.44 38 -8.4 73 -12.4 0 0 973.7 NA 0.0000 9999 7510 0 0 0
2017/11/01 06:24:00 BASE 1.13 35 1.49 45 -8.3 72 -12.4 0 0 973.7 NA 0.0000 9999 7480 0 0 0
2017/11/01 06:25:00 BASE 1.03 33 1.49 45 -8.3 72 -12.5 0 0 973.7 NA 0.0000 9999 7380 0 0 0
2017/11/01 06:26:00 BASE 0.53 24 1.49 45 -8.3 71 -12.6 0 0 973.7 NA 0.0000 9999 7320 0 0 0
2017/11/01 06:27:00 BASE 0.22 16 1.49 45 -8.2 71 -12.6 0 0 973.6 NA 0.0000 9999 7350 0 0 0
2017/11/01 06:28:00 BASE 0.09 9 1.49 45 -8.3 70 -12.7 0 0 973.6 NA 0.0000 9999 7320 0 0 0
2017/11/01 06:29:00 BASE 0.00 7 1.49 45 -8.3 70 -12.8 0 0 973.6 NA 0.0000 9999 7220 0 0 0
2017/11/01 06:30:00 BASE 0.00 7 1.49 45 -8.3 70 -12.8 0 0 973.6 NA 0.0000 9999 5810 0 0 0
2017/11/01 06:31:00 BASE 0.00 7 1.49 45 -8.3 70 -12.8 0 0 973.6 NA 0.0000 9999 5710 0 0 0
2017/11/01 06:32:00 BASE 0.00 7 1.49 45 -8.3 70 -12.8 0 0 973.6 NA 0.0000 9999 7050 0 0 0
2017/11/01 06:33:00 BASE 0.00 8 1.49 45 -8.3 70 -12.8 0 0 973.6 NA 0.0000 9999 5680 0 0 0
2017/11/01 06:34:00 BASE 0.00 8 1.23 39 -8.2 70 -12.8 0 0 973.6 NA 0.0000 9999 6790 0 0 0
2017/11/01 06:35:00 BASE 0.00 9 1.13 22 -8.2 70 -12.7 0 0 973.6 NA 0.0000 9999 6860 0 0 0
2017/11/01 06:36:00 BASE 0.00 14 1.03 8 -8.1 69 -12.7 0 0 973.6 NA 0.0000 9999 6960 0 0 0
2017/11/01 06:37:00 BASE 0.00 18 M M -8.1 69 -12.8 0 0 973.6 NA 0.0000 9999 6790 0 0 0
2017/11/01 06:38:00 BASE 0.00 18 M M -8.0 69 -12.8 0 0 973.6 NA 0.0000 9999 6860 0 0 0
2017/11/01 06:39:00 BASE 0.00 18 M M -8.0 68 -12.8 0 0 973.6 NA 0.0000 9999 6790 0 0 0
2017/11/01 06:40:00 BASE 0.00 18 M M -7.9 68 -12.8 0 0 973.5 NA 0.0000 9999 6960 0 0 0
2017/11/01 06:41:00 BASE 0.00 18 M M -7.8 68 -12.8 0 0 973.5 NA 0.0000 9999 7020 0 0 0
2017/11/01 06:42:00 BASE 0.00 20 M M -7.9 67 -12.8 0 0 973.5 NA 0.0000 9999 7090 0 0 0
2017/11/01 06:43:00 BASE 0.00 22 M M -7.9 67 -12.9 0 0 973.5 NA 0.0000 9999 7150 0 0 0
2017/11/01 06:44:00 BASE 0.00 22 M M -7.9 67 -12.9 0 0 973.5 NA 0.0000 9999 7280 0 0 0
2017/11/01 06:45:00 BASE 0.00 22 M M -7.9 68 -12.9 0 0 973.5 NA 0.0000 9999 7350 0 0 0
2017/11/01 06:46:00 BASE 0.00 25 M M -7.9 68 -12.8 0 0 973.5 NA 0.0000 9999 7250 0 0 0
2017/11/01 06:47:00 BASE 0.00 36 M M -7.9 68 -12.8 0 0 973.5 NA 0.0000 9999 7120 0 0 0
2017/11/01 06:48:00 BASE 0.00 45 M M -7.9 68 -12.8 0 0 973.5 NA 0.0000 9999 7050 0 0 0
2017/11/01 06:49:00 BASE 0.00 45 M M -7.9 68 -12.8 0 0 973.5 NA 0.0000 9999 7050 0 0 0
2017/11/01 06:50:00 BASE 0.00 39 M M -7.9 68 -12.8 0 0 973.5 NA 0.0000 9999 7090 0 0 0
2017/11/01 06:51:00 BASE 0.00 31 M M -7.9 68 -12.8 0 0 973.5 NA 0.0000 9999 7090 0 0 0
2017/11/01 06:52:00 BASE 0.00 28 M M -8.0 68 -12.9 0 0 973.5 NA 0.0000 9999 7050 0 0 0
2017/11/01 06:53:00 BASE 0.00 36 M M -7.9 68 -12.8 0 0 973.5 NA 0.0000 9999 7050 0 0 0
2017/11/01 06:54:00 BASE 0.00 51 M M -7.9 68 -12.8 0 0 973.4 NA 0.0000 9999 5220 0 0 0
2017/11/01 06:55:00 BASE 0.00 59 M M -7.8 68 -12.8 0 0 973.4 NA 0.0000 9999 7050 0 0 0
2017/11/01 06:56:00 BASE 0.00 59 M M -7.8 67 -12.8 0 0 973.4 NA 0.0000 9999 5180 0 0 0
2017/11/01 06:57:00 BASE 0.00 59 M M -7.7 67 -12.8 0 0 973.4 NA 0.0000 9999 5150 0 0 0
2017/11/01 06:58:00 BASE 0.00 59 M M -7.7 67 -12.8 0 1 973.4 NA 0.0000 9999 5180 0 0 0
2017/11/01 06:59:00 BASE 0.00 73 M M -7.7 67 -12.8 0 1 973.4 NA 0.0000 9999 6860 0 0 0
2017/11/01 07:00:00 BASE 0.00 99 M M -7.7 67 -12.8 0 1 973.4 NA 0.0000 9999 5220 0 0 0
2017/11/01 07:01:00 BASE 0.00 110 M M -7.7 67 -12.8 0 1 973.4 NA 0.0000 9999 5250 0 0 0
2017/11/01 07:02:00 BASE 0.00 111 M M -7.7 67 -12.8 0 1 973.4 NA 0.0000 9999 6790 0 0 0
2017/11/01 07:03:00 BASE 0.09 110 1.08 111 -7.8 67 -12.8 0 1 973.4 NA 0.0000 9999 5320 0 0 0
2017/11/01 07:04:00 BASE 0.09 109 1.08 111 -7.8 67 -12.8 0 1 973.4 NA 0.0000 9999 5320 0 0 0
2017/11/01 07:05:00 BASE 0.00 109 1.08 111 -7.8 68 -12.8 0 1 973.4 NA 0.0000 9999 5320 0 0 0
2017/11/01 07:06:00 BASE 0.00 112 1.08 111 -7.9 68 -12.7 0 1 973.4 NA 0.0000 9999 5090 0 0 0
2017/11/01 07:07:00 BASE 0.00 117 1.08 111 -7.9 69 -12.7 0 1 973.3 NA 0.0000 9999 6500 0 0 0
2017/11/01 07:08:00 BASE 0.00 127 1.08 111 -7.9 69 -12.6 0 1 973.3 NA 0.0000 9999 6460 0 0 0
2017/11/01 07:09:00 BASE 0.00 147 1.08 111 -7.9 69 -12.6 0 1 973.3 NA 0.0000 9999 6400 0 0 0
2017/11/01 07:10:00 BASE 0.00 151 1.08 111 -7.9 69 -12.5 0 1 973.3 NA 0.0000 9999 6300 0 0 0
2017/11/01 07:11:00 BASE 0.00 144 1.08 111 -7.9 69 -12.5 0 2 973.3 NA 0.0000 9999 6230 0 0 0
2017/11/01 07:12:00 BASE 0.00 146 1.08 111 -8.0 70 -12.5 1 2 973.3 NA 0.0000 9999 6200 0 0 0
2017/11/01 07:13:00 BASE 0.00 146 M M -8.0 70 -12.5 1 2 973.3 NA 0.0000 9999 6270 0 0 0
2017/11/01 07:14:00 BASE 0.00 146 M M -8.0 71 -12.4 1 2 973.3 NA 0.0000 9999 6270 0 0 0
2017/11/01 07:15:00 BASE 0.00 146 M M -8.0 71 -12.4 1 2 973.3 NA 0.0000 9999 6330 0 0 0
2017/11/01 07:16:00 BASE 0.00 146 M M -7.9 71 -12.3 1 2 973.3 NA 0.0000 9999 6400 0 0 0
2017/11/01 07:17:00 BASE 0.00 146 M M -7.9 71 -12.2 1 2 973.3 NA 0.0000 9999 6460 0 0 0
2017/11/01 07:18:00 BASE 0.00 146 M M -7.9 71 -12.2 1 3 973.3 NA 0.0000 9999 6590 0 0 0
2017/11/01 07:19:00 BASE 0.00 146 M M -7.9 71 -12.2 1 3 973.3 NA 0.0000 9999 6790 0 0 0
2017/11/01 07:20:00 BASE 0.00 146 M M -7.9 71 -12.2 1 3 973.3 NA 0.0000 9999 6960 0 0 0
2017/11/01 07:21:00 BASE 0.00 119 M M -8.0 72 -12.2 1 3 973.3 NA 0.0000 9999 6990 0 0 0
2017/11/01 07:22:00 BASE 0.09 53 1.03 32 -8.0 72 -12.2 1 3 973.3 NA 0.0000 9999 7020 0 0 0
2017/11/01 07:23:00 BASE 0.22 32 1.08 28 -8.1 72 -12.2 1 4 973.3 NA 0.0000 9999 7020 0 0 0
2017/11/01 07:24:00 BASE 0.65 29 1.18 30 -8.1 72 -12.2 1 4 973.3 NA 0.0000 9999 7050 0 0 0
2017/11/01 07:25:00 BASE 0.69 32 1.18 30 -8.1 73 -12.2 1 4 973.3 NA 0.0000 9999 7120 0 0 0
2017/11/01 07:26:00 BASE 0.22 34 1.18 30 -8.1 73 -12.2 1 5 973.3 NA 0.0000 9999 7050 0 0 0
2017/11/01 07:27:00 BASE 0.09 38 1.18 30 -8.1 73 -12.1 1 5 973.3 NA 0.0000 9999 7090 0 0 0
2017/11/01 07:28:00 BASE 0.04 47 1.18 30 -8.1 73 -12.1 2 5 973.3 NA 0.0000 9999 4860 0 0 0
2017/11/01 07:29:00 BASE 0.00 49 1.18 30 -8.0 73 -12.0 2 6 973.3 NA 0.0000 9999 4490 0 0 0
2017/11/01 07:30:00 BASE 0.00 49 1.18 30 -8.0 72 -12.1 2 6 973.3 NA 0.0000 9999 4860 0 0 0
2017/11/01 07:31:00 BASE 0.00 54 1.18 30 -7.9 72 -12.1 2 6 973.3 NA 0.0000 9999 4460 0 0 0
2017/11/01 07:32:00 BASE 0.00 52 1.18 30 -7.9 71 -12.2 2 7 973.3 NA 0.0000 9999 4760 0 0 0
2017/11/01 07:33:00 BASE 0.00 51 1.18 30 -7.8 70 -12.3 2 7 973.3 NA 0.0000 9999 4460 0 0 0
2017/11/01 07:34:00 BASE 0.00 48 1.08 34 -7.8 70 -12.3 2 7 973.3 NA 0.0000 9999 4400 0 0 0
2017/11/01 07:35:00 BASE 0.00 44 1.03 55 -7.7 69 -12.4 2 8 973.3 NA 0.0000 9999 4330 0 0 0
2017/11/01 07:36:00 BASE 0.00 44 1.03 55 -7.7 69 -12.5 2 8 973.2 NA 0.0000 9999 4300 0 0 0
2017/11/01 07:37:00 BASE 0.00 44 M M -7.7 68 -12.5 2 8 973.2 NA 0.0000 9999 4200 0 0 0
2017/11/01 07:38:00 BASE 0.00 44 M M -7.8 68 -12.6 3 9 973.2 NA 0.0000 9999 4130 0 0 0
2017/11/01 07:39:00 BASE 0.00 44 M M -7.8 68 -12.6 3 10 973.2 NA 0.0000 9999 4130 0 0 0
2017/11/01 07:40:00 BASE 0.00 44 M M -7.8 69 -12.6 3 10 973.2 NA 0.0000 9999 4170 5090 0 0
2017/11/01 07:41:00 BASE 0.00 44 M M -7.8 69 -12.6 3 10 973.2 NA 0.0000 9999 4230 0 0 0
2017/11/01 07:42:00 BASE 0.00 44 M M -7.9 69 -12.6 3 11 973.2 NA 0.0000 9999 4070 0 0 0
2017/11/01 07:43:00 BASE 0.00 44 M M -7.9 69 -12.6 3 11 973.2 NA 0.0000 9999 4000 0 0 0
2017/11/01 07:44:00 BASE 0.00 44 M M -7.9 69 -12.6 3 12 973.2 NA 0.0000 9999 4040 0 0 0
2017/11/01 07:45:00 BASE 0.00 44 M M -7.9 69 -12.6 4 13 973.2 NA 0.0000 9999 4070 0 0 0
2017/11/01 07:46:00 BASE 0.00 35 M M -7.9 69 -12.6 4 13 973.2 NA 0.0000 9999 4040 0 0 0
2017/11/01 07:47:00 BASE 0.00 351 M M -7.9 69 -12.6 4 14 973.3 NA 0.0000 9999 4000 0 0 0
2017/11/01 07:48:00 BASE 0.00 323 M M -7.9 69 -12.6 4 15 973.3 NA 0.0000 9999 4040 0 0 0
2017/11/01 07:49:00 BASE 0.00 326 M M -8.0 69 -12.6 5 15 973.3 NA 0.0000 9999 4000 0 0 0
2017/11/01 07:50:00 BASE 0.00 327 M M -8.0 69 -12.6 5 16 973.3 NA 0.0000 9999 3970 0 0 0
2017/11/01 07:51:00 BASE 0.09 322 1.03 316 -8.0 69 -12.6 5 17 973.3 NA 0.0000 9999 3970 0 0 0
2017/11/01 07:52:00 BASE 0.37 316 1.18 308 -8.0 70 -12.6 6 18 973.3 NA 0.0000 9999 3870 0 0 0
2017/11/01 07:53:00 BASE 0.32 313 1.18 308 -8.0 70 -12.6 6 19 973.3 NA 0.0000 9999 3840 0 0 0
2017/11/01 07:54:00 BASE 0.13 316 1.18 308 -8.1 70 -12.5 7 19 973.3 NA 0.0000 9999 3810 0 0 0
2017/11/01 07:55:00 BASE 0.40 322 1.18 329 -8.1 70 -12.5 7 20 973.3 NA 0.0000 9999 3900 0 0 0
2017/11/01 07:56:00 BASE 0.86 329 1.18 349 -8.1 71 -12.5 7 21 973.3 NA 0.0000 9999 3970 0 0 0
2017/11/01 07:57:00 BASE 0.68 337 1.18 349 -8.1 71 -12.4 8 22 973.3 NA 0.0000 9999 4070 0 0 0
2017/11/01 07:58:00 BASE 0.58 341 1.18 349 -8.1 71 -12.4 8 24 973.3 NA 0.0000 9999 3970 0 0 0
2017/11/01 07:59:00 BASE 1.07 338 1.39 334 -8.1 72 -12.3 9 25 973.3 NA 0.0000 9999 3840 0 0 0
2017/11/01 08:00:00 BASE 1.32 333 1.44 333 -8.1 72 -12.3 10 26 973.3 NA 0.0000 9999 3970 0 0 0
2017/11/01 08:01:00 BASE 1.45 333 1.54 333 -8.1 72 -12.2 10 27 973.3 NA 0.0000 9999 3810 0 0 0
2017/11/01 08:02:00 BASE 1.53 333 1.59 335 -8.1 73 -12.1 11 28 973.3 NA 0.0000 9999 3970 0 0 0
2017/11/01 08:03:00 BASE 1.51 334 1.59 334 -8.1 73 -12.1 11 29 973.3 NA 0.0000 9999 4000 0 0 0
2017/11/01 08:04:00 BASE 1.43 336 1.59 334 -8.1 74 -12.0 12 30 973.3 NA 0.0000 9999 3940 0 0 0
2017/11/01 08:05:00 BASE 1.36 337 1.59 334 -8.1 74 -12.0 12 31 973.3 NA 0.0000 9999 3840 0 0 0
2017/11/01 08:06:00 BASE 1.34 337 1.59 334 -8.1 74 -11.9 13 32 973.3 NA 0.0000 9999 3810 0 0 0
2017/11/01 08:07:00 BASE 1.34 337 1.59 334 -8.1 74 -11.9 14 34 973.3 NA 0.0000 9999 3940 0 0 0
2017/11/01 08:08:00 BASE 1.35 337 1.59 334 -8.1 74 -12.0 14 35 973.3 NA 0.0000 9999 3740 0 0 0
2017/11/01 08:09:00 BASE 1.38 341 1.59 334 -8.2 74 -12.0 15 36 973.2 NA 0.0000 9999 3670 0 0 0
2017/11/01 08:10:00 BASE 1.37 346 1.59 334 -8.2 74 -12.0 15 38 973.2 NA 0.0000 9999 3670 0 0 0
2017/11/01 08:11:00 BASE 1.31 353 1.59 334 -8.2 74 -12.0 16 39 973.3 NA 0.0000 9999 4070 0 0 0
2017/11/01 08:12:00 BASE 1.21 4 1.59 334 -8.2 74 -12.1 17 41 973.3 NA 0.0000 9999 3870 0 0 0
2017/11/01 08:13:00 BASE 1.27 8 1.54 6 -8.2 73 -12.1 17 42 973.3 NA 0.0000 9999 3810 0 0 0
2017/11/01 08:14:00 BASE 1.38 7 1.54 6 -8.2 73 -12.1 18 43 973.3 NA 0.0000 9999 3640 0 0 0
2017/11/01 08:15:00 BASE 1.41 6 1.65 4 -8.2 73 -12.2 19 45 973.3 NA 0.0000 9999 3640 0 0 0
2017/11/01 08:16:00 BASE 1.53 7 1.70 19 -8.2 73 -12.2 19 46 973.3 NA 0.0000 9999 3670 0 0 0
2017/11/01 08:17:00 BASE 1.73 15 2.06 22 -8.2 73 -12.2 20 48 973.3 NA 0.0000 9999 3540 5250 0 0
2017/11/01 08:18:00 BASE 1.87 20 2.06 23 -8.2 73 -12.2 20 49 973.3 NA 0.0000 9999 3410 0 0 0
2017/11/01 08:19:00 BASE 1.87 21 2.06 23 -8.2 73 -12.2 21 50 973.3 NA 0.0000 9999 3410 0 0 0
2017/11/01 08:20:00 BASE 1.80 23 2.06 23 -8.3 73 -12.2 21 52 973.3 NA 0.0000 9999 3450 0 0 0
2017/11/01 08:21:00 BASE 1.74 24 2.06 23 -8.3 73 -12.3 22 53 973.3 NA 0.0000 9999 3450 0 0 0
2017/11/01 08:22:00 BASE 1.72 26 2.06 23 -8.3 73 -12.3 22 54 973.3 NA 0.0000 9999 3480 0 0 0
2017/11/01 08:23:00 BASE 1.81 27 2.11 27 -8.3 73 -12.3 23 56 973.3 NA 0.0000 9999 3350 0 0 0
2017/11/01 08:24:00 BASE 1.75 27 2.11 27 -8.3 73 -12.2 23 57 973.3 NA 0.0000 9999 3450 0 0 0
2017/11/01 08:25:00 BASE 1.57 24 2.11 27 -8.3 73 -12.2 24 58 973.3 NA 0.0000 9999 3410 0 0 0
2017/11/01 08:26:00 BASE 1.65 23 2.11 27 -8.3 73 -12.2 24 59 973.3 NA 0.0000 9999 3380 0 0 0
2017/11/01 08:27:00 BASE 1.80 28 2.11 27 -8.3 74 -12.2 25 61 973.3 NA 0.0000 9999 3410 0 0 0
2017/11/01 08:28:00 BASE 1.79 29 2.11 27 -8.3 74 -12.2 25 62 973.3 NA 0.0000 9999 3410 0 0 0
2017/11/01 08:29:00 BASE 1.68 26 2.11 27 -8.3 74 -12.2 26 64 973.3 NA 0.0000 9999 3380 0 0 0
2017/11/01 08:30:00 BASE 1.57 23 2.11 27 -8.3 74 -12.2 27 65 973.3 NA 0.0000 9999 3310 0 0 0
2017/11/01 08:31:00 BASE 1.55 23 2.11 27 -8.3 74 -12.2 27 67 973.3 NA 0.0000 9999 3280 0 0 0
2017/11/01 08:32:00 BASE 1.49 17 2.11 27 -8.3 73 -12.3 28 69 973.3 NA 0.0000 9999 3280 0 0 0
2017/11/01 08:33:00 BASE 1.45 12 2.01 20 -8.3 73 -12.3 29 71 973.3 NA 0.0000 9999 3250 0 0 0
2017/11/01 08:34:00 BASE 1.41 12 2.01 20 -8.3 73 -12.4 30 73 973.3 NA 0.0000 9999 3220 0 0 0
2017/11/01 08:35:00 BASE 1.35 13 2.01 20 -8.3 73 -12.3 31 75 973.3 NA 0.0000 9999 3180 0 0 0
2017/11/01 08:36:00 BASE 1.33 13 1.90 27 -8.3 72 -12.3 32 78 973.3 NA 0.0000 9999 3150 0 0 0
2017/11/01 08:37:00 BASE 1.30 14 1.90 27 -8.2 72 -12.3 33 80 973.3 NA 0.0000 9999 3050 0 0 0
2017/11/01 08:38:00 BASE 1.29 23 1.80 27 -8.2 72 -12.3 34 82 973.3 NA 0.0000 9999 3020 0 0 0
2017/11/01 08:39:00 BASE 1.32 36 1.70 23 -8.2 72 -12.3 36 85 973.3 NA 0.0000 9999 3020 0 0 0
2017/11/01 08:40:00 BASE 1.33 38 1.65 9 -8.2 72 -12.3 37 88 973.3 NA 0.0000 9999 3150 0 0 0
2017/11/01 08:41:00 BASE 1.29 36 1.59 13 -8.1 72 -12.3 39 90 973.3 NA 0.0000 9999 3020 0 0 0
2017/11/01 08:42:00 BASE 1.22 36 1.59 13 -8.1 72 -12.3 40 93 973.3 NA 0.0000 9999 2990 0 0 0
2017/11/01 08:43:00 BASE 1.19 34 1.44 35 -8.1 72 -12.3 41 96 973.3 NA 0.0000 9999 2950 0 0 0
2017/11/01 08:44:00 BASE 1.20 33 1.44 35 -8.0 72 -12.3 42 98 973.3 NA 0.0000 9999 2920 0 0 0
2017/11/01 08:45:00 BASE 1.27 35 1.54 37 -8.0 71 -12.3 43 100 973.3 NA 0.0000 9999 3080 0 0 0
2017/11/01 08:46:00 BASE 1.52 37 1.90 37 -8.0 71 -12.3 44 102 973.3 NA 0.0000 9999 3120 0 0 0
2017/11/01 08:47:00 BASE 1.80 40 2.06 46 -8.0 71 -12.3 45 104 973.3 NA 0.0000 9999 3150 0 0 0
2017/11/01 08:48:00 BASE 1.83 43 2.06 46 -8.0 71 -12.3 46 106 973.3 NA 0.0000 9999 3180 0 0 0
2017/11/01 08:49:00 BASE 1.75 43 2.06 46 -8.0 71 -12.3 47 108 973.3 NA 0.0000 9999 3150 0 0 0
2017/11/01 08:50:00 BASE 1.56 42 2.06 46 -8.0 71 -12.3 48 111 973.3 NA 0.0000 9999 3080 0 0 0
2017/11/01 08:51:00 BASE 1.37 39 2.06 46 -8.0 71 -12.3 50 114 973.3 NA 0.0000 9999 3050 0 0 0
2017/11/01 08:52:00 BASE 1.32 34 2.06 46 -7.9 71 -12.3 52 118 973.3 NA 0.0000 9999 3080 0 0 0
2017/11/01 08:53:00 BASE 1.43 30 2.06 46 -7.9 70 -12.3 54 122 973.3 NA 0.0000 9999 3220 0 0 0
2017/11/01 08:54:00 BASE 1.56 31 2.06 46 -7.8 70 -12.4 56 126 973.3 NA 0.0000 9999 3120 0 0 0
2017/11/01 08:55:00 BASE 1.69 31 2.06 46 -7.8 70 -12.4 58 129 973.3 NA 0.0000 9999 3020 0 0 0
2017/11/01 08:56:00 BASE 1.77 31 2.06 46 -7.8 70 -12.4 59 132 973.3 NA 0.0000 9999 2990 0 0 0
2017/11/01 08:57:00 BASE 1.69 28 2.01 31 -7.8 70 -12.4 60 135 973.3 NA 0.0000 9999 2950 0 0 0
2017/11/01 08:58:00 BASE 1.64 24 2.01 31 -7.9 70 -12.3 62 138 973.3 NA 0.0000 9999 2950 0 0 0
2017/11/01 08:59:00 BASE 1.60 22 2.01 31 -7.9 71 -12.3 63 140 973.3 NA 0.0000 9999 2990 0 0 0
2017/11/01 09:00:00 BASE 1.55 21 2.01 31 -7.9 71 -12.3 64 143 973.3 NA 0.0000 9999 2920 0 0 0
2017/11/01 09:01:00 BASE 1.59 20 2.01 31 -7.9 71 -12.2 65 145 973.3 NA 0.0000 9999 3050 0 0 0
2017/11/01 09:02:00 BASE 1.60 21 2.01 31 -7.9 71 -12.2 66 147 973.3 NA 0.0000 9999 3020 0 0 0
2017/11/01 09:03:00 BASE 1.57 23 2.01 31 -7.9 71 -12.3 67 150 973.3 NA 0.0000 9999 3120 0 0 0
2017/11/01 09:04:00 BASE 1.56 23 2.01 31 -7.9 71 -12.3 68 153 973.3 NA 0.0000 9999 3220 0 0 0
2017/11/01 09:05:00 BASE 1.51 23 1.85 30 -7.9 71 -12.3 70 156 973.3 NA 0.0000 9999 3050 0 0 0
2017/11/01 09:06:00 BASE 1.47 23 1.80 20 -7.9 71 -12.3 71 160 973.3 NA 0.0000 9999 2990 0 0 0
2017/11/01 09:07:00 BASE 1.40 26 1.80 20 -7.9 71 -12.2 74 164 973.3 NA 0.0000 9999 2950 0 0 0
2017/11/01 09:08:00 BASE 1.34 31 1.80 20 -7.8 71 -12.2 76 168 973.4 NA 0.0000 9999 3020 0 0 0
2017/11/01 09:09:00 BASE 1.27 38 1.80 20 -7.8 71 -12.2 78 172 973.4 NA 0.0000 9999 3050 0 0 0
2017/11/01 09:10:00 BASE 0.99 49 1.80 20 -7.8 71 -12.2 80 177 973.4 NA 0.0000 9999 2850 0 0 0
2017/11/01 09:11:00 BASE 0.57 52 1.65 23 -7.8 71 -12.1 82 181 973.4 NA 0.0000 9999 4790 0 0 0
2017/11/01 09:12:00 BASE 0.22 52 1.65 23 -7.8 71 -12.2 85 186 973.4 NA 0.0000 9999 4660 0 0 0
2017/11/01 09:13:00 BASE 0.04 47 1.65 23 -7.8 71 -12.2 87 190 973.4 NA 0.0000 9999 4560 0 0 0
2017/11/01 09:14:00 BASE 0.00 35 1.65 23 -7.7 70 -12.2 89 194 973.3 NA 0.0000 9999 4460 0 0 0
2017/11/01 09:15:00 BASE 0.00 32 1.54 23 -7.6 70 -12.2 90 196 973.3 NA 0.0000 9999 4530 0 0 0
2017/11/01 09:16:00 BASE 0.00 32 1.44 31 -7.5 69 -12.2 90 197 973.3 NA 0.0000 9999 4430 0 0 0
2017/11/01 09:17:00 BASE 0.00 32 1.44 31 -7.5 69 -12.2 89 197 973.3 NA 0.0000 9999 4530 0 0 0
2017/11/01 09:18:00 BASE 0.04 37 1.39 35 -7.5 68 -12.3 89 197 973.3 NA 0.0000 9999 4430 0 0 0
2017/11/01 09:19:00 BASE 0.56 37 1.29 53 -7.4 68 -12.3 89 197 973.2 NA 0.0000 9999 4660 0 0 0
2017/11/01 09:20:00 BASE 0.82 32 1.18 34 -7.4 68 -12.3 89 198 973.2 NA 0.0000 9999 4790 0 0 0
2017/11/01 09:21:00 BASE 0.60 29 1.18 25 -7.4 68 -12.4 89 199 973.2 NA 0.0000 9999 4630 0 0 0
2017/11/01 09:22:00 BASE 0.90 25 1.29 21 -7.4 68 -12.4 90 202 973.1 NA 0.0000 9999 4530 0 0 0
2017/11/01 09:23:00 BASE 1.23 22 1.39 21 -7.4 68 -12.4 92 205 973.1 NA 0.0000 9999 4530 0 0 0
2017/11/01 09:24:00 BASE 1.21 21 1.39 21 -7.4 68 -12.4 95 211 973.0 NA 0.0000 9999 4460 0 0 0
2017/11/01 09:25:00 BASE 1.18 21 1.39 21 -7.5 68 -12.3 99 220 973.0 NA 0.0000 9999 4530 0 0 0
2017/11/01 09:26:00 BASE 1.24 26 1.39 34 -7.5 68 -12.3 105 231 973.0 NA 0.0000 9999 4490 0 0 0
2017/11/01 09:27:00 BASE 1.37 34 1.44 38 -7.5 69 -12.3 112 243 973.0 NA 0.0000 9999 4460 0 0 0
2017/11/01 09:28:00 BASE 1.49 40 1.65 43 -7.5 69 -12.2 119 257 972.9 NA 0.0000 9999 4660 0 0 0
2017/11/01 09:29:00 BASE 1.46 41 1.65 43 -7.4 69 -12.2 127 270 972.9 NA 0.0000 9999 4630 0 0 0
2017/11/01 09:30:00 BASE 1.19 41 1.65 43 -7.4 68 -12.2 133 281 972.9 NA 0.0000 9999 4530 0 0 0
2017/11/01 09:31:00 BASE 1.25 46 1.65 43 -7.3 68 -12.2 137 289 972.9 NA 0.0000 9999 4630 0 0 0
2017/11/01 09:32:00 BASE 1.64 59 1.90 71 -7.3 68 -12.3 138 290 972.9 NA 0.0000 9999 20410 0 0 0
2017/11/01 09:33:00 BASE 1.88 69 2.06 71 -7.3 67 -12.3 136 288 972.9 NA 0.0000 9999 4560 0 0 0
2017/11/01 09:34:00 BASE 1.87 69 2.06 71 -7.3 68 -12.3 132 282 972.9 NA 0.0000 9999 4490 0 0 0
2017/11/01 09:35:00 BASE 1.76 68 2.06 71 -7.3 68 -12.2 127 275 972.9 NA 0.0000 9999 4460 0 0 0
2017/11/01 09:36:00 BASE 1.64 72 2.06 71 -7.3 69 -12.1 123 267 972.9 NA 0.0000 9999 4460 0 0 0
2017/11/01 09:37:00 BASE 1.61 74 2.06 71 -7.3 69 -12.0 119 261 972.9 NA 0.0000 9999 4860 0 0 0
2017/11/01 09:38:00 BASE 1.69 74 2.06 71 -7.3 70 -11.9 115 255 972.8 NA 0.0000 9999 5180 0 0 0
2017/11/01 09:39:00 BASE 1.59 74 2.06 71 -7.3 70 -11.9 110 248 972.8 NA 0.0000 9999 5480 0 0 0
2017/11/01 09:40:00 BASE 1.48 75 2.06 71 -7.3 70 -11.9 108 246 972.8 NA 0.0000 9999 9220 0 0 0
2017/11/01 09:41:00 BASE 1.40 78 2.06 71 -7.3 70 -11.9 108 246 972.8 NA 0.0000 9999 9190 0 0 0
2017/11/01 09:42:00 BASE 1.23 85 2.06 71 -7.3 70 -11.9 109 248 972.8 NA 0.0000 9999 9120 0 0 0
2017/11/01 09:43:00 BASE 0.60 96 1.95 69 -7.2 69 -11.9 110 251 972.8 NA 0.0000 9999 9150 0 0 0
2017/11/01 09:44:00 BASE 0.05 104 1.85 67 -7.2 69 -12.0 111 254 972.8 NA 0.0000 9999 9090 0 0 0
2017/11/01 09:45:00 BASE 0.00 106 1.75 74 -7.1 68 -12.0 112 256 972.8 NA 0.0000 9999 8990 0 0 0
2017/11/01 09:46:00 BASE 0.00 106 1.75 74 -7.1 67 -12.1 114 259 972.8 NA 0.0000 9999 8920 0 0 0
2017/11/01 09:47:00 BASE 0.00 106 1.75 74 -7.0 67 -12.1 115 262 972.8 NA 0.0000 9999 3050 8830 0 0
2017/11/01 09:48:00 BASE 0.00 106 1.59 74 -7.0 67 -12.1 116 265 972.8 NA 0.0000 9999 2950 8790 0 0
2017/11/01 09:49:00 BASE 0.00 106 1.54 74 -7.0 67 -12.2 118 268 972.8 NA 0.0000 9999 4040 8790 0 0
2017/11/01 09:50:00 BASE 0.00 106 1.44 80 -7.0 66 -12.2 119 271 972.8 NA 0.0000 9999 3020 6920 8600 0
2017/11/01 09:51:00 BASE 0.00 106 1.23 100 -6.9 66 -12.3 119 272 972.8 NA 0.0000 9999 4630 6920 8630 0
2017/11/01 09:52:00 BASE 0.00 103 1.08 95 -6.9 66 -12.3 119 273 972.7 NA 0.0000 9999 2920 6890 8690 0
2017/11/01 09:53:00 BASE 0.29 93 1.29 82 -7.0 66 -12.3 119 272 972.7 NA 0.0000 9999 2950 6890 8730 0
2017/11/01 09:54:00 BASE 0.56 84 1.29 82 -7.0 66 -12.3 118 272 972.7 NA 0.0000 9999 2790 5870 6790 0
2017/11/01 09:55:00 BASE 0.84 82 1.29 82 -7.0 66 -12.3 117 270 972.7 NA 0.0000 9999 2890 5870 6820 0
2017/11/01 09:56:00 BASE 1.21 82 1.49 82 -7.0 66 -12.3 114 265 972.6 NA 0.0000 9999 2820 5810 8660 0
2017/11/01 09:57:00 BASE 1.39 85 1.54 88 -7.0 66 -12.3 111 261 972.6 NA 0.0000 9999 2690 8330 0 0
2017/11/01 09:58:00 BASE 1.55 88 1.70 88 -7.0 66 -12.3 109 257 972.5 NA 0.0000 9999 2660 8200 0 0
2017/11/01 09:59:00 BASE 1.62 88 1.90 88 -7.0 65 -12.4 109 257 972.4 NA 0.0000 9999 8300 0 0 0
2017/11/01 10:00:00 BASE 1.85 86 2.21 81 -7.0 65 -12.4 110 260 972.4 NA 0.0000 9999 8170 0 0 0
2017/11/01 10:01:00 BASE 1.81 90 2.21 81 -7.0 65 -12.4 113 265 972.4 NA 0.0000 9999 8140 0 0 0
2017/11/01 10:02:00 BASE 1.55 89 2.21 81 -6.9 65 -12.4 119 276 972.3 NA 0.0000 9999 8040 8730 0 0
2017/11/01 10:03:00 BASE 1.71 80 2.21 81 -7.0 65 -12.4 126 291 972.3 NA 0.0000 9999 8100 0 0 0
2017/11/01 10:04:00 BASE 1.76 77 2.21 81 -7.0 66 -12.3 135 308 972.3 NA 0.0000 9999 7910 8630 0 0
2017/11/01 10:05:00 BASE 1.66 75 2.21 81 -7.0 66 -12.3 142 322 972.3 NA 0.0000 9999 7870 0 0 0
2017/11/01 10:06:00 BASE 1.59 74 2.21 81 -7.0 66 -12.3 147 331 972.3 NA 0.0000 9999 7740 8830 0 0
2017/11/01 10:07:00 BASE 1.55 70 2.21 81 -7.1 67 -12.2 151 339 972.3 NA 0.0000 9999 7870 0 0 0
2017/11/01 10:08:00 BASE 1.53 67 2.21 81 -7.1 67 -12.2 155 346 972.3 NA 0.0000 9999 7840 8790 0 0
2017/11/01 10:09:00 BASE 1.49 66 2.21 81 -7.1 67 -12.2 162 360 972.3 NA 0.0000 9999 4760 7780 8730 0
2017/11/01 10:10:00 BASE 1.49 69 2.06 85 -7.1 67 -12.1 169 375 972.3 NA 0.0000 9999 3970 4560 8660 0
2017/11/01 10:11:00 BASE 1.67 73 2.01 75 -7.1 68 -12.1 176 388 972.3 NA 0.0000 9999 4530 8660 0 0
2017/11/01 10:12:00 BASE 1.91 76 2.11 84 -7.1 68 -12.0 181 399 972.2 NA 0.0000 9999 4530 0 0 0
2017/11/01 10:13:00 BASE 2.08 81 2.26 84 -7.1 68 -12.0 183 404 972.2 NA 0.0000 9999 3410 8460 0 0
2017/11/01 10:14:00 BASE 2.26 84 2.37 85 -7.1 69 -11.9 180 400 972.2 NA 0.0000 9999 3870 4560 8530 0
2017/11/01 10:15:00 BASE 2.36 87 2.42 92 -7.1 69 -11.8 174 390 972.1 NA 0.0000 9999 8500 0 0 0
2017/11/01 10:16:00 BASE 2.40 90 2.52 92 -7.1 69 -11.8 162 367 972.1 NA 0.0000 9999 4530 8100 0 0
2017/11/01 10:17:00 BASE 2.36 93 2.52 92 -7.1 69 -11.8 148 341 972.1 NA 0.0000 9999 4460 7780 8660 0
2017/11/01 10:18:00 BASE 2.36 92 2.52 92 -7.1 69 -11.8 138 323 972.2 NA 0.0000 9999 4460 7910 0 0
2017/11/01 10:19:00 BASE 2.38 91 2.52 92 -7.1 69 -11.7 134 316 972.2 NA 0.0000 9999 4490 7970 0 0
2017/11/01 10:20:00 BASE 2.21 93 2.52 92 -7.0 69 -11.7 132 311 972.2 NA 0.0000 9999 4490 0 0 0
2017/11/01 10:21:00 BASE 2.23 94 2.78 94 -7.0 70 -11.6 134 316 972.1 NA 0.0000 9999 4490 5320 7780 0
2017/11/01 10:22:00 BASE 2.61 93 2.98 86 -7.0 70 -11.6 141 329 972.1 NA 0.0000 9999 4490 5280 7870 0
2017/11/01 10:23:00 BASE 3.00 90 3.24 88 -7.0 70 -11.5 145 339 972.1 NA 0.0000 9999 4490 5250 0 0
2017/11/01 10:24:00 BASE 3.01 94 3.24 88 -7.0 71 -11.4 148 345 972.1 NA 0.0000 9999 4490 5180 7910 0
2017/11/01 10:25:00 BASE 3.00 101 3.45 103 -7.0 71 -11.3 149 348 972.1 NA 0.0000 9999 4460 5050 0 0
2017/11/01 10:26:00 BASE 3.17 106 3.60 111 -6.9 71 -11.3 148 348 972.1 NA 0.0000 9999 4530 5120 0 0
2017/11/01 10:27:00 BASE 3.04 110 3.60 111 -6.8 70 -11.4 147 346 972.2 NA 0.0000 9999 4490 5180 0 0
2017/11/01 10:28:00 BASE 2.72 114 3.60 111 -6.6 68 -11.6 147 346 972.2 NA 0.0000 9999 3870 4430 5220 0
2017/11/01 10:29:00 BASE 2.89 114 3.65 114 -6.5 67 -11.7 147 348 972.2 NA 0.0000 9999 4130 5120 0 0
2017/11/01 10:30:00 BASE 3.22 111 3.65 114 -6.4 65 -11.9 146 347 972.1 NA 0.0000 9999 4430 5180 0 0
2017/11/01 10:31:00 BASE 3.35 112 3.70 113 -6.4 64 -12.1 145 346 972.1 NA 0.0000 9999 4490 5180 0 0
2017/11/01 10:32:00 BASE 3.42 114 3.70 113 -6.4 63 -12.2 146 348 972.1 NA 0.0000 9999 4630 5120 0 0
2017/11/01 10:33:00 BASE 3.26 112 3.70 113 -6.4 64 -12.2 146 349 972.1 NA 0.0000 9999 4560 5120 0 0
2017/11/01 10:34:00 BASE 3.16 111 3.70 113 -6.4 64 -12.2 147 351 972.1 NA 0.0000 9999 4490 5150 0 0
2017/11/01 10:35:00 BASE 3.17 113 3.70 113 -6.5 64 -12.2 146 350 972.0 NA 0.0000 9999 4530 0 0 0
2017/11/01 10:36:00 BASE 3.28 113 3.91 116 -6.5 64 -12.1 143 344 972.0 NA 0.0000 9999 3940 0 0 0
2017/11/01 10:37:00 BASE 3.41 112 3.91 116 -6.5 65 -12.0 139 337 972.0 NA 0.0000 9999 3840 0 0 0
2017/11/01 10:38:00 BASE 3.47 112 3.91 116 -6.6 65 -12.0 136 333 972.0 NA 0.0000 9999 3810 0 0 0
2017/11/01 10:39:00 BASE 3.53 110 3.91 116 -6.6 66 -12.0 136 331 972.0 NA 0.0000 9999 4530 0 0 0
2017/11/01 10:40:00 BASE 3.51 111 3.91 116 -6.6 66 -11.9 135 331 972.0 NA 0.0000 9999 4560 0 0 0
2017/11/01 10:41:00 BASE 3.51 110 4.01 112 -6.5 66 -11.9 134 331 971.9 NA 0.0000 9999 2790 0 0 0
2017/11/01 10:42:00 BASE 3.85 109 4.48 108 -6.5 65 -11.9 134 330 971.8 NA 0.0000 9999 4460 0 0 0
2017/11/01 10:43:00 BASE 4.06 108 4.48 107 -6.5 65 -12.0 133 330 971.8 NA 0.0000 9999 4430 0 0 0
2017/11/01 10:44:00 BASE 4.06 108 4.48 107 -6.5 65 -12.0 134 332 971.8 NA 0.0000 9999 2170 4950 0 0
2017/11/01 10:45:00 BASE 4.09 107 4.48 107 -6.5 66 -11.9 135 335 971.7 NA 0.0000 9999 4920 0 0 0
2017/11/01 10:46:00 BASE 3.72 107 4.48 107 -6.5 66 -11.8 137 339 971.7 NA 0.0000 9999 4400 4890 0 0
2017/11/01 10:47:00 BASE 3.41 109 4.48 107 -6.5 66 -11.7 138 343 971.7 NA 0.0000 9999 2950 4400 0 0
2017/11/01 10:48:00 BASE 3.61 110 4.48 107 -6.5 67 -11.7 139 345 971.7 NA 0.0000 9999 2820 0 0 0
2017/11/01 10:49:00 BASE 3.73 111 4.48 107 -6.4 66 -11.7 140 347 971.7 NA 0.0000 9999 2850 0 0 0
2017/11/01 10:50:00 BASE 3.57 112 4.48 107 -6.4 66 -11.8 139 346 971.7 NA 0.0000 9999 2790 0 0 0
2017/11/01 10:51:00 BASE 3.65 114 4.48 107 -6.3 65 -11.8 139 344 971.7 NA 0.0000 9999 2200 0 0 0
2017/11/01 10:52:00 BASE 3.73 116 4.48 107 -6.3 65 -11.8 136 340 971.7 NA 0.0000 9999 4270 0 0 0
2017/11/01 10:53:00 BASE 3.50 120 4.37 107 -6.3 66 -11.7 133 333 971.7 NA 0.0000 9999 4230 0 0 0
2017/11/01 10:54:00 BASE 3.70 120 4.58 117 -6.4 67 -11.5 129 325 971.7 NA 0.0000 9999 4230 0 0 0
2017/11/01 10:55:00 BASE 3.58 122 4.58 117 -6.4 68 -11.3 126 319 971.7 NA 0.0000 9999 4070 0 0 0
2017/11/01 10:56:00 BASE 2.92 126 4.58 117 -6.4 70 -11.1 126 320 971.7 NA 0.0000 9999 3410 0 0 0
2017/11/01 10:57:00 BASE 2.39 125 4.58 117 -6.4 70 -10.9 130 329 971.7 NA 0.0000 9999 3540 0 0 0
2017/11/01 10:58:00 BASE 2.20 130 4.58 117 -6.4 71 -10.8 138 345 971.7 NA 0.0000 9999 3810 0 0 0
2017/11/01 10:59:00 BASE 2.18 132 4.58 117 -6.4 71 -10.7 145 360 971.7 NA 0.0000 9999 3710 0 0 0
2017/11/01 11:00:00 BASE 2.07 133 4.58 117 -6.4 72 -10.7 149 369 971.6 NA 0.0000 9999 4300 0 0 0
2017/11/01 11:01:00 BASE 2.80 137 4.58 117 -6.4 72 -10.6 150 372 971.6 NA 0.0000 9999 4230 0 0 0
2017/11/01 11:02:00 BASE 3.63 138 4.58 117 -6.4 73 -10.5 150 373 971.6 NA 0.0000 9999 4100 0 0 0
2017/11/01 11:03:00 BASE 3.78 137 4.58 117 -6.3 73 -10.4 149 374 971.6 NA 0.0000 9999 3870 0 0 0
2017/11/01 11:04:00 BASE 3.69 135 4.12 135 -6.3 74 -10.3 148 374 971.6 NA 0.0000 9999 3810 0 0 0
2017/11/01 11:05:00 BASE 3.53 134 4.12 135 -6.3 74 -10.2 146 372 971.7 NA 0.0000 9999 3770 0 0 0
2017/11/01 11:06:00 BASE 3.43 133 4.12 135 -6.3 74 -10.1 143 367 971.7 NA 0.0000 9999 3770 0 0 0
2017/11/01 11:07:00 BASE 3.44 132 4.12 135 -6.3 74 -10.1 140 361 971.7 NA 0.0000 9999 3670 0 0 0
2017/11/01 11:08:00 BASE 3.37 130 4.12 135 -6.2 75 -10.0 140 359 971.7 NA 0.0000 9999 3610 0 0 0
2017/11/01 11:09:00 BASE 3.10 127 4.12 135 -6.2 75 -10.0 139 359 971.7 NA 0.0000 9999 3580 0 0 0
2017/11/01 11:10:00 BASE 3.29 124 4.12 135 -6.2 75 -10.0 136 352 971.7 NA 0.0000 9999 3580 0 0 0
2017/11/01 11:11:00 BASE 3.44 123 4.12 135 -6.2 74 -10.0 128 336 971.7 NA 0.0000 9999 3510 0 0 0
2017/11/01 11:12:00 BASE 3.28 124 4.01 136 -6.2 74 -10.1 120 318 971.8 NA 0.0000 9999 3480 0 0 0
2017/11/01 11:13:00 BASE 3.08 125 3.76 122 -6.2 73 -10.2 114 305 971.8 NA 0.0000 9999 3480 0 0 0
2017/11/01 11:14:00 BASE 2.88 128 3.76 122 -6.2 73 -10.2 109 294 971.8 NA 0.0000 9999 2990 0 0 0
2017/11/01 11:15:00 BASE 2.65 134 3.76 122 -6.2 73 -10.2 104 283 972.0 NA 0.0000 9999 2920 0 0 0
2017/11/01 11:16:00 BASE 2.45 137 3.76 122 -6.1 73 -10.2 100 275 972.0 NA 0.0000 9999 2850 0 0 0
2017/11/01 11:17:00 BASE 2.36 137 3.76 122 -6.1 73 -10.2 98 269 972.0 NA 0.0000 9999 3450 0 0 0
2017/11/01 11:18:00 BASE 2.35 138 3.76 122 -6.1 73 -10.1 96 267 972.0 NA 0.0000 9999 3310 0 0 0
2017/11/01 11:19:00 BASE 2.56 137 3.76 122 -6.1 73 -10.1 97 268 972.0 NA 0.0000 -SN 9999 3180 0 0 0
2017/11/01 11:20:00 BASE 2.38 139 3.55 125 -6.1 74 -10.0 98 272 972.0 NA 0.0000 -SN 9999 3220 0 0 0
2017/11/01 11:21:00 BASE 1.99 144 3.45 125 -6.1 74 -10.0 100 277 972.0 NA 0.0000 -SN 9999 3150 0 0 0
2017/11/01 11:22:00 BASE 1.96 142 3.40 124 -6.0 74 -9.9 102 281 972.0 NA 0.0000 -SN 9999 3080 0 0 0
2017/11/01 11:23:00 BASE 1.63 134 3.09 129 -6.0 74 -9.9 102 282 972.0 NA 0.0000 -SN 9999 3080 0 0 0
2017/11/01 11:24:00 BASE 1.14 142 2.88 140 -6.0 74 -10.0 103 284 971.9 NA 0.0000 -SN 9999 3020 0 0 0
2017/11/01 11:25:00 BASE 0.90 165 2.88 140 -6.0 73 -10.0 104 287 971.8 NA 0.0000 -SN 9999 2990 0 0 0
2017/11/01 11:26:00 BASE 0.80 176 2.88 140 -6.0 73 -10.0 107 295 971.8 NA 0.0000 -SN 9999 2920 0 0 0
2017/11/01 11:27:00 BASE 0.40 185 2.88 140 -6.0 73 -10.1 112 306 971.8 NA 0.0000 -SN 9999 2990 0 0 0
2017/11/01 11:28:00 BASE 0.41 165 2.78 136 -6.0 73 -10.1 116 314 971.8 NA 0.0000 -SN 9999 2950 22020 0 0
2017/11/01 11:29:00 BASE 1.42 124 2.68 119 -6.0 73 -10.0 118 320 971.8 NA 0.0000 8000 3020 0 0 0
2017/11/01 11:30:00 BASE 1.78 89 2.68 119 -5.9 73 -10.0 119 324 971.8 NA 0.0000 -SN 8000 2990 0 0 0
2017/11/01 11:31:00 BASE 1.63 69 2.68 119 -5.9 73 -10.0 124 334 971.8 NA 0.0000 -SN 7000 2820 0 0 0
2017/11/01 11:32:00 BASE 1.52 83 3.09 105 -5.8 72 -10.0 132 353 971.8 NA 0.0000 -SN 9999 2620 0 0 0
2017/11/01 11:33:00 BASE 1.91 104 3.09 105 -5.7 71 -10.1 143 377 971.7 NA 0.0000 -SN 9999 3080 0 0 0
2017/11/01 11:34:00 BASE 2.53 112 3.09 105 -5.6 70 -10.2 152 398 971.7 NA 0.0000 -SN 9999 980 3350 0 0
2017/11/01 11:35:00 BASE 2.50 110 3.09 105 -5.6 69 -10.3 158 412 971.7 NA 0.0000 -SN 9999 850 0 0 0
2017/11/01 11:36:00 BASE 2.46 105 3.09 105 -5.5 68 -10.4 160 416 971.7 NA 0.0000 -SN 9999 720 3410 0 0
2017/11/01 11:37:00 BASE 2.31 96 3.09 105 -5.5 68 -10.4 159 416 971.7 NA 0.0000 -SN 9999 620 3380 0 0
2017/11/01 11:38:00 BASE 2.03 89 3.09 105 -5.4 68 -10.4 159 417 971.7 NA 0.0000 -SN 9999 3350 0 0 0
2017/11/01 11:39:00 BASE 1.67 77 3.09 105 -5.3 68 -10.3 163 424 971.7 NA 0.0000 -SN 9999 3310 0 0 0
2017/11/01 11:40:00 BASE 1.49 54 3.09 105 -5.3 68 -10.2 169 438 971.6 NA 0.0000 -SN 9999 3280 0 0 0
2017/11/01 11:41:00 BASE 1.85 34 3.09 105 -5.3 69 -10.2 177 453 971.6 NA 0.0000 -SN 8000 3280 0 0 0
2017/11/01 11:42:00 BASE 2.24 29 2.88 105 -5.4 69 -10.1 180 459 971.6 NA 0.0000 -SN 7000 520 0 0 0
2017/11/01 11:43:00 BASE 2.15 33 2.88 105 -5.4 70 -10.1 176 452 971.6 NA 0.0000 -SN 9000 590 0 0 0
2017/11/01 11:44:00 BASE 1.58 42 2.73 101 -5.5 70 -10.1 169 438 971.6 NA 0.0000 -SN 6000 3310 0 0 0
2017/11/01 11:45:00 BASE 1.75 62 2.93 85 -5.6 71 -10.0 162 424 971.5 NA 0.0000 -SN 5000 3280 0 0 0
2017/11/01 11:46:00 BASE 2.50 72 3.09 77 -5.6 72 -9.9 157 413 971.5 NA 0.0000 -SN 8000 3250 0 0 0
2017/11/01 11:47:00 BASE 2.57 76 3.09 77 -5.6 72 -9.8 152 403 971.5 NA 0.0000 -SN 4900 3350 0 0 0
2017/11/01 11:48:00 BASE 2.69 89 3.14 92 -5.6 72 -9.8 150 398 971.4 NA 0.0000 -SN 3600 3250 0 0 0
2017/11/01 11:49:00 BASE 2.86 91 3.19 90 -5.6 72 -9.8 150 398 971.4 NA 0.0000 -SN 4600 3310 0 0 0
2017/11/01 11:50:00 BASE 2.97 78 3.55 62 -5.6 73 -9.7 148 394 971.4 NA 0.0000 -SN 4700 3220 0 0 0
2017/11/01 11:51:00 BASE 3.32 63 3.65 60 -5.7 73 -9.7 144 386 971.3 NA 0.0000 -SN 6000 3310 0 0 0
2017/11/01 11:52:00 BASE 3.41 59 3.65 60 -5.7 73 -9.7 142 382 971.2 NA 0.0000 -SN 8000 3250 0 0 0
2017/11/01 11:53:00 BASE 3.29 60 3.65 60 -5.7 73 -9.7 145 389 971.2 NA 0.0000 -SN 6000 3150 0 0 0
2017/11/01 11:54:00 BASE 2.98 61 3.65 60 -5.7 73 -9.7 152 403 971.2 NA 0.0000 -SN 9999 3180 0 0 0
2017/11/01 11:55:00 BASE 2.79 65 3.65 60 -5.7 73 -9.8 155 411 971.2 NA 0.0000 -SN 9999 3150 0 0 0
2017/11/01 11:56:00 BASE 3.31 75 4.06 79 -5.7 73 -9.8 154 410 971.2 NA 0.0000 -SN 9999 3150 0 0 0
2017/11/01 11:57:00 BASE 3.82 78 4.12 79 -5.6 73 -9.7 153 409 971.2 NA 0.0000 -SN 9000 3150 0 0 0
2017/11/01 11:58:00 BASE 3.87 77 4.12 79 -5.6 73 -9.7 153 409 971.2 NA 0.0000 -SN 8000 3120 0 0 0
2017/11/01 11:59:00 BASE 3.83 84 4.17 88 -5.5 72 -9.7 154 411 971.2 NA 0.0000 -SN 7000 3020 0 0 0
2017/11/01 12:00:00 BASE 3.76 91 4.17 88 -5.5 72 -9.7 154 413 971.2 NA 0.0000 -SN 6000 2890 20740 0 0
2017/11/01 12:01:00 BASE 3.68 91 4.17 88 -5.4 72 -9.7 153 411 971.2 NA 0.0000 -SN 7000 2950 0 0 0
2017/11/01 12:02:00 BASE 3.86 88 4.32 86 -5.4 71 -9.8 150 404 971.2 NA 0.0000 -SN 7000 2850 0 0 0
2017/11/01 12:03:00 BASE 4.09 87 4.32 88 -5.4 71 -9.9 148 399 971.2 NA 0.0000 -SN 5000 2950 0 0 0
2017/11/01 12:04:00 BASE 4.29 85 4.68 90 -5.4 71 -9.9 149 401 971.1 NA 0.0000 -SN 9999 2950 0 0 0
2017/11/01 12:05:00 BASE 4.55 83 4.89 84 -5.5 71 -9.9 153 409 971.1 NA 0.0000 -SN 9999 2850 0 0 0
2017/11/01 12:06:00 BASE 4.68 84 4.89 84 -5.5 72 -9.8 156 416 971.1 NA 0.0000 -SN 9999 2850 0 0 0
2017/11/01 12:07:00 BASE 4.73 86 4.94 85 -5.5 72 -9.8 158 421 971.1 NA 0.0000 -SN 9999 2760 0 0 0
2017/11/01 12:08:00 BASE 4.48 90 4.94 85 -5.6 73 -9.7 156 418 971.1 NA 0.0000 -SN 9999 2760 0 0 0
2017/11/01 12:09:00 BASE 4.17 90 4.94 85 -5.5 73 -9.6 155 417 971.1 NA 0.0000 -SN 9999 2760 0 0 0
2017/11/01 12:10:00 BASE 3.88 88 4.94 85 -5.5 73 -9.7 159 426 971.1 NA 0.0000 -SN 9999 2720 0 0 0
2017/11/01 12:11:00 BASE 3.45 84 4.94 85 -5.5 72 -9.7 165 441 971.1 NA 0.0000 -SN 9999 2560 24020 0 0
2017/11/01 12:12:00 BASE 3.32 80 4.94 85 -5.4 72 -9.7 173 460 971.2 NA 0.0000 -SN 9999 2890 0 0 0
2017/11/01 12:13:00 BASE 3.19 85 4.94 85 -5.4 72 -9.7 182 481 971.2 NA 0.0000 -SN 9999 2850 0 0 0
2017/11/01 12:14:00 BASE 3.36 101 4.94 85 -5.4 72 -9.7 190 501 971.1 NA 0.0000 -SN 9999 560 1800 0 0
2017/11/01 12:15:00 BASE 3.59 109 4.94 85 -5.3 71 -9.8 193 511 971.1 NA 0.0000 -SN 9999 430 1710 0 0
2017/11/01 12:16:00 BASE 3.58 105 4.94 85 -5.3 70 -9.8 191 509 971.2 NA 0.0000 -SN 9999 1800 0 0 0
2017/11/01 12:17:00 BASE 3.49 101 4.48 91 -5.2 69 -10.0 185 496 971.2 NA 0.0000 -SN 9000 1250 0 0 0
2017/11/01 12:18:00 BASE 3.58 97 4.32 85 -5.1 68 -10.1 177 479 971.2 NA 0.0000 -SN 5000 1120 0 0 0
2017/11/01 12:19:00 BASE 4.00 96 4.48 99 -5.1 67 -10.2 169 461 971.1 NA 0.0000 -SN 4300 1350 0 0 0
2017/11/01 12:20:00 BASE 4.31 99 4.58 101 -5.0 67 -10.2 163 445 971.1 NA 0.0000 -SN 4400 0 0 0 3180
2017/11/01 12:21:00 BASE 4.31 102 4.58 101 -5.0 67 -10.2 159 437 971.1 NA 0.0000 -SN 2400 360 0 0 0
2017/11/01 12:22:00 BASE 4.18 108 4.58 101 -5.0 67 -10.2 159 438 971.0 NA 0.0000 -SN 2100 360 0 0 0
2017/11/01 12:23:00 BASE 4.43 118 5.30 121 -5.0 67 -10.1 164 448 971.0 NA 0.0000 -SN 1700 0 0 0 2950
2017/11/01 12:24:00 BASE 4.73 123 5.30 121 -4.9 67 -10.1 170 464 971.0 NA 0.0000 -SN 1500 0 0 0 2990
2017/11/01 12:25:00 BASE 4.47 126 5.30 121 -5.0 68 -10.0 176 477 971.0 NA 0.0000 -SN 1200 360 1280 0 0
2017/11/01 12:26:00 BASE 3.83 123 5.30 121 -5.0 68 -9.9 179 484 971.0 NA 0.0000 -SN 1000 330 2130 0 0
2017/11/01 12:27:00 BASE 3.47 108 5.30 121 -5.1 69 -9.8 177 479 971.1 NA 0.0000 -SN 0900 300 0 0 0
2017/11/01 12:28:00 BASE 3.35 97 5.30 121 -5.1 71 -9.7 175 476 971.1 NA 0.0000 -SN 1300 300 1870 0 0
2017/11/01 12:29:01 BASE 3.17 101 5.30 121 -5.2 72 -9.5 175 475 971.1 NA 0.0000 -SN 1900 360 1770 0 0
2017/11/01 12:30:00 BASE 2.92 111 5.30 121 -5.2 73 -9.4 175 476 971.2 NA 0.0000 -SN 2000 1740 0 0 0
2017/11/01 12:31:00 BASE 2.43 123 5.30 121 -5.3 73 -9.4 177 483 971.2 NA 0.0000 -SN 3100 390 0 0 0
2017/11/01 12:32:00 BASE 2.06 133 5.30 121 -5.2 73 -9.3 181 491 971.2 NA 0.0000 -SN 3000 0 0 0 2890
2017/11/01 12:33:00 BASE 1.97 139 5.20 124 -5.2 73 -9.3 183 496 971.2 NA 0.0000 -SN 2100 3020 0 0 0
2017/11/01 12:34:00 BASE 1.88 143 4.68 127 -5.2 73 -9.3 183 496 971.2 NA 0.0000 -SN 2100 2790 0 0 0
2017/11/01 12:35:00 BASE 2.00 142 3.76 103 -5.3 74 -9.2 182 495 971.2 NA 0.0000 -SN 2400 2760 0 0 0
2017/11/01 12:36:00 BASE 1.92 142 3.76 103 -5.3 75 -9.0 183 497 971.2 NA 0.0000 -SN 2400 390 0 0 0
2017/11/01 12:37:00 BASE 1.41 138 3.65 95 -5.3 76 -8.9 187 505 971.2 NA 0.0000 -SN 2200 360 0 0 0
2017/11/01 12:38:00 BASE 1.38 128 3.34 112 -5.3 76 -8.8 192 516 971.2 NA 0.0000 -SN 2100 390 0 0 0
2017/11/01 12:39:00 BASE 1.76 131 3.09 112 -5.3 77 -8.8 197 525 971.2 NA 0.0000 -SN 2000 390 0 0 0
2017/11/01 12:40:00 BASE 2.13 141 2.52 140 -5.3 77 -8.7 201 532 971.2 NA 0.0000 -SN 2100 2460 0 0 0
2017/11/01 12:41:00 BASE 2.35 141 2.73 142 -5.3 78 -8.6 199 527 971.2 NA 0.0000 -SN 2600 2460 0 0 0
2017/11/01 12:42:00 BASE 2.28 145 2.73 142 -5.3 78 -8.5 193 513 971.2 NA 0.0000 -SN 5000 2330 0 0 0
2017/11/01 12:43:00 BASE 2.19 157 2.73 142 -5.4 79 -8.4 187 498 971.2 NA 0.0000 -SN 9999 2170 0 0 0
2017/11/01 12:44:00 BASE 2.27 166 2.88 160 -5.4 80 -8.3 183 489 971.2 NA 0.0000 -SN 9999 2230 0 0 0
2017/11/01 12:45:00 BASE 2.29 170 2.88 160 -5.4 81 -8.2 182 486 971.2 NA 0.0000 -SN 9999 2330 0 0 0
2017/11/01 12:46:00 BASE 1.88 179 2.88 160 -5.4 81 -8.1 184 489 971.2 NA 0.0000 -SN 8000 2230 0 0 0
2017/11/01 12:47:00 BASE 1.75 186 2.88 160 -5.5 82 -8.0 188 496 971.3 NA 0.0000 -SN 6000 2070 0 0 0
2017/11/01 12:48:00 BASE 1.92 181 2.88 160 -5.5 83 -7.9 191 503 971.3 NA 0.0000 -SN 9000 2200 0 0 0
2017/11/01 12:49:00 BASE 2.05 186 2.88 160 -5.5 84 -7.8 193 510 971.3 NA 0.0000 -SN 9999 1310 0 0 0
2017/11/01 12:50:00 BASE 2.07 198 2.88 160 -5.5 84 -7.7 194 513 971.2 NA 0.0000 -SN BR 9999 0 0 0 2720
2017/11/01 12:51:00 BASE 1.93 206 2.88 160 -5.5 85 -7.7 195 517 971.3 NA 0.0000 -SN BR 9999 0 0 0 2790
2017/11/01 12:52:00 BASE 1.86 219 2.88 160 -5.6 86 -7.6 198 525 971.4 NA 0.0000 -SN BR 9999 0 0 0 2920
2017/11/01 12:53:00 BASE 1.84 230 2.88 160 -5.6 86 -7.5 203 537 971.4 NA 0.0000 -SN 9999 0 0 0 2890
2017/11/01 12:54:00 BASE 2.05 231 2.62 228 -5.6 87 -7.5 209 553 971.4 NA 0.0000 -SN 9999 0 0 0 2530
2017/11/01 12:55:00 BASE 2.24 227 2.62 228 -5.6 87 -7.4 216 569 971.4 NA 0.0000 -SN BR 5000 1020 0 0 0
2017/11/01 12:56:00 BASE 2.01 226 2.62 228 -5.6 87 -7.4 220 578 971.5 NA 0.0000 -SN BR 2800 0 0 0 2950
2017/11/01 12:57:00 BASE 1.74 227 2.62 228 -5.6 88 -7.3 219 578 971.5 NA 0.0000 -SN BR 2600 0 0 0 3050
2017/11/01 12:58:00 BASE 1.73 218 2.62 228 -5.6 88 -7.3 217 575 971.5 NA 0.0000 -SN BR 4200 20080 22050 0 0
2017/11/01 12:59:00 BASE 1.45 197 2.62 228 -5.6 88 -7.2 215 572 971.5 NA 0.0000 -SN BR 3700 0 0 0 2790
2017/11/01 13:00:00 BASE 1.52 178 2.62 228 -5.6 89 -7.1 214 571 971.5 NA 0.0000 -SN BR 2100 0 0 0 2820
2017/11/01 13:01:00 BASE 1.90 170 2.62 228 -5.6 89 -7.1 213 569 971.5 NA 0.0000 -SN BR 2300 0 0 0 2850
2017/11/01 13:02:00 BASE 1.90 167 2.62 228 -5.6 90 -7.0 211 566 971.4 NA 0.0000 -SN BR 1800 0 0 0 2760
2017/11/01 13:03:00 BASE 2.18 161 2.88 161 -5.6 90 -7.0 211 566 971.4 NA 0.0000 -SN BR 1700 18600 0 0 0
2017/11/01 13:04:00 BASE 2.55 156 3.14 154 -5.5 90 -6.9 211 566 971.4 NA 0.0000 -SN BR 1600 0 0 0 2530
2017/11/01 13:05:00 BASE 2.58 149 3.14 154 -5.5 90 -6.9 211 568 971.4 NA 0.0000 -SN BR 1600 0 0 0 2300
2017/11/01 13:06:00 BASE 2.38 140 3.14 154 -5.5 90 -6.9 212 570 971.4 NA 0.0000 -SN BR 1700 0 0 0 2230
2017/11/01 13:07:00 BASE 2.35 138 3.14 154 -5.5 90 -6.9 212 572 971.4 NA 0.0000 -SN BR 1300 0 0 0 2100
2017/11/01 13:08:00 BASE 2.46 138 3.14 154 -5.5 90 -6.9 212 574 971.4 NA 0.0000 -SN BR 1500 0 0 0 2030
2017/11/01 13:09:00 BASE 2.66 137 3.14 154 -5.5 90 -6.8 211 572 971.4 NA 0.0000 -SN BR 1200 0 0 0 1940
2017/11/01 13:10:00 BASE 2.66 132 3.14 154 -5.5 91 -6.8 207 566 971.4 NA 0.0000 -SN BR 1000 0 0 0 1710
2017/11/01 13:11:00 BASE 2.59 131 3.14 154 -5.5 91 -6.8 203 556 971.3 NA 0.0000 -SN BR 0900 0 0 0 1710
2017/11/01 13:12:00 BASE 2.76 134 3.14 154 -5.5 91 -6.7 200 551 971.2 NA 0.0000 -SN BR 0750 300 0 0 0
2017/11/01 13:13:00 BASE 2.83 134 3.14 154 -5.6 91 -6.7 199 546 971.2 NA 0.0000 -SN BR 0650 300 0 0 0
2017/11/01 13:14:00 BASE 2.87 132 3.34 127 -5.6 92 -6.7 198 545 971.2 NA 0.0000 +SN BR 0550 230 0 0 0
2017/11/01 13:15:00 BASE 2.98 126 3.34 127 -5.6 92 -6.7 201 550 971.2 NA 0.0000 SN FZFG 0550 0 0 0 1180
2017/11/01 13:16:00 BASE 3.09 126 3.40 126 -5.6 92 -6.6 206 562 971.2 NA 0.0000 SN FZFG 0450 0 0 0 1210
2017/11/01 13:17:00 BASE 3.13 131 3.40 126 -5.6 93 -6.6 213 577 971.2 NA 0.0000 SN FZFG 0450 0 0 0 1250
2017/11/01 13:18:00 BASE 3.11 133 3.40 126 -5.6 93 -6.5 221 595 971.1 NA 0.0000 +SN FZFG 0450 0 0 0 1310
2017/11/01 13:19:00 BASE 3.10 129 3.40 126 -5.6 94 -6.5 228 611 971.2 NA 0.0000 +SN FZFG 0600 0 0 0 1380
2017/11/01 13:20:00 BASE 3.04 123 3.40 126 -5.6 94 -6.4 232 621 971.2 NA 0.0000 +SN FZFG 2700 0 0 0 1480
2017/11/01 13:21:00 BASE 3.01 121 3.40 126 -5.6 94 -6.4 234 625 971.1 NA 0.0000 +SN FZFG 2900 0 0 0 1570
2017/11/01 13:22:00 BASE 3.12 120 3.55 120 -5.6 95 -6.4 233 624 971.0 NA 0.0000 SN FZFG 3100 0 0 0 1480
2017/11/01 13:23:00 BASE 3.46 122 3.86 122 -5.6 95 -6.3 231 619 971.0 NA 0.0000 SN FZFG 3500 230 0 0 0
2017/11/01 13:24:00 BASE 3.84 130 4.01 135 -5.6 95 -6.3 228 616 971.0 NA 0.0000 SN FZFG 3000 230 0 0 0
2017/11/01 13:25:00 BASE 4.05 135 4.37 137 -5.6 95 -6.2 224 610 970.9 NA 0.0000 +SN BR 3100 230 0 0 0
2017/11/01 13:26:00 BASE 4.63 135 5.45 133 -5.6 96 -6.2 222 601 970.9 NA 0.0000 -SN BR 2600 0 0 0 1310
2017/11/01 13:27:00 BASE 4.95 135 5.45 133 -5.6 96 -6.2 218 593 970.9 NA 0.0000 -SN BR 2700 0 0 0 1210
2017/11/01 13:28:00 BASE 4.53 137 5.45 133 -5.6 96 -6.1 217 591 970.9 NA 0.0000 -SN BR 2200 0 0 0 1180
2017/11/01 13:29:00 BASE 4.24 135 5.61 129 -5.6 96 -6.1 221 601 970.9 NA 0.0000 -SN BR 2400 0 0 0 1050
2017/11/01 13:30:00 BASE 4.46 124 5.61 129 -5.6 97 -6.0 228 614 970.9 NA 0.0000 -SN BR 2800 19980 0 0 0
2017/11/01 13:31:00 BASE 4.92 118 5.81 126 -5.6 97 -6.0 236 631 970.8 NA 0.0000 -SN BR 2700 0 0 0 1180
2017/11/01 13:32:00 BASE 5.41 124 5.92 131 -5.5 97 -5.9 244 649 970.7 NA 0.0000 -SN BR 2500 0 0 0 1150
2017/11/01 13:33:00 BASE 5.62 130 5.92 131 -5.5 97 -5.9 249 660 970.7 NA 0.0000 -SN BR 2500 0 0 0 1250
2017/11/01 13:34:00 BASE 5.32 129 5.92 131 -5.5 97 -5.9 249 658 970.8 NA 0.0000 -SN BR 3200 0 0 0 1480
2017/11/01 13:35:00 BASE 5.24 125 5.92 131 -5.5 97 -5.8 247 654 970.8 NA 0.0000 -SN BR 3300 0 0 0 1610
2017/11/01 13:36:00 BASE 5.38 123 5.92 131 -5.5 98 -5.8 244 649 970.7 NA 0.0000 -SN BR 4000 0 0 0 1840
2017/11/01 13:37:00 BASE 5.19 125 5.92 131 -5.4 98 -5.7 242 643 970.6 NA 0.0000 -SN BR 5000 0 0 0 1740
2017/11/01 13:38:00 BASE 5.02 129 5.92 131 -5.4 98 -5.7 240 641 970.6 NA 0.0000 -SN BR 4400 0 0 0 1710
2017/11/01 13:39:00 BASE 4.91 129 5.92 131 -5.4 98 -5.7 240 640 970.6 NA 0.0000 -SN BR 4400 230 0 0 0
2017/11/01 13:40:00 BASE 4.76 127 5.92 131 -5.4 98 -5.7 240 637 970.6 NA 0.0000 -SN BR 3900 200 0 0 0
2017/11/01 13:41:00 BASE 4.89 124 5.92 131 -5.4 98 -5.7 240 637 970.6 NA 0.0000 -SN BR 3600 0 0 0 1870
2017/11/01 13:42:00 BASE 4.78 118 5.81 132 -5.4 98 -5.7 242 640 970.6 NA 0.0000 -SN BR 4300 0 0 0 1900
2017/11/01 13:43:00 BASE 4.13 117 5.71 122 -5.4 98 -5.7 242 639 970.6 NA 0.0000 -SN BR 4900 0 0 0 1670
2017/11/01 13:44:00 BASE 3.68 120 5.71 122 -5.4 98 -5.7 242 638 970.6 NA 0.0000 -SN BR 5000 0 0 0 2200
2017/11/01 13:45:00 BASE 4.21 120 5.71 122 -5.4 98 -5.7 246 645 970.6 NA 0.0000 -SN BR 5000 0 0 0 2200
2017/11/01 13:46:00 BASE 4.87 120 5.50 129 -5.4 98 -5.6 249 651 970.6 NA 0.0000 -SN BR 7000 0 0 0 2300
2017/11/01 13:47:00 BASE 4.91 121 5.50 118 -5.4 99 -5.6 250 654 970.6 NA 0.0000 -SN BR 7000 0 0 0 2330
2017/11/01 13:48:00 BASE 4.96 125 5.50 118 -5.4 99 -5.6 252 657 970.4 NA 0.0000 -SN BR 7000 0 0 0 2230
2017/11/01 13:49:00 BASE 4.98 128 5.50 118 -5.4 99 -5.5 256 666 970.4 NA 0.0000 -SN BR 7000 0 0 0 2400
2017/11/01 13:50:00 BASE 5.30 126 6.02 127 -5.4 99 -5.5 256 667 970.4 NA 0.0000 -SN BR 7000 0 0 0 2170
2017/11/01 13:51:00 BASE 5.83 131 6.33 143 -5.3 99 -5.5 257 669 970.4 NA 0.0000 -SN BR 7000 0 0 0 2260
2017/11/01 13:52:00 BASE 5.99 138 6.33 143 -5.3 99 -5.5 254 663 970.3 NA 0.0000 -SN BR 6000 0 0 0 2330
2017/11/01 13:53:00 BASE 6.16 135 6.58 126 -5.3 99 -5.4 253 664 970.4 NA 0.0000 -SN BR 6000 23720 0 0 0
2017/11/01 13:54:00 BASE 6.16 130 6.58 126 -5.3 99 -5.4 259 678 970.4 NA 0.0000 -SN BR 5000 0 0 0 2230
2017/11/01 13:55:00 BASE 6.56 133 7.72 137 -5.3 99 -5.4 265 690 970.3 NA 0.0000 -SN BR 6000 0 0 0 2130
2017/11/01 13:56:00 BASE 6.81 134 7.72 137 -5.3 99 -5.4 269 699 970.3 NA 0.0000 -SN BR 4900 0 0 0 2000
2017/11/01 13:57:00 BASE 6.39 136 8.13 135 -5.3 99 -5.4 272 707 970.3 NA 0.0000 -SN BR 4000 0 0 0 1900
2017/11/01 13:58:00 BASE 6.91 133 8.13 135 -5.2 99 -5.4 272 704 970.3 NA 0.0000 -SN BR 4500 0 0 0 2300
2017/11/01 13:59:00 BASE 5.38 101 8.13 135 -5.2 99 -5.3 266 698 970.3 NA 0.0000 -SN BR 6000 0 0 0 2260
2017/11/01 14:00:00 BASE 3.85 102 8.49 122 -5.2 99 -5.3 264 686 970.3 NA 0.0000 -SN BR 6000 0 0 0 2300
2017/11/01 14:01:00 BASE 5.26 135 8.49 122 -5.2 99 -5.3 263 682 970.3 NA 0.0000 -SN BR 3500 0 0 0 2100
2017/11/01 14:02:00 BASE 7.06 133 9.21 130 -5.1 99 -5.3 261 675 970.1 NA 0.0000 -SN BR 2700 820 0 0 0
2017/11/01 14:03:00 BASE 7.34 132 9.21 130 -5.1 99 -5.2 255 664 970.2 NA 0.0000 -SN BR 2900 0 0 0 2430
2017/11/01 14:04:01 BASE 6.87 132 9.21 130 -5.1 99 -5.2 255 665 970.2 NA 0.0000 -SN BR 3000 0 0 0 2260
2017/11/01 14:05:00 BASE 6.74 132 9.21 130 -5.1 99 -5.2 260 675 970.2 NA 0.0000 -SN BR 3300 0 0 0 2430
2017/11/01 14:06:00 BASE 5.78 131 9.21 130 -5.1 99 -5.2 266 689 970.2 NA 0.0000 -SN BR 3400 200 0 0 0
2017/11/01 14:07:00 BASE 5.18 127 9.21 130 -5.1 99 -5.2 269 696 970.2 NA 0.0000 -SN BR 2600 0 0 0 2330
2017/11/01 14:08:00 BASE 5.47 119 9.21 130 -5.1 99 -5.2 264 688 970.3 NA 0.0000 -SN BR 3200 0 0 0 2490
2017/11/01 14:09:00 BASE 5.58 117 9.21 130 -5.1 99 -5.2 262 686 970.3 NA 0.0000 -SN BR 3900 300 0 0 0
2017/11/01 14:10:00 BASE 5.18 118 9.21 130 -5.0 99 -5.1 263 688 970.3 NA 0.0000 -SN BR 3900 300 0 0 0
2017/11/01 14:11:00 BASE 4.84 121 9.21 130 -5.0 100 -5.1 262 688 970.3 NA 0.0000 -SN BR 4400 0 0 0 2330
2017/11/01 14:12:00 BASE 4.83 125 7.61 129 -5.0 100 -5.0 261 686 970.2 NA 0.0000 -SN BR 6000 0 0 0 2690
2017/11/01 14:13:00 BASE 5.20 125 7.61 129 -5.0 100 -5.0 261 689 970.2 NA 0.0000 -SN BR 5000 330 0 0 0
2017/11/01 14:14:00 BASE 5.19 125 7.41 135 -5.1 100 -5.1 261 688 970.2 NA 0.0000 -SN BR 7000 0 0 0 2360
2017/11/01 14:15:00 BASE 4.62 127 6.22 117 -5.1 100 -5.1 259 681 970.2 NA 0.0000 -SN BR 5000 0 0 0 2330
2017/11/01 14:16:00 BASE 4.47 128 6.22 117 -5.1 100 -5.2 255 673 970.2 NA 0.0000 -SN BR 4100 0 0 0 2300
2017/11/01 14:17:00 BASE 4.63 128 6.22 117 -5.1 99 -5.2 256 674 970.1 NA 0.0000 -SN BR 8000 0 0 0 2200
2017/11/01 14:18:00 BASE 4.57 131 5.71 125 -5.1 99 -5.2 257 676 970.2 NA 0.0000 -SN BR 7000 0 0 0 2170
2017/11/01 14:19:01 BASE 4.34 133 5.71 125 -5.1 99 -5.2 254 669 970.1 NA 0.0000 -SN BR 7000 360 0 0 0
2017/11/01 14:20:00 BASE 4.03 133 5.71 125 -5.1 99 -5.2 254 669 970.1 NA 0.0000 -SN BR 9000 360 0 0 0
2017/11/01 14:21:00 BASE 3.68 139 5.71 125 -5.0 99 -5.2 255 672 970.1 NA 0.0000 -SN BR 8000 330 18080 0 0
2017/11/01 14:22:00 BASE 3.35 139 5.71 125 -5.0 99 -5.1 256 672 970.1 NA 0.0000 -SN BR 9000 360 21950 0 0
2017/11/01 14:23:00 BASE 4.09 131 6.48 108 -5.0 99 -5.1 264 690 970.1 NA 0.0000 -SN BR 8000 430 0 0 0
2017/11/01 14:24:00 BASE 5.96 126 7.72 123 -5.0 99 -5.1 273 707 970.0 NA 0.0000 -SN BR 8000 330 0 0 0
2017/11/01 14:25:00 BASE 7.49 125 8.69 126 -4.9 99 -5.1 278 716 969.9 NA 0.0000 -SN BR 7000 22800 0 0 0
2017/11/01 14:26:00 BASE 7.78 129 8.69 126 -4.9 99 -5.1 279 718 969.8 NA 0.0000 -SN BR 5000 0 0 0 3120
2017/11/01 14:27:00 BASE 7.17 132 8.69 126 -4.9 99 -5.1 279 718 969.8 NA 0.0000 -SN BR 6000 0 0 0 3020
2017/11/01 14:28:00 BASE 6.96 133 8.69 126 -4.8 98 -5.0 281 724 969.8 NA 0.0000 -SN BR 5000 0 0 0 2760
2017/11/01 14:29:00 BASE 7.63 131 8.69 126 -4.8 98 -5.1 283 726 969.8 NA 0.0000 -SN BR 4100 260 0 0 0
2017/11/01 14:30:00 BASE 8.30 131 8.75 129 -4.8 98 -5.1 285 732 969.7 NA 0.0000 -SN BR 4400 300 0 0 0
2017/11/01 14:31:00 BASE 8.52 132 8.95 136 -4.8 98 -5.1 290 742 969.7 NA 0.0000 -SN BR 5000 260 0 0 0
2017/11/01 14:32:00 BASE 8.25 136 8.95 136 -4.8 97 -5.1 294 753 969.7 NA 0.0000 -SN BR 7000 300 0 0 0
2017/11/01 14:33:00 BASE 8.24 138 10.03 137 -4.8 97 -5.2 298 762 969.7 NA 0.0000 -SN BR 8000 300 0 0 0
2017/11/01 14:34:00 BASE 8.48 136 10.03 137 -4.8 97 -5.2 305 780 969.7 NA 0.0000 -SN BR 8000 300 0 0 0
2017/11/01 14:35:00 BASE 8.14 135 10.03 137 -4.8 97 -5.2 315 802 969.7 NA 0.0000 -SN BR 8000 260 0 0 0
2017/11/01 14:36:00 BASE 8.20 135 10.03 137 -4.7 97 -5.1 322 817 969.7 NA 0.0000 -SN BR 9999 300 0 0 0
2017/11/01 14:37:00 BASE 8.06 136 10.03 137 -4.7 97 -5.1 327 831 969.7 NA 0.0000 -SN BR 9999 330 0 0 0
2017/11/01 14:38:00 BASE 8.06 133 10.03 137 -4.6 97 -5.1 332 843 969.7 NA 0.0000 -SN BR 9000 260 0 0 0
2017/11/01 14:39:00 BASE 8.39 132 10.03 137 -4.6 96 -5.1 338 855 969.7 NA 0.0000 -SN BR 7000 300 0 0 0
2017/11/01 14:40:00 BASE 8.57 132 10.03 137 -4.6 96 -5.1 348 874 969.6 NA 0.0000 -SN BR 9000 0 0 0 2330
2017/11/01 14:41:00 BASE 9.17 131 10.08 131 -4.5 95 -5.2 353 884 969.6 NA 0.0000 -SN BR 9000 300 2100 0 0
2017/11/01 14:42:00 BASE 9.16 133 10.08 131 -4.5 95 -5.1 358 892 969.6 NA 0.0000 -SN BR 8000 300 0 0 0
2017/11/01 14:43:00 BASE 8.66 142 10.08 131 -4.5 95 -5.2 358 891 969.5 NA 0.0000 -SN BR 8000 0 0 0 2460
2017/11/01 14:44:00 BASE 8.65 150 10.08 131 -4.4 95 -5.2 353 883 969.5 NA 0.0000 -SN BR 9000 0 0 0 3150
2017/11/01 14:45:00 BASE 7.97 152 10.08 131 -4.4 94 -5.2 348 873 969.6 NA 0.0000 -SN BR 9999 0 0 0 2990
2017/11/01 14:46:00 BASE 7.24 149 10.08 131 -4.4 94 -5.2 336 850 969.6 NA 0.0000 -SN BR 9999 0 0 0 2950
2017/11/01 14:47:00 BASE 7.05 147 10.08 131 -4.4 94 -5.2 322 823 969.6 NA 0.0000 -SN BR 9000 330 0 0 0
2017/11/01 14:48:00 BASE 6.76 147 10.08 131 -4.4 94 -5.2 313 806 969.6 NA 0.0000 -SN BR 9000 300 0 0 0
2017/11/01 14:49:00 BASE 7.03 145 10.08 131 -4.4 95 -5.1 311 801 969.5 NA 0.0000 -SN BR 9999 300 0 0 0
2017/11/01 14:50:00 BASE 7.10 144 10.08 131 -4.4 95 -5.1 311 801 969.4 NA 0.0000 -SN BR 9000 330 0 0 0
2017/11/01 14:51:00 BASE 7.61 141 10.03 148 -4.3 95 -5.0 314 805 969.2 NA 0.0000 -SN BR 8000 330 0 0 0
2017/11/01 14:52:00 BASE 9.31 154 13.53 146 -4.3 95 -5.0 315 810 969.1 NA 0.0000 -SN BR 7000 360 0 0 0
2017/11/01 14:53:00 BASE 8.18 168 13.53 146 -4.2 94 -4.9 318 818 969.5 NA 0.0000 -SN BR 9000 2130 0 0 0
2017/11/01 14:54:00 BASE 6.73 158 13.53 146 -4.1 94 -4.9 318 820 969.6 NA 0.0000 -SN BR 9999 2300 0 0 0
2017/11/01 14:55:00 BASE 7.24 151 13.53 146 -4.0 93 -4.9 314 813 969.5 NA 0.0000 -SN BR 9000 0 0 0 2890
2017/11/01 14:56:00 BASE 7.29 149 13.53 146 -3.9 92 -5.0 313 812 969.5 NA 0.0000 -SN BR 9000 330 0 0 0
2017/11/01 14:57:00 BASE 6.80 147 13.53 146 -3.9 92 -5.0 316 820 969.7 NA 0.0000 -SN BR 8000 360 0 0 0
2017/11/01 14:58:00 BASE 5.67 157 13.53 146 -3.9 91 -5.2 314 814 969.8 NA 0.0000 -SN BR 9000 330 23030 0 0
2017/11/01 14:59:00 BASE 5.15 166 13.53 146 -4.0 91 -5.2 307 799 969.7 NA 0.0000 -SN BR 9999 690 0 0 0
2017/11/01 15:00:00 BASE 5.43 165 13.53 146 -4.1 91 -5.3 299 782 969.5 NA 0.0000 -SN BR 9999 0 0 0 3250
2017/11/01 15:01:00 BASE 7.29 149 13.53 146 -4.1 92 -5.3 292 768 969.3 NA 0.0000 -SN BR 9999 390 0 0 0
2017/11/01 15:02:00 BASE 7.29 135 10.80 117 -4.2 92 -5.3 284 750 969.4 NA 0.0000 -SN BR 9999 390 0 0 0
2017/11/01 15:03:00 BASE 4.98 144 10.80 117 -4.2 92 -5.2 279 738 969.5 NA 0.0000 -SN 9999 2000 0 0 0
2017/11/01 15:04:00 BASE 4.83 140 10.80 117 -4.2 92 -5.2 277 733 969.5 NA 0.0000 -SN 9999 660 0 0 0
2017/11/01 15:05:00 BASE 5.18 124 10.80 117 -4.1 92 -5.3 273 723 969.5 NA 0.0000 -SN 9999 2230 0 0 0
2017/11/01 15:06:00 BASE 4.39 119 10.80 117 -4.1 91 -5.4 272 720 969.5 NA 0.0000 -SN 9999 2230 0 0 0
2017/11/01 15:07:00 BASE 5.59 118 10.80 117 -4.1 90 -5.5 272 721 969.4 NA 0.0000 -SN 9999 390 0 0 0
2017/11/01 15:08:00 BASE 7.70 124 10.80 117 -4.1 89 -5.6 270 716 969.3 NA 0.0000 -SN 9000 2070 0 0 0
2017/11/01 15:09:00 BASE 8.78 131 10.91 127 -4.0 88 -5.7 272 721 969.1 NA 0.0000 -SN 9999 2070 0 0 0
2017/11/01 15:10:00 BASE 10.28 126 12.04 122 -4.0 88 -5.7 276 728 969.1 NA 0.0000 -SN 9999 2100 0 0 0
2017/11/01 15:11:00 BASE 10.35 124 12.04 122 -4.0 87 -5.8 278 732 969.2 NA 0.0000 -SN 9999 2130 0 0 0
2017/11/01 15:12:00 BASE 9.05 128 12.04 122 -4.0 87 -5.8 278 732 969.3 NA 0.0000 -SN 9000 2130 0 0 0
2017/11/01 15:13:00 BASE 8.39 134 12.04 122 -4.0 87 -5.8 277 729 969.3 NA 0.0000 -SN 9000 2560 0 0 0
2017/11/01 15:14:00 BASE 8.40 139 12.04 122 -3.9 87 -5.8 275 726 969.3 NA 0.0000 -SN BR 9000 2430 0 0 0
2017/11/01 15:15:00 BASE 8.10 140 12.04 122 -3.9 87 -5.8 271 718 969.3 NA 0.0000 -SN BR 9999 2460 0 0 0
2017/11/01 15:16:00 BASE 7.02 140 12.04 122 -3.9 87 -5.8 269 713 969.5 NA 0.0000 -SN BR 9999 2230 0 0 0
2017/11/01 15:17:00 BASE 6.11 139 12.04 122 -4.0 87 -5.7 268 711 969.5 NA 0.0000 -SN 9999 2430 0 0 0
2017/11/01 15:18:00 BASE 5.58 140 12.04 122 -4.0 88 -5.7 268 709 969.5 NA 0.0000 -SN 9999 2230 0 0 0
2017/11/01 15:19:00 BASE 5.63 139 12.04 122 -4.0 89 -5.6 267 705 969.3 NA 0.0000 -SN 9999 2660 0 0 0
2017/11/01 15:20:00 BASE 6.26 136 11.01 130 -4.0 89 -5.5 270 711 969.3 NA 0.0000 -SN 9999 2430 0 0 0
2017/11/01 15:21:00 BASE 7.03 129 9.88 136 -4.1 90 -5.5 269 707 969.3 NA 0.0000 -SN 9999 2300 0 0 0
2017/11/01 15:22:00 BASE 7.97 127 9.88 136 -4.1 90 -5.4 266 703 969.2 NA 0.0000 -SN 9999 0 0 0 3220
2017/11/01 15:23:00 BASE 8.63 120 9.88 136 -4.1 91 -5.3 270 709 969.3 NA 0.0000 -SN 9999 1610 22610 0 0
2017/11/01 15:24:00 BASE 8.57 107 9.41 107 -4.1 91 -5.3 270 708 969.4 NA 0.0000 -SN 9999 390 0 0 0
2017/11/01 15:25:00 BASE 8.22 107 9.41 107 -4.0 91 -5.3 265 698 969.5 NA 0.0000 -SN 9000 0 0 0 3580
2017/11/01 15:26:00 BASE 7.52 114 9.41 107 -4.0 90 -5.3 266 702 969.6 NA 0.0000 -SN 9999 390 0 0 0
2017/11/01 15:27:00 BASE 6.25 135 9.41 107 -3.9 90 -5.4 270 713 969.5 NA 0.0000 -SN 9999 330 0 0 0
2017/11/01 15:28:00 BASE 5.12 153 9.41 107 -3.9 89 -5.4 276 725 969.3 NA 0.0000 -SN 9999 300 0 0 0
2017/11/01 15:29:00 BASE 4.04 149 9.41 107 -3.9 89 -5.4 280 732 969.3 NA 0.0000 -SN 9999 300 0 0 0
2017/11/01 15:30:00 BASE 4.37 136 9.41 107 -3.9 89 -5.4 281 734 969.3 NA 0.0000 -SN BR 8000 300 0 0 0
2017/11/01 15:31:00 BASE 5.81 131 9.41 107 -3.9 89 -5.4 278 731 969.3 NA 0.0000 -SN BR 9000 22840 0 0 0
2017/11/01 15:32:00 BASE 6.98 128 9.98 121 -3.8 89 -5.4 279 734 969.2 NA 0.0000 -SN BR 8000 0 0 0 2760
2017/11/01 15:33:00 BASE 6.90 134 9.98 121 -3.8 89 -5.3 277 731 969.3 NA 0.0000 -SN BR 8000 260 0 0 0
2017/11/01 15:34:00 BASE 4.18 147 9.98 121 -3.8 89 -5.3 276 728 969.3 NA 0.0000 -SN BR 8000 300 0 0 0
2017/11/01 15:35:00 BASE 3.01 137 9.98 121 -3.7 89 -5.3 278 734 969.3 NA 0.0000 -SN BR 9000 260 0 0 0
2017/11/01 15:36:00 BASE 4.77 117 9.98 121 -3.7 89 -5.3 283 742 969.2 NA 0.0000 -SN BR 8000 300 0 0 0
2017/11/01 15:37:00 BASE 6.61 115 9.98 121 -3.7 89 -5.2 282 736 969.2 NA 0.0000 -SN BR 8000 300 0 0 0
2017/11/01 15:38:00 BASE 7.19 122 9.98 121 -3.8 90 -5.2 283 739 969.2 NA 0.0000 -SN BR 8000 0 0 0 3310
2017/11/01 15:39:00 BASE 6.38 136 9.98 121 -3.8 90 -5.2 289 754 969.2 NA 0.0000 -SN BR 8000 0 0 0 3120
2017/11/01 15:40:00 BASE 5.96 155 9.98 121 -3.8 90 -5.2 300 779 969.2 NA 0.0000 -SN BR 8000 260 0 0 0
2017/11/01 15:41:00 BASE 5.76 161 9.98 121 -3.8 90 -5.2 313 806 969.1 NA 0.0000 -SN BR 9000 260 0 0 0
2017/11/01 15:42:00 BASE 5.14 161 8.75 123 -3.7 91 -5.0 321 821 969.1 NA 0.0000 -SN BR 9000 1310 0 0 0
2017/11/01 15:43:00 BASE 4.62 164 8.75 123 -3.6 91 -4.9 320 816 969.2 NA 0.0000 -SN BR 9000 0 0 0 3280
2017/11/01 15:44:00 BASE 3.76 153 8.75 123 -3.5 91 -4.8 313 801 969.2 NA 0.0000 -SN BR 9999 0 0 0 3740
2017/11/01 15:45:00 BASE 3.88 116 8.75 123 -3.4 91 -4.7 311 798 969.2 NA 0.0000 -SN BR 9999 0 0 0 3740
2017/11/01 15:46:00 BASE 5.42 113 8.75 123 -3.2 90 -4.6 315 808 969.0 NA 0.0000 -SN BR 9000 300 0 0 0
2017/11/01 15:47:00 BASE 7.12 139 8.75 154 -3.2 89 -4.7 322 826 969.0 NA 0.0000 -SN BR 9000 260 0 0 0
2017/11/01 15:48:00 BASE 8.18 148 9.05 155 -3.3 89 -4.9 334 853 969.0 NA 0.0000 -SN BR 6000 260 0 0 0
2017/11/01 15:49:00 BASE 7.26 122 9.05 155 -3.3 89 -4.8 340 868 969.0 NA 0.0000 -SN BR 4900 260 0 0 0
2017/11/01 15:50:00 BASE 5.30 78 9.05 155 -3.2 89 -4.8 343 874 969.0 NA 0.0000 -SN BR 9000 330 0 0 0
2017/11/01 15:51:00 BASE 4.22 62 9.05 155 -3.1 88 -4.7 339 863 969.1 NA 0.0000 -SN BR 9999 2660 0 0 0
2017/11/01 15:52:00 BASE 3.01 57 9.05 155 -2.9 87 -4.7 332 845 969.1 NA 0.0000 -SN BR 9999 360 24380 0 0
2017/11/01 15:53:00 BASE 2.29 80 9.05 155 -2.6 86 -4.7 320 820 969.1 NA 0.0000 -SN BR 9999 0 0 0 3250
2017/11/01 15:54:00 BASE 4.17 122 9.05 155 -2.5 84 -4.8 304 786 969.1 NA 0.0000 -SN 9000 0 0 0 3250
2017/11/01 15:55:00 BASE 6.44 136 9.05 155 -2.5 82 -5.1 296 767 968.9 NA 0.0000 -SN 9000 0 0 0 3450
2017/11/01 15:56:00 BASE 7.72 135 9.05 155 -2.6 82 -5.3 293 758 968.8 NA 0.0000 -SN 9000 300 0 0 0
2017/11/01 15:57:00 BASE 8.16 137 9.05 155 -2.9 82 -5.4 297 764 968.8 NA 0.0000 -SN 9000 300 0 0 0
2017/11/01 15:58:00 BASE 7.23 140 9.00 128 -3.1 84 -5.5 306 782 968.9 NA 0.0000 -SN 9000 360 0 0 0
2017/11/01 15:59:00 BASE 6.40 142 9.00 128 -3.3 85 -5.4 308 786 968.9 NA 0.0000 -SN BR 9000 2790 0 0 0
2017/11/01 16:00:00 BASE 6.55 138 9.00 128 -3.5 87 -5.3 317 807 968.9 NA 0.0000 -SN BR 9000 0 0 0 3580
2017/11/01 16:01:00 BASE 4.77 120 9.00 128 -3.6 88 -5.2 330 832 969.1 NA 0.0000 -SN BR 9000 330 2560 0 0
2017/11/01 16:02:00 BASE 3.07 122 9.00 128 -3.6 90 -5.1 337 848 969.1 NA 0.0000 -SN BR 9999 0 0 0 3410
2017/11/01 16:03:00 BASE 3.02 138 9.00 128 -3.7 91 -5.0 352 879 969.1 NA 0.0000 -SN BR 9999 390 0 0 0
2017/11/01 16:04:00 BASE 3.59 140 9.00 128 -3.7 91 -4.9 366 909 969.0 NA 0.0000 -SN BR 9999 0 0 0 3970
2017/11/01 16:05:00 BASE 5.42 137 9.00 128 -3.7 92 -4.8 370 919 969.0 NA 0.0000 -SN BR 6000 0 0 0 3540
2017/11/01 16:06:00 BASE 5.79 136 8.59 139 -3.6 92 -4.7 369 916 969.0 NA 0.0000 -SN BR 2400 0 0 0 3580
2017/11/01 16:07:00 BASE 5.04 135 7.87 146 -3.6 92 -4.7 367 913 969.0 NA 0.0000 -SN BR 2500 0 0 0 3380
2017/11/01 16:08:00 BASE 4.88 136 7.87 146 -3.6 93 -4.7 362 906 969.0 NA 0.0000 -SN BR 9000 0 0 0 3540
2017/11/01 16:09:00 BASE 5.42 134 7.41 135 -3.7 93 -4.7 359 902 969.0 NA 0.0000 -SN BR 9999 2200 19060 0 0
2017/11/01 16:10:00 BASE 5.87 123 6.94 124 -3.7 93 -4.7 363 911 969.0 NA 0.0000 -SN BR 9999 2590 0 0 0
2017/11/01 16:11:00 BASE 4.79 116 6.94 124 -3.7 93 -4.7 359 905 969.1 NA 0.0000 -SN BR 9000 360 0 0 0
2017/11/01 16:12:00 BASE 3.40 112 6.94 124 -3.7 93 -4.6 347 882 969.1 NA 0.0000 -SN BR 9000 330 0 0 0
2017/11/01 16:13:00 BASE 3.37 112 6.94 124 -3.7 94 -4.6 342 872 969.1 NA 0.0000 -SN BR 9000 2760 0 0 0
2017/11/01 16:14:00 BASE 3.87 114 6.94 124 -3.7 94 -4.6 335 859 969.1 NA 0.0000 -SN BR 9000 360 0 0 0
2017/11/01 16:15:00 BASE 4.29 128 6.94 124 -3.7 94 -4.5 330 849 969.1 NA 0.0000 -SN BR 9000 300 0 0 0
2017/11/01 16:16:00 BASE 4.28 144 6.94 124 -3.7 94 -4.5 327 842 969.0 NA 0.0000 -SN BR 9000 300 0 0 0
2017/11/01 16:17:00 BASE 5.15 144 7.25 144 -3.6 94 -4.4 321 830 968.9 NA 0.0000 -SN BR 8000 0 0 0 3710
2017/11/01 16:18:00 BASE 6.20 132 7.61 110 -3.6 94 -4.4 315 817 968.9 NA 0.0000 -SN BR 9999 360 0 0 0
2017/11/01 16:19:00 BASE 5.62 128 7.61 110 -3.5 95 -4.3 311 807 968.9 NA 0.0000 -SN BR 9999 2460 0 0 0
2017/11/01 16:20:00 BASE 5.03 131 7.61 110 -3.4 95 -4.2 307 799 969.0 NA 0.0000 -SN BR 9999 390 0 0 0
2017/11/01 16:21:00 BASE 4.57 126 7.61 110 -3.4 94 -4.2 302 787 969.1 NA 0.0000 -SN BR 9999 0 0 0 3540
2017/11/01 16:22:00 BASE 4.82 128 7.61 110 -3.4 94 -4.2 300 784 969.0 NA 0.0000 -SN BR 9999 2200 0 0 0
2017/11/01 16:23:00 BASE 5.19 134 7.61 110 -3.4 94 -4.3 296 775 969.0 NA 0.0000 -SN BR 9000 2100 0 0 0
2017/11/01 16:24:00 BASE 4.60 133 7.61 110 -3.5 93 -4.4 297 774 969.0 NA 0.0000 -SN 9999 2170 0 0 0
2017/11/01 16:25:00 BASE 4.63 122 7.61 110 -3.5 93 -4.4 304 786 969.0 NA 0.0000 -SN 9999 2230 0 0 0
2017/11/01 16:26:00 BASE 4.92 122 7.61 110 -3.5 94 -4.4 301 780 969.0 NA 0.0000 -SN 9999 2300 0 0 0
2017/11/01 16:27:00 BASE 5.06 137 7.61 110 -3.5 94 -4.3 285 747 968.9 NA 0.0000 -SN 9999 0 0 0 430
2017/11/01 16:28:00 BASE 5.45 149 6.17 148 -3.4 93 -4.4 267 710 968.9 NA 0.0000 -SN 9999 360 0 0 0
2017/11/01 16:29:00 BASE 4.52 144 6.17 148 -3.4 93 -4.4 257 689 968.9 NA 0.0000 -SN 7000 390 23460 0 0
2017/11/01 16:30:00 BASE 3.49 122 6.17 148 -3.4 93 -4.4 252 676 969.0 NA 0.0000 -SN BR 3000 390 0 0 0
2017/11/01 16:31:00 BASE 4.13 107 6.22 120 -3.5 93 -4.4 250 671 968.9 NA 0.0000 -SN BR 2400 390 0 0 0
2017/11/01 16:32:00 BASE 5.31 113 6.38 121 -3.5 93 -4.5 246 662 968.9 NA 0.0000 -SN BR 4000 2170 23330 0 0
2017/11/01 16:33:00 BASE 5.65 123 6.38 121 -3.5 93 -4.5 246 663 968.9 NA 0.0000 -SN BR 2700 430 0 0 0
2017/11/01 16:34:00 BASE 5.22 124 6.38 121 -3.5 93 -4.4 246 663 968.9 NA 0.0000 -SN BR 3400 2000 0 0 0
2017/11/01 16:35:00 BASE 4.58 125 6.38 121 -3.4 92 -4.4 246 663 969.0 NA 0.0000 -SN BR 8000 1800 2260 0 0
2017/11/01 16:36:00 BASE 3.39 115 6.38 121 -3.3 92 -4.5 253 676 969.0 NA 0.0000 -SN BR 5000 2400 0 0 0
2017/11/01 16:37:00 BASE 3.39 100 6.38 121 -3.3 91 -4.5 260 690 969.0 NA 0.0000 -SN BR 3300 2430 0 0 0
2017/11/01 16:38:00 BASE 4.24 112 6.38 121 -3.2 90 -4.6 262 696 969.0 NA 0.0000 -SN BR 3400 2530 3670 0 0
2017/11/01 16:39:00 BASE 4.18 128 6.38 121 -3.2 90 -4.6 259 690 968.8 NA 0.0000 -SN BR 5000 3900 0 0 0
2017/11/01 16:40:00 BASE 5.32 129 9.26 130 -3.2 90 -4.7 258 689 968.7 NA 0.0000 -SN BR 4300 4040 0 0 0
2017/11/01 16:41:00 BASE 3.70 148 9.26 130 -3.1 89 -4.6 261 697 968.9 NA 0.0000 -SN BR 9999 390 3220 0 0
2017/11/01 16:42:00 BASE 2.24 142 9.26 130 -3.0 89 -4.6 268 712 968.9 NA 0.0000 -SN BR 9999 2990 0 0 0
2017/11/01 16:43:00 BASE 4.37 113 9.26 130 -2.8 87 -4.6 277 729 968.9 NA 0.0000 -SN BR 9999 1800 3410 0 0
2017/11/01 16:44:00 BASE 4.43 113 9.26 130 -2.7 86 -4.7 280 736 968.9 NA 0.0000 -SN BR 9999 980 3640 0 0
2017/11/01 16:45:00 BASE 3.44 130 9.26 130 -2.6 85 -4.8 283 740 968.9 NA 0.0000 -SN BR 9999 3740 0 0 0
2017/11/01 16:46:00 BASE 3.77 149 9.26 130 -2.6 84 -4.9 286 747 968.9 NA 0.0000 -SN 9000 1840 3940 0 0
2017/11/01 16:47:00 BASE 4.87 137 9.26 130 -2.8 84 -5.1 287 748 968.9 NA 0.0000 -SN 9999 3970 0 0 0
2017/11/01 16:48:00 BASE 5.66 131 9.26 130 -2.9 85 -5.1 282 740 968.7 NA 0.0000 -SN BR 9999 3710 0 0 0
2017/11/01 16:49:00 BASE 4.26 130 9.26 130 -3.0 86 -5.0 280 732 968.8 NA 0.0000 -SN BR 9999 3610 0 0 0
2017/11/01 16:50:00 BASE 2.58 144 6.74 142 -3.0 86 -5.0 280 733 968.9 NA 0.0000 -SN 9999 1900 0 0 0
2017/11/01 16:51:00 BASE 3.79 162 6.74 142 -3.0 87 -4.9 280 733 968.9 NA 0.0000 -SN 9999 1770 0 0 0
2017/11/01 16:52:00 BASE 5.07 152 6.74 142 -3.0 87 -4.9 277 727 968.9 NA 0.0000 -SN 5000 1800 3710 0 0
2017/11/01 16:53:00 BASE 5.02 148 6.74 142 -3.0 87 -4.9 270 711 968.9 NA 0.0000 -SN 9000 3670 0 0 0
2017/11/01 16:54:00 BASE 4.44 160 6.74 142 -3.1 87 -5.0 260 688 968.8 NA 0.0000 -SN 9999 3480 0 0 0
2017/11/01 16:55:00 BASE 4.88 163 6.94 164 -3.2 87 -5.0 255 677 968.7 NA 0.0000 -SN BR 9999 2460 0 0 0
2017/11/01 16:56:00 BASE 4.56 158 6.94 164 -3.1 88 -4.9 252 671 968.7 NA 0.0000 -SN 9999 2490 0 0 0
2017/11/01 16:57:00 BASE 3.63 170 6.94 164 -3.0 87 -4.8 248 660 968.7 NA 0.0000 -SN 9999 2430 0 0 0
2017/11/01 16:58:00 BASE 4.48 165 6.94 164 -2.9 87 -4.8 244 652 968.7 NA 0.0000 -SN 9999 2430 2950 0 0
2017/11/01 16:59:00 BASE 5.15 146 6.94 164 -2.8 86 -4.9 240 641 968.7 NA 0.0000 -SN 9999 2660 0 0 0
2017/11/01 17:00:00 BASE 4.89 148 6.94 164 -2.6 84 -4.9 235 631 968.8 NA 0.0000 -SN 9999 2620 3280 0 0
2017/11/01 17:01:00 BASE 4.93 163 6.94 164 -2.5 83 -5.0 229 617 968.8 NA 0.0000 -SN 6000 2490 3020 0 0
2017/11/01 17:02:00 BASE 4.67 157 6.94 164 -2.5 82 -5.2 224 605 968.9 NA 0.0000 -SN 3400 2620 3180 0 0
2017/11/01 17:03:00 BASE 4.21 141 6.94 164 -2.6 82 -5.2 220 595 968.9 NA 0.0000 -SN 9999 2820 0 0 0
2017/11/01 17:04:00 BASE 4.91 136 6.94 164 -2.7 82 -5.3 217 588 968.9 NA 0.0000 -SN 9999 3050 0 0 0
2017/11/01 17:05:00 BASE 5.08 137 6.74 166 -2.9 83 -5.3 219 592 968.9 NA 0.0000 -SN 9999 2620 0 0 0
2017/11/01 17:06:00 BASE 5.38 137 7.46 144 -3.1 84 -5.4 221 596 968.8 NA 0.0000 -SN 9999 2660 3250 0 0
2017/11/01 17:07:00 BASE 5.98 145 7.46 144 -3.2 85 -5.3 220 594 968.7 NA 0.0000 -SN BR 9999 2920 23070 0 0
2017/11/01 17:08:00 BASE 5.14 157 7.46 144 -3.2 86 -5.2 221 595 968.7 NA 0.0000 -SN BR 8000 2400 0 0 0
2017/11/01 17:09:00 BASE 4.33 159 7.46 144 -3.1 87 -5.1 222 597 968.8 NA 0.0000 -SN BR 8000 2560 0 0 0
2017/11/01 17:10:00 BASE 3.23 161 7.46 144 -3.0 86 -5.0 224 601 968.9 NA 0.0000 -SN BR 9999 2620 0 0 0
2017/11/01 17:11:00 BASE 2.44 97 7.46 144 -2.9 86 -5.0 223 598 969.0 NA 0.0000 -SN BR 9999 3050 0 0 0
2017/11/01 17:12:00 BASE 2.62 28 7.46 144 -2.8 85 -5.0 218 587 969.0 NA 0.0000 -SN 9999 3220 0 0 0
2017/11/01 17:13:00 BASE 1.51 41 7.46 144 -2.8 84 -5.1 214 578 968.9 NA 0.0000 -SN 9999 2850 0 0 0
2017/11/01 17:14:00 BASE 0.68 105 7.46 144 -2.8 83 -5.2 213 575 968.9 NA 0.0000 -SN 9999 2820 0 0 0
2017/11/01 17:15:00 BASE 1.28 133 7.46 144 -2.8 83 -5.3 213 577 968.9 NA 0.0000 -SN 9999 2950 0 0 0
2017/11/01 17:16:00 BASE 1.35 121 6.58 141 -2.9 83 -5.4 213 576 968.9 NA 0.0000 -SN 9999 3020 0 0 0
2017/11/01 17:17:00 BASE 0.64 100 5.40 164 -2.9 83 -5.4 211 572 968.9 NA 0.0000 -SN 9999 2590 0 0 0
2017/11/01 17:18:00 BASE 1.02 90 4.73 169 -2.9 83 -5.4 212 574 968.9 NA 0.2540 -SN 9999 2590 3220 0 0
2017/11/01 17:19:00 BASE 2.66 104 4.73 169 -3.0 84 -5.4 213 575 968.9 NA 0.0000 -SN 9999 2560 3120 0 0
2017/11/01 17:20:00 BASE 3.66 113 4.48 116 -3.0 84 -5.3 212 571 968.9 NA 0.0000 9999 2760 0 0 0
2017/11/01 17:21:00 BASE 3.92 118 4.48 116 -3.0 84 -5.3 210 567 968.9 NA 0.0000 9999 2820 0 0 0
2017/11/01 17:22:00 BASE 3.86 124 4.48 116 -3.0 84 -5.3 206 558 968.8 NA 0.0000 9999 3050 0 0 0
2017/11/01 17:23:00 BASE 4.38 129 5.45 125 -3.0 84 -5.3 201 547 968.7 NA 0.0000 9999 3150 0 0 0
2017/11/01 17:24:00 BASE 5.28 132 5.92 133 -3.0 84 -5.3 197 537 968.7 NA 0.0000 -SN 9999 2760 19820 0 0
2017/11/01 17:25:00 BASE 5.61 133 6.17 134 -3.1 84 -5.3 194 531 968.7 NA 0.0000 -SN 9999 2620 0 0 0
2017/11/01 17:26:00 BASE 5.95 132 6.58 131 -3.1 84 -5.4 193 529 968.7 NA 0.0000 -SN 9999 2850 0 0 0
2017/11/01 17:27:00 BASE 6.47 133 7.31 138 -3.1 85 -5.3 192 527 968.6 NA 0.0000 -SN 9999 2790 0 0 0
2017/11/01 17:28:00 BASE 6.43 134 7.31 138 -3.2 85 -5.3 191 524 968.6 NA 0.0000 -SN 9999 2850 0 0 0
2017/11/01 17:29:00 BASE 6.25 130 7.31 138 -3.2 85 -5.3 189 520 968.6 NA 0.0000 -SN 9000 2590 0 0 0
2017/11/01 17:30:00 BASE 6.01 103 7.31 138 -3.1 85 -5.3 188 517 968.7 NA 0.0000 -SN 9999 2590 3250 0 0
2017/11/01 17:31:00 BASE 5.09 51 7.31 138 -3.1 85 -5.2 187 515 968.8 NA 0.0000 -SN 9999 2760 3220 0 0
2017/11/01 17:32:00 BASE 3.64 39 7.31 138 -3.0 85 -5.2 187 515 968.8 NA 0.0000 -SN 9999 3150 0 0 0
2017/11/01 17:33:00 BASE 2.02 74 7.31 138 -3.0 85 -5.2 188 517 968.7 NA 0.0000 -SN 9999 3080 0 0 0
2017/11/01 17:34:00 BASE 1.92 72 7.31 138 -2.9 84 -5.2 190 521 968.8 NA 0.0000 -SN 9999 2850 0 0 0
2017/11/01 17:35:00 BASE 3.45 38 7.31 138 -2.9 84 -5.2 192 525 968.9 NA 0.0000 -SN 9999 2790 0 0 0
2017/11/01 17:36:00 BASE 4.73 22 7.31 138 -2.8 83 -5.3 193 530 968.9 NA 0.0000 -SN 9999 2690 0 0 0
2017/11/01 17:37:00 BASE 4.80 20 7.00 134 -2.8 83 -5.3 195 534 968.9 NA 0.0000 -SN 9999 2760 0 0 0
2017/11/01 17:38:00 BASE 3.68 32 7.00 134 -2.8 83 -5.3 196 536 968.8 NA 0.0000 -SN 9999 3150 0 0 0
2017/11/01 17:39:00 BASE 1.68 6 6.58 113 -2.7 83 -5.2 198 538 968.7 NA 0.0000 -SN 9999 3050 0 0 0
2017/11/01 17:40:00 BASE 0.76 207 5.45 27 -2.6 82 -5.2 200 543 968.7 NA 0.0000 9999 2990 22110 0 0
2017/11/01 17:41:00 BASE 0.90 114 5.40 13 -2.5 81 -5.3 202 548 968.8 NA 0.0000 9999 3050 0 0 0
2017/11/01 17:42:00 BASE 0.95 101 5.40 13 -2.4 80 -5.4 203 549 968.8 NA 0.0000 -SN 9999 2760 21230 21820 0
2017/11/01 17:43:00 BASE 1.96 120 5.40 13 -2.4 78 -5.6 202 545 968.7 NA 0.0000 9999 3080 0 0 0
2017/11/01 17:44:00 BASE 3.43 147 5.40 13 -2.4 78 -5.8 199 540 968.7 NA 0.0000 9999 3050 0 0 0
2017/11/01 17:45:00 BASE 4.30 157 5.40 13 -2.5 77 -5.9 195 530 968.7 NA 0.0000 9999 3050 0 0 0
2017/11/01 17:46:00 BASE 4.18 149 4.99 152 -2.6 78 -6.0 189 519 968.7 NA 0.0000 9999 2990 0 0 0
2017/11/01 17:47:00 BASE 3.05 163 4.99 152 -2.6 78 -5.9 186 511 968.7 NA 0.0000 9999 2820 0 0 0
2017/11/01 17:48:00 BASE 2.40 162 4.99 152 -2.7 78 -5.9 183 505 968.7 NA 0.0000 9999 2690 0 0 0
2017/11/01 17:49:00 BASE 2.33 138 4.99 152 -2.7 79 -5.9 181 500 968.8 NA 0.0000 9999 2820 0 0 0
2017/11/01 17:50:00 BASE 1.65 144 4.99 152 -2.7 79 -5.9 179 496 968.9 NA 0.0000 9999 3080 0 0 0
2017/11/01 17:51:00 BASE 0.60 154 4.99 152 -2.8 80 -5.8 177 490 968.8 NA 0.0000 9999 2920 0 0 0
2017/11/01 17:52:00 BASE 0.00 137 4.99 152 -2.8 80 -5.8 174 484 968.7 NA 0.0000 9999 2950 0 0 0
2017/11/01 17:53:00 BASE 0.15 161 4.99 152 -2.9 81 -5.7 172 479 968.7 NA 0.0000 9999 2850 0 0 0
2017/11/01 17:54:00 BASE 0.63 187 4.94 160 -2.9 81 -5.7 171 476 968.7 NA 0.0000 9999 2890 0 0 0
2017/11/01 17:55:00 BASE 1.29 164 4.78 146 -2.9 82 -5.6 171 477 968.7 NA 0.0000 9999 2820 0 0 0
2017/11/01 17:56:00 BASE 1.68 136 3.14 138 -2.8 82 -5.5 172 478 968.7 NA 0.0000 9999 2760 0 0 0
2017/11/01 17:57:00 BASE 1.68 122 3.14 138 -2.7 81 -5.5 171 477 968.7 NA 0.0000 9999 2890 0 0 0
2017/11/01 17:58:00 BASE 1.72 103 2.68 70 -2.5 80 -5.5 170 475 968.7 NA 0.0000 9999 2850 0 0 0
2017/11/01 17:59:00 BASE 2.11 75 3.45 59 -2.3 79 -5.5 170 474 968.7 NA 0.0000 9999 2820 0 0 0
2017/11/01 18:00:00 BASE 2.08 65 3.45 59 -2.0 77 -5.5 169 472 968.8 NA 0.0000 9999 2820 0 0 0
2017/11/01 18:01:00 BASE 1.49 66 3.45 59 -1.8 75 -5.7 169 472 968.9 NA 0.0000 9999 2850 0 0 0
2017/11/01 18:02:00 BASE 1.07 77 3.45 59 -1.7 73 -5.8 170 474 968.9 NA 0.0000 9999 2790 0 0 0
2017/11/01 18:03:00 BASE 1.31 109 3.45 59 -1.7 72 -6.0 172 478 968.9 NA 0.0000 9999 2850 0 0 0
2017/11/01 18:04:00 BASE 1.35 132 3.45 59 -1.8 72 -6.1 175 484 968.9 NA 0.0000 9999 2790 0 0 0
2017/11/01 18:05:00 BASE 1.02 148 3.45 59 -2.0 73 -6.1 177 489 968.9 NA 0.0000 9999 2820 0 0 0
2017/11/01 18:06:00 BASE 1.32 167 3.45 59 -2.3 75 -6.1 177 490 968.8 NA 0.0000 9999 2890 0 0 0
2017/11/01 18:07:00 BASE 2.46 149 4.84 113 -2.5 77 -6.0 178 491 968.8 NA 0.0000 9999 2760 0 0 0
2017/11/01 18:08:00 BASE 3.95 118 5.09 103 -2.6 78 -5.8 180 496 968.7 NA 0.0000 9999 2890 0 0 0
2017/11/01 18:09:00 BASE 4.58 112 5.81 122 -2.6 79 -5.7 182 501 968.7 NA 0.0000 9999 2920 0 0 0
2017/11/01 18:10:00 BASE 4.77 118 5.81 122 -2.6 79 -5.8 183 502 968.7 NA 0.0000 9999 2850 0 0 0
2017/11/01 18:11:00 BASE 4.99 121 5.81 122 -2.5 78 -5.8 182 500 968.7 NA 0.0000 9999 2890 0 0 0
2017/11/01 18:12:00 BASE 5.12 118 5.81 122 -2.5 78 -5.8 181 497 968.7 NA 0.0000 9999 2790 0 0 0
2017/11/01 18:13:00 BASE 4.84 112 5.81 122 -2.6 78 -5.9 179 493 968.8 NA 0.0000 9999 2890 0 0 0
2017/11/01 18:14:00 BASE 4.37 99 5.81 122 -2.6 77 -6.0 176 486 968.9 NA 0.0000 9999 2820 0 0 0
2017/11/01 18:15:00 BASE 4.18 91 5.81 122 -2.6 78 -6.0 173 478 968.9 NA 0.0000 9999 2850 0 0 0
2017/11/01 18:16:00 BASE 3.94 90 5.81 122 -2.6 78 -6.0 170 470 968.9 NA 0.0000 9999 2760 0 0 0
2017/11/01 18:17:00 BASE 2.62 86 5.81 122 -2.6 78 -5.9 166 461 968.9 NA 0.0000 9999 2690 0 0 0
2017/11/01 18:18:00 BASE 1.24 97 5.81 122 -2.5 78 -5.9 164 454 968.9 NA 0.0000 9999 2790 0 0 0
2017/11/01 18:19:00 BASE 2.09 104 5.71 122 -2.5 77 -5.9 162 451 968.9 NA 0.0000 9999 2760 0 0 0
2017/11/01 18:20:00 BASE 3.11 94 5.35 123 -2.5 77 -5.9 162 449 969.0 NA 0.0000 9999 2720 0 0 0
2017/11/01 18:21:00 BASE 3.02 89 5.35 123 -2.4 77 -5.9 162 448 969.0 NA 0.0000 9999 2690 17850 20380 0
2017/11/01 18:22:00 BASE 2.73 97 4.94 89 -2.3 76 -6.0 161 446 969.0 NA 0.0000 9999 2820 0 0 0
2017/11/01 18:23:00 BASE 1.45 152 4.94 89 -2.2 76 -5.9 160 443 969.0 NA 0.0000 9999 2790 0 0 0
2017/11/01 18:24:00 BASE 1.02 165 4.73 98 -2.1 75 -5.9 161 446 969.0 NA 0.0000 9999 2790 0 0 0
2017/11/01 18:25:00 BASE 2.73 121 4.68 101 -2.1 75 -6.0 161 447 969.0 NA 0.0000 9999 2760 0 0 0
2017/11/01 18:26:00 BASE 3.52 102 4.68 101 -2.0 74 -6.0 160 444 969.0 NA 0.0000 9999 2760 0 0 0
2017/11/01 18:27:00 BASE 3.43 104 4.68 101 -2.0 74 -6.0 158 440 969.0 NA 0.0000 9999 2920 0 0 0
2017/11/01 18:28:00 BASE 3.23 103 4.68 101 -2.1 74 -6.1 157 436 969.1 NA 0.0000 9999 2950 0 0 0
2017/11/01 18:29:00 BASE 2.73 102 4.68 101 -2.2 75 -6.1 156 435 969.1 NA 0.0000 9999 2760 0 0 0
2017/11/01 18:30:00 BASE 2.53 104 4.68 101 -2.3 75 -6.1 156 434 969.1 NA 0.0000 9999 2660 0 0 0
2017/11/01 18:31:00 BASE 2.28 107 4.68 101 -2.3 75 -6.1 157 436 969.1 NA 0.0000 9999 2690 0 0 0
2017/11/01 18:32:00 BASE 2.24 110 4.68 101 -2.4 75 -6.1 158 439 969.1 NA 0.0000 9999 2690 0 0 0
2017/11/01 18:33:00 BASE 2.61 113 4.68 101 -2.4 76 -6.1 158 440 969.1 NA 0.0000 9999 2820 0 0 0
2017/11/01 18:34:00 BASE 3.08 115 4.68 101 -2.4 76 -6.1 156 433 969.1 NA 0.0000 9999 2850 0 0 0
2017/11/01 18:35:00 BASE 3.41 121 4.32 106 -2.5 76 -6.1 151 423 969.1 NA 0.0000 9999 2920 0 0 0
2017/11/01 18:36:00 BASE 3.71 128 4.32 106 -2.5 76 -6.1 148 416 969.0 NA 0.0000 9999 2820 0 0 0
2017/11/01 18:37:00 BASE 3.90 132 4.22 135 -2.6 77 -6.1 147 412 969.0 NA 0.0000 9999 2820 0 0 0
2017/11/01 18:38:00 BASE 4.07 125 4.99 108 -2.6 77 -6.0 145 408 969.0 NA 0.0000 9999 2890 0 0 0
2017/11/01 18:39:00 BASE 4.35 115 4.99 108 -2.7 78 -6.0 144 404 969.0 NA 0.0000 9999 2820 0 0 0
2017/11/01 18:40:00 BASE 4.29 107 4.99 108 -2.7 78 -5.9 144 403 969.0 NA 0.0000 9999 2820 0 0 0
2017/11/01 18:41:00 BASE 3.89 85 4.99 108 -2.6 79 -5.8 145 405 969.0 NA 0.0000 9999 2790 24410 0 0
2017/11/01 18:42:00 BASE 3.01 71 4.99 108 -2.6 79 -5.7 146 408 969.1 NA 0.0000 9999 2820 0 0 0
2017/11/01 18:43:00 BASE 2.24 63 4.99 108 -2.5 78 -5.7 149 414 969.1 NA 0.0000 9999 2760 0 0 0
2017/11/01 18:44:00 BASE 1.73 92 4.99 108 -2.3 78 -5.7 153 423 969.1 NA 0.0000 9999 2790 0 0 0
2017/11/01 18:45:00 BASE 1.70 126 4.99 108 -2.2 77 -5.6 158 434 969.0 NA 0.0000 9999 2690 0 0 0
2017/11/01 18:46:00 BASE 2.83 134 4.99 108 -2.2 76 -5.8 163 446 969.0 NA 0.0000 9999 2790 0 0 0
2017/11/01 18:47:00 BASE 3.32 160 4.99 108 -2.2 76 -5.9 169 458 969.0 NA 0.0000 9999 2690 0 0 0
2017/11/01 18:48:00 BASE 3.04 182 4.78 98 -2.3 76 -6.0 173 467 969.1 NA 0.0000 9999 2690 22610 0 0
2017/11/01 18:49:01 BASE 2.76 191 4.78 98 -2.4 76 -6.0 175 472 969.1 NA 0.0000 9999 2690 0 0 0
2017/11/01 18:50:00 BASE 2.38 185 4.37 142 -2.6 77 -6.0 176 475 969.1 NA 0.0000 9999 2660 0 0 0
2017/11/01 18:51:00 BASE 2.58 161 4.37 142 -2.6 78 -5.9 177 478 969.1 NA 0.0000 9999 2620 0 0 0
2017/11/01 18:52:00 BASE 3.25 135 4.42 129 -2.7 79 -5.9 179 481 969.0 NA 0.0000 9999 2690 0 0 0
2017/11/01 18:53:00 BASE 3.25 119 4.42 129 -2.7 79 -5.8 179 482 969.1 NA 0.0000 9999 2620 0 0 0
2017/11/01 18:54:00 BASE 3.25 116 4.42 129 -2.7 80 -5.7 178 479 969.1 NA 0.0000 9999 2720 0 0 0
2017/11/01 18:55:00 BASE 3.42 122 4.42 129 -2.6 80 -5.6 176 472 969.1 NA 0.0000 9999 2690 0 0 0
2017/11/01 18:56:00 BASE 2.98 116 4.42 129 -2.6 80 -5.6 173 465 969.1 NA 0.0000 9999 2660 0 0 0
2017/11/01 18:57:00 BASE 2.96 107 4.42 129 -2.5 79 -5.6 171 462 969.1 NA 0.0000 9999 2530 0 0 0
2017/11/01 18:58:00 BASE 2.74 84 4.42 129 -2.4 79 -5.5 171 461 969.1 NA 0.0000 9999 2560 0 0 0
2017/11/01 18:59:00 BASE 1.35 64 4.42 129 -2.3 79 -5.5 172 462 969.1 NA 0.0000 9999 2720 0 0 0
2017/11/01 19:00:00 BASE 0.21 87 4.42 129 -2.1 78 -5.5 174 465 969.1 NA 0.0000 9999 2790 0 0 0
2017/11/01 19:01:00 BASE 0.00 125 4.42 129 -2.0 77 -5.6 176 470 969.1 NA 0.0000 9999 2760 0 0 0
2017/11/01 19:02:00 BASE 0.00 133 3.65 106 -1.9 76 -5.6 181 480 969.1 NA 0.0000 9999 2760 0 0 0
2017/11/01 19:03:00 BASE 0.00 129 3.65 106 -1.9 75 -5.7 188 494 969.1 NA 0.0000 9999 2560 0 0 0
2017/11/01 19:04:00 BASE 0.50 143 3.65 106 -2.0 76 -5.7 192 504 969.1 NA 0.0000 9999 2560 0 0 0
2017/11/01 19:05:00 BASE 1.16 155 3.65 106 -2.1 76 -5.7 194 508 969.1 NA 0.0000 9999 2590 0 0 0
2017/11/01 19:06:00 BASE 0.94 155 3.65 106 -2.1 77 -5.6 195 508 969.1 NA 0.0000 9999 2720 0 0 0
2017/11/01 19:07:00 BASE 0.76 159 2.88 64 -2.0 77 -5.5 194 507 969.1 NA 0.0000 9999 2660 0 0 0
2017/11/01 19:08:00 BASE 0.57 157 1.75 160 -2.0 77 -5.5 194 505 969.1 NA 0.0000 9999 2660 0 0 0
2017/11/01 19:09:00 BASE 0.09 138 1.75 160 -1.9 76 -5.6 193 503 969.1 NA 0.0000 9999 2660 0 0 0
2017/11/01 19:10:00 BASE 0.13 122 1.75 160 -1.8 76 -5.6 192 501 969.1 NA 0.0000 9999 2790 0 0 0
2017/11/01 19:11:00 BASE 0.23 149 1.75 160 -1.8 75 -5.6 192 501 969.1 NA 0.0000 9999 2850 0 0 0
2017/11/01 19:12:00 BASE 0.09 200 1.75 160 -1.8 75 -5.6 193 501 969.1 NA 0.0000 9999 2720 0 0 0
2017/11/01 19:13:00 BASE 0.00 278 1.75 160 -1.7 75 -5.6 194 503 969.1 NA 0.0000 9999 2790 0 0 0
2017/11/01 19:14:00 BASE 0.00 295 1.59 158 -1.7 75 -5.6 198 511 969.1 NA 0.0000 9999 2530 0 0 0
2017/11/01 19:15:00 BASE 0.19 96 1.39 174 -1.7 74 -5.7 201 517 969.1 NA 0.0000 9999 2660 0 0 0
2017/11/01 19:16:00 BASE 0.28 145 1.39 140 -1.7 74 -5.7 200 515 969.1 NA 0.0000 9999 2660 0 0 0
2017/11/01 19:17:00 BASE 0.60 164 1.44 173 -1.8 74 -5.8 197 509 969.1 NA 0.0000 9999 2620 0 0 0
2017/11/01 19:18:00 BASE 0.50 221 1.44 173 -2.0 75 -5.9 194 503 969.2 NA 0.0000 9999 2560 0 0 0
2017/11/01 19:19:00 BASE 0.00 301 1.44 173 -2.1 75 -5.9 193 500 969.1 NA 0.0000 9999 2490 0 0 0
2017/11/01 19:20:00 BASE 0.00 283 1.44 173 -2.1 75 -5.9 192 498 969.1 NA 0.0000 9999 2660 0 0 0
2017/11/01 19:21:00 BASE 0.22 249 1.54 164 -2.0 76 -5.8 192 499 969.2 NA 0.0000 9999 2720 0 0 0
2017/11/01 19:22:01 BASE 0.85 189 1.75 171 -2.0 76 -5.7 192 496 969.1 NA 0.0000 9999 2720 0 0 0
2017/11/01 19:23:00 BASE 1.49 148 1.95 135 -1.9 76 -5.7 189 489 969.1 NA 0.0000 9999 2790 0 0 0
2017/11/01 19:24:00 BASE 1.74 132 2.11 135 -1.9 76 -5.7 186 482 969.1 NA 0.0000 9999 2760 0 0 0
2017/11/01 19:25:00 BASE 1.83 133 2.11 135 -1.9 76 -5.7 182 475 969.2 NA 0.0000 9999 2590 0 0 0
2017/11/01 19:26:00 BASE 1.88 131 2.11 128 -2.0 76 -5.7 180 470 969.2 NA 0.0000 9999 2590 0 0 0
2017/11/01 19:27:00 BASE 1.65 133 2.11 128 -2.0 76 -5.7 180 470 969.2 NA 0.0000 9999 2790 0 0 0
2017/11/01 19:28:00 BASE 1.32 127 2.11 128 -2.0 76 -5.6 182 473 969.2 NA 0.0000 9999 2620 0 0 0
2017/11/01 19:29:00 BASE 1.03 110 2.11 121 -2.0 76 -5.6 181 472 969.2 NA 0.0000 9999 2760 0 0 0
2017/11/01 19:30:00 BASE 1.80 124 3.14 134 -2.0 76 -5.6 178 464 969.2 NA 0.0000 9999 2720 0 0 0
2017/11/01 19:31:00 BASE 2.69 131 3.14 134 -2.0 76 -5.6 174 455 969.2 NA 0.0000 9999 2720 0 0 0
2017/11/01 19:32:00 BASE 2.21 117 3.14 134 -2.0 76 -5.6 171 448 969.2 NA 0.0000 9999 2720 0 0 0
2017/11/01 19:33:00 BASE 1.08 111 3.14 134 -2.1 77 -5.6 169 443 969.2 NA 0.0000 9999 2720 0 0 0
2017/11/01 19:34:00 BASE 0.37 126 3.14 134 -2.1 77 -5.6 166 436 969.1 NA 0.0000 9999 2790 0 0 0
2017/11/01 19:35:00 BASE 1.38 27 3.76 1 -2.0 77 -5.6 165 433 969.1 NA 0.0000 9999 2790 0 0 0
2017/11/01 19:36:00 BASE 2.54 17 3.91 10 -2.0 77 -5.5 166 435 969.1 NA 0.0000 9999 2690 0 0 0
2017/11/01 19:37:00 BASE 2.53 79 3.91 10 -1.9 76 -5.5 168 438 969.1 NA 0.0000 9999 2660 0 0 0
2017/11/01 19:38:00 BASE 1.74 96 3.91 10 -1.9 76 -5.6 167 436 969.2 NA 0.0000 9999 2620 0 0 0
2017/11/01 19:39:00 BASE 0.64 60 3.91 10 -1.9 75 -5.6 163 428 969.2 NA 0.0000 9999 2760 0 0 0
2017/11/01 19:40:00 BASE 1.36 54 3.91 10 -1.9 75 -5.7 158 417 969.2 NA 0.0000 9999 2720 0 0 0
2017/11/01 19:41:00 BASE 2.15 59 3.91 10 -1.9 75 -5.7 154 407 969.2 NA 0.0000 9999 2530 0 0 0
2017/11/01 19:42:00 BASE 0.95 20 3.91 10 -1.9 75 -5.7 150 398 969.2 NA 0.0000 9999 2490 0 0 0
2017/11/01 19:43:00 BASE 0.50 353 3.91 10 -1.8 76 -5.6 146 390 969.2 NA 0.0000 9999 2400 0 0 0
2017/11/01 19:44:00 BASE 2.69 34 6.38 58 -1.8 76 -5.5 143 384 969.1 NA 0.0000 9999 2530 0 0 0
2017/11/01 19:45:00 BASE 4.52 60 6.58 38 -1.7 76 -5.5 141 379 969.2 NA 0.0000 9999 2620 0 0 0
2017/11/01 19:46:00 BASE 3.07 75 6.58 38 -1.7 75 -5.5 139 374 969.2 NA 0.0000 9999 2590 0 0 0
2017/11/01 19:47:00 BASE 1.36 104 6.58 38 -1.8 75 -5.5 136 367 969.2 NA 0.0000 9999 2260 0 0 0
2017/11/01 19:48:00 BASE 2.09 71 6.58 38 -1.8 76 -5.5 133 359 969.1 NA 0.0000 9999 2490 0 0 0
2017/11/01 19:49:00 BASE 3.29 22 6.58 38 -1.8 76 -5.5 130 351 969.1 NA 0.0000 9999 2590 0 0 0
2017/11/01 19:50:00 BASE 4.18 36 7.25 26 -1.9 76 -5.5 126 342 969.1 NA 0.0000 9999 980 0 0 0
2017/11/01 19:51:00 BASE 4.00 27 7.25 26 -1.9 77 -5.4 121 331 969.1 NA 0.0000 9999 2430 0 0 0
2017/11/01 19:52:00 BASE 3.48 24 7.25 26 -1.8 77 -5.3 117 322 969.1 NA 0.0000 9999 2200 0 0 0
2017/11/01 19:53:00 BASE 4.11 24 7.25 26 -1.8 77 -5.3 115 315 969.1 NA 0.0000 9999 1570 0 0 0
2017/11/01 19:54:00 BASE 4.54 13 7.25 26 -1.8 78 -5.2 114 313 969.2 NA 0.0000 9999 1480 0 0 0
2017/11/01 19:55:00 BASE 5.51 1 7.31 337 -1.8 78 -5.1 114 315 969.1 NA 0.0000 9999 1970 0 0 0
2017/11/01 19:56:00 BASE 5.61 341 7.31 337 -1.8 78 -5.0 115 318 969.1 NA 0.0000 9999 2200 0 0 0
2017/11/01 19:57:00 BASE 3.31 326 7.31 337 -1.7 79 -4.9 116 320 969.2 NA 0.0000 9999 2360 0 0 0
2017/11/01 19:58:00 BASE 1.64 317 7.31 337 -1.7 79 -4.9 117 323 969.2 NA 0.0000 9999 2300 0 0 0
2017/11/01 19:59:00 BASE 1.31 324 7.31 337 -1.7 79 -4.9 118 326 969.2 NA 0.0000 9999 2300 0 0 0
2017/11/01 20:00:00 BASE 1.69 341 7.31 337 -1.6 78 -4.9 120 329 969.2 NA 0.0000 9999 2460 0 0 0
2017/11/01 20:01:00 BASE 2.56 335 7.31 337 -1.6 78 -5.0 121 332 969.2 NA 0.0000 9999 2130 0 0 0
2017/11/01 20:02:00 BASE 4.04 332 7.31 337 -1.6 78 -5.0 122 335 969.1 NA 0.0000 9999 2330 0 0 0
2017/11/01 20:03:00 BASE 5.00 330 7.31 337 -1.7 78 -5.1 123 338 969.1 NA 0.0000 9999 1770 0 0 0
2017/11/01 20:04:00 BASE 3.81 325 7.31 337 -1.7 78 -5.1 124 340 969.2 NA 0.0000 9999 2430 0 0 0
2017/11/01 20:05:00 BASE 2.05 325 6.38 323 -1.8 78 -5.1 125 340 969.2 NA 0.0000 9999 2330 0 0 0
2017/11/01 20:06:00 BASE 2.17 326 5.92 316 -1.8 78 -5.1 124 338 969.2 NA 0.0000 9000 2490 0 0 0
2017/11/01 20:07:01 BASE 3.66 321 5.92 316 -1.8 78 -5.1 124 338 969.1 NA 0.0000 UP 9999 2620 0 0 0
2017/11/01 20:08:01 BASE 3.59 327 5.92 316 -1.9 78 -5.1 127 343 969.2 NA 0.0000 UP 9999 1350 2260 0 0
2017/11/01 20:09:01 BASE 3.23 334 5.92 316 -1.9 79 -5.1 129 349 969.2 NA 0.0000 UP 9999 2850 0 0 0
2017/11/01 20:10:01 BASE 3.76 329 5.92 316 -1.9 79 -5.1 132 354 969.2 NA 0.0000 UP 9999 2620 0 0 0
2017/11/01 20:11:01 BASE 4.20 325 5.92 316 -1.9 79 -5.1 134 359 969.2 NA 0.0000 UP 9999 2620 0 0 0
2017/11/01 20:12:01 BASE 4.41 323 5.81 346 -1.9 79 -5.1 137 365 969.2 NA 0.0000 UP 9999 2200 0 0 0
2017/11/01 20:13:01 BASE 4.31 321 5.97 330 -1.9 79 -5.1 138 370 969.2 NA 0.0000 UP 9999 2230 0 0 0
2017/11/01 20:14:01 BASE 4.50 327 6.22 344 -1.9 79 -5.1 139 372 969.2 NA 0.0000 UP 9999 590 0 0 0
2017/11/01 20:15:01 BASE 5.73 344 7.92 2 -1.9 79 -5.0 141 376 969.1 NA 0.0000 UP 9999 560 0 0 0
2017/11/01 20:16:01 BASE 6.70 352 8.18 339 -1.9 79 -5.0 144 381 969.1 NA 0.0000 UP 9999 590 1840 0 0
2017/11/01 20:17:01 BASE 7.27 342 8.49 333 -1.9 79 -5.1 144 380 969.0 NA 0.0000 UP 9999 2300 0 0 0
2017/11/01 20:18:01 BASE 7.93 333 9.88 324 -1.9 79 -5.1 141 373 968.9 NA 0.0000 UP 9999 2230 0 0 0
2017/11/01 20:19:01 BASE 7.34 329 9.88 324 -1.9 79 -5.1 136 363 969.0 NA 0.0000 UP 9999 2490 0 0 0
2017/11/01 20:20:01 BASE 5.18 322 9.88 324 -1.9 79 -5.1 132 352 969.1 NA 0.0000 UP 9999 720 0 0 0
2017/11/01 20:21:01 BASE 4.82 329 9.88 324 -1.9 79 -5.1 128 343 969.1 NA 0.0000 UP 9999 620 2590 0 0
2017/11/01 20:22:01 BASE 5.23 345 9.88 324 -1.9 79 -5.1 126 338 969.2 NA 0.0000 9999 1640 2590 0 0
2017/11/01 20:23:01 BASE 5.23 347 9.88 324 -2.0 79 -5.1 124 330 969.1 NA 0.0000 9999 1710 2460 0 0
2017/11/01 20:24:01 BASE 6.83 356 9.88 324 -2.0 79 -5.1 122 324 969.0 NA 0.0000 9999 620 2230 0 0
2017/11/01 20:25:01 BASE 7.89 4 9.88 324 -2.0 80 -5.0 119 318 969.0 NA 0.0000 9999 560 1970 0 0
2017/11/01 20:26:01 BASE 8.68 1 10.96 6 -2.1 80 -5.0 117 314 968.9 NA 0.0000 9999 520 0 0 0
2017/11/01 20:27:01 BASE 9.08 5 10.96 6 -2.1 81 -4.9 118 315 969.0 NA 0.0000 9999 720 1670 0 0
2017/11/01 20:28:01 BASE 9.00 8 10.96 6 -2.1 81 -4.9 120 319 968.9 NA 0.0000 9999 520 2400 0 0
2017/11/01 20:29:01 BASE 8.28 11 10.96 6 -2.2 82 -4.9 120 319 969.0 NA 0.0000 9999 620 0 0 0
2017/11/01 20:30:01 BASE 7.53 8 10.96 6 -2.2 82 -4.8 118 314 969.0 NA 0.0000 9999 1180 0 0 0
2017/11/01 20:31:01 BASE 9.16 7 11.99 10 -2.2 82 -4.8 114 306 968.9 NA 0.0000 9999 2430 0 0 0
2017/11/01 20:32:01 BASE 10.12 10 11.99 10 -2.2 83 -4.7 110 298 968.9 NA 0.0000 9999 1080 0 0 0
2017/11/01 20:33:01 BASE 9.46 12 11.99 10 -2.2 83 -4.7 108 293 968.9 NA 0.0000 9999 950 0 0 0
2017/11/01 20:34:01 BASE 9.30 13 11.99 10 -2.2 83 -4.6 107 291 968.9 NA 0.0000 9999 490 1710 0 0
2017/11/01 20:35:01 BASE 8.77 14 11.99 10 -2.2 84 -4.6 107 291 968.9 NA 0.0000 9999 1020 2530 0 0
2017/11/01 20:36:01 BASE 9.24 14 12.19 8 -2.2 84 -4.6 107 289 968.8 NA 0.0000 UP 9999 690 0 0 0
2017/11/01 20:37:01 BASE 9.55 12 12.19 8 -2.2 84 -4.5 105 285 968.9 NA 0.0000 UP 9999 2100 0 0 0
2017/11/01 20:38:01 BASE 9.63 10 12.19 8 -2.2 84 -4.5 103 281 968.9 NA 0.0000 UP 9999 1510 0 0 0
2017/11/01 20:39:01 BASE 10.23 16 12.19 8 -2.1 84 -4.5 102 279 968.9 NA 0.0000 UP 9999 2300 0 0 0
2017/11/01 20:40:01 BASE 9.52 19 12.19 8 -2.1 84 -4.5 102 278 969.0 NA 0.0000 UP 9999 2360 0 0 0
2017/11/01 20:41:01 BASE 9.18 20 12.19 8 -2.1 84 -4.5 102 278 968.9 NA 0.0000 UP 9999 2000 0 0 0
2017/11/01 20:42:01 BASE 9.32 21 12.19 8 -2.1 84 -4.5 103 279 969.0 NA 0.0000 UP 9999 2230 0 0 0
2017/11/01 20:43:01 BASE 9.10 18 12.19 8 -2.1 84 -4.5 105 284 969.0 NA 0.0000 UP 9999 1710 0 0 0
2017/11/01 20:44:01 BASE 8.99 15 12.19 8 -2.2 84 -4.5 109 291 969.0 NA 0.0000 UP 9999 1120 0 0 0
2017/11/01 20:45:01 BASE 9.25 15 12.19 8 -2.2 84 -4.5 113 300 969.0 NA 0.0000 UP 9999 950 0 0 0
2017/11/01 20:46:01 BASE 9.03 19 11.94 14 -2.2 84 -4.5 116 306 969.0 NA 0.0000 UP 9999 1350 0 0 0
2017/11/01 20:47:01 BASE 9.16 21 11.94 14 -2.1 84 -4.5 116 306 968.9 NA 0.0000 UP 9999 590 0 0 0
2017/11/01 20:48:01 BASE 9.24 18 11.21 16 -2.1 84 -4.5 116 305 969.0 NA 0.0000 UP 9999 430 2200 0 0
2017/11/01 20:49:01 BASE 9.21 11 11.21 16 -2.1 84 -4.5 115 304 968.9 NA 0.0000 UP 9999 390 0 0 0
2017/11/01 20:50:01 BASE 8.70 12 11.21 16 -2.1 84 -4.4 114 302 969.1 NA 0.0000 UP 9999 620 0 0 0
2017/11/01 20:51:01 BASE 7.58 18 11.21 16 -2.1 84 -4.4 114 300 969.1 NA 0.0000 UP 9999 620 2260 0 0
2017/11/01 20:52:01 BASE 7.55 15 11.21 16 -2.1 84 -4.4 114 301 969.1 NA 0.0000 UP 9999 560 2300 0 0
2017/11/01 20:53:01 BASE 8.68 10 11.21 16 -2.1 84 -4.4 114 299 969.0 NA 0.0000 UP 9999 1210 0 0 0
2017/11/01 20:54:01 BASE 9.22 8 11.21 16 -2.1 85 -4.3 114 300 969.0 NA 0.0000 9999 1020 0 0 0
2017/11/01 20:55:01 BASE 8.02 8 11.21 16 -2.1 85 -4.4 115 301 969.2 NA 0.0000 9999 850 0 0 0
2017/11/01 20:56:01 BASE 7.15 6 11.21 16 -2.2 85 -4.4 116 304 969.2 NA 0.0000 9999 750 2260 0 0
2017/11/01 20:57:01 BASE 7.55 360 11.16 10 -2.2 85 -4.4 118 306 969.1 NA 0.0000 9999 750 2260 0 0
2017/11/01 20:58:01 BASE 8.16 353 11.16 10 -2.2 85 -4.3 118 306 969.1 NA 0.0000 9999 620 0 0 0
2017/11/01 20:59:01 BASE 8.15 346 11.16 10 -2.1 85 -4.3 119 307 969.2 NA 0.0000 9999 1350 0 0 0
2017/11/01 21:00:01 BASE 7.21 323 11.16 10 -2.1 85 -4.3 118 306 969.3 NA 0.0000 9999 1480 0 0 0
2017/11/01 21:01:01 BASE 6.26 313 11.16 10 -2.0 85 -4.2 117 303 969.3 NA 0.0000 9999 2130 0 0 0
2017/11/01 21:02:01 BASE 6.07 323 11.16 10 -2.0 85 -4.2 115 299 969.3 NA 0.0000 9999 1540 2130 0 0
2017/11/01 21:03:01 BASE 5.59 323 9.47 352 -2.0 85 -4.2 113 294 969.4 NA 0.0000 9999 1970 0 0 0
2017/11/01 21:04:01 BASE 4.88 304 9.47 352 -2.0 85 -4.2 111 289 969.4 NA 0.0000 9999 1800 0 0 0
2017/11/01 21:05:01 BASE 3.90 290 9.47 352 -2.0 85 -4.3 108 282 969.5 NA 0.0000 9999 1150 0 0 0
2017/11/01 21:06:01 BASE 2.89 307 9.47 352 -2.0 84 -4.3 106 278 969.5 NA 0.0000 9999 690 2070 0 0
2017/11/01 21:07:01 BASE 3.23 314 9.47 352 -2.0 84 -4.3 106 276 969.5 NA 0.0000 9999 660 0 0 0
2017/11/01 21:08:01 BASE 5.03 296 8.75 344 -2.0 84 -4.3 104 271 969.3 NA 0.0000 9999 430 0 0 0
2017/11/01 21:09:01 BASE 5.32 282 7.92 325 -2.0 84 -4.3 98 257 969.5 NA 0.0000 9999 390 0 0 0
2017/11/01 21:10:01 BASE 4.80 280 7.92 325 -2.0 84 -4.3 98 258 969.5 NA 0.0000 5000 360 1770 0 0
2017/11/01 21:11:01 BASE 4.58 288 7.87 290 -2.0 84 -4.3 98 259 969.5 NA 0.0000 UP 3600 360 2200 0 0
2017/11/01 21:12:01 BASE 3.01 294 7.87 290 -2.0 84 -4.3 100 263 969.6 NA 0.0000 UP 4100 300 2170 0 0
2017/11/01 21:13:01 BASE 2.32 294 7.87 290 -2.0 84 -4.3 97 255 969.5 NA 0.0000 UP 3000 1180 0 0 0
2017/11/01 21:14:01 BASE 3.89 306 7.87 290 -2.0 84 -4.2 91 242 969.5 NA 0.0000 UP 7000 330 0 0 0
2017/11/01 21:15:01 BASE 4.86 318 7.87 290 -2.0 85 -4.2 85 229 969.6 NA 0.0000 UP 6000 300 1310 0 0
2017/11/01 21:16:01 BASE 5.12 329 7.87 290 -2.0 85 -4.2 83 224 969.5 NA 0.0000 UP BR 3000 200 2000 0 0
2017/11/01 21:17:01 BASE 5.68 344 7.87 290 -2.1 85 -4.2 83 225 969.5 NA 0.0000 UP BR 4100 200 22380 0 0
2017/11/01 21:18:01 BASE 5.98 349 7.97 349 -2.1 85 -4.2 84 227 969.5 NA 0.0000 -SN BR 9000 230 1180 0 0
2017/11/01 21:19:01 BASE 4.91 2 7.97 349 -2.1 86 -4.2 86 232 969.7 NA 0.0000 -SN BR 5000 200 2070 0 0
2017/11/01 21:20:00 BASE 4.37 10 7.97 349 -2.2 86 -4.2 87 234 969.7 NA 0.0000 -SN BR 2400 230 1940 0 0
2017/11/01 21:21:00 BASE 5.53 7 7.97 349 -2.2 87 -4.1 88 237 969.6 NA 0.0000 -SN BR 3200 260 1900 0 0
2017/11/01 21:22:00 BASE 5.97 7 7.97 349 -2.2 87 -4.1 88 238 969.6 NA 0.0000 -SN BR 8000 330 0 0 0
2017/11/01 21:23:00 BASE 6.62 9 8.28 8 -2.2 88 -4.0 87 235 969.5 NA 0.0000 -SN BR 9999 330 0 0 0
2017/11/01 21:24:00 BASE 7.45 9 8.49 11 -2.2 88 -3.9 85 229 969.5 NA 0.0000 -SN BR 9999 360 0 0 0
2017/11/01 21:25:00 BASE 7.67 6 8.49 11 -2.2 88 -3.8 83 225 969.4 NA 0.0000 -SN BR 9999 390 0 0 0
2017/11/01 21:26:00 BASE 7.64 6 9.52 8 -2.1 89 -3.8 81 220 969.4 NA 0.0000 -SN BR 9999 1180 0 0 0
2017/11/01 21:27:00 BASE 7.49 10 9.52 8 -2.1 89 -3.7 79 215 969.4 NA 0.0000 -SN BR 9999 790 0 0 0
2017/11/01 21:28:00 BASE 7.58 4 9.52 8 -2.1 89 -3.7 77 210 969.3 NA 0.0000 -SN BR 9999 1180 0 0 0
2017/11/01 21:29:00 BASE 8.20 3 9.72 9 -2.1 88 -3.8 75 204 969.3 NA 0.0000 -SN BR 9999 1150 0 0 0
2017/11/01 21:30:00 BASE 8.24 8 9.72 9 -2.1 88 -3.8 73 200 969.3 NA 0.0000 -SN BR 9999 850 0 0 0
2017/11/01 21:31:00 BASE 7.90 9 10.08 8 -2.1 88 -3.8 72 197 969.3 NA 0.0000 -SN 9999 920 0 0 0
2017/11/01 21:32:00 BASE 8.60 12 11.06 24 -2.1 88 -3.8 71 194 969.3 NA 0.0000 -SN 9999 890 0 0 0
2017/11/01 21:33:00 BASE 9.51 11 11.06 24 -2.1 88 -3.9 69 190 969.2 NA 0.0000 -SN 9999 950 0 0 0
2017/11/01 21:34:00 BASE 10.20 6 11.78 4 -2.1 87 -3.9 68 187 969.1 NA 0.0000 9999 920 0 0 0
2017/11/01 21:35:00 BASE 10.55 7 11.78 4 -2.1 87 -3.9 67 185 969.1 NA 0.0000 9999 750 1940 0 0
2017/11/01 21:36:00 BASE 9.95 7 11.78 4 -2.1 87 -4.0 66 183 969.1 NA 0.0000 -SN 9999 560 1940 0 0
2017/11/01 21:37:00 BASE 9.69 6 11.78 4 -2.1 87 -4.0 66 181 969.1 NA 0.0000 -SN 9999 430 1900 0 0
2017/11/01 21:38:00 BASE 9.83 5 11.78 4 -2.2 87 -4.0 64 178 969.1 NA 0.0000 -SN 9999 430 1670 0 0
2017/11/01 21:39:00 BASE 9.44 7 11.78 4 -2.2 87 -4.0 63 174 969.1 NA 0.0000 -SN 9999 390 1770 0 0
2017/11/01 21:40:00 BASE 9.14 8 11.78 4 -2.1 87 -4.0 62 171 969.2 NA 0.0000 -SN 9999 360 0 0 0
2017/11/01 21:41:00 BASE 9.47 4 11.88 8 -2.1 87 -3.9 62 170 969.1 NA 0.0000 -SN 9999 1480 0 0 0
2017/11/01 21:42:00 BASE 9.29 2 11.88 8 -2.1 88 -3.8 63 172 969.1 NA 0.0000 -SN 9999 1540 0 0 0
2017/11/01 21:43:00 BASE 8.73 2 11.88 8 -2.1 87 -3.9 65 176 969.2 NA 0.0000 -SN 9999 1440 0 0 0
2017/11/01 21:44:00 BASE 9.60 5 12.04 16 -2.1 87 -3.9 67 179 969.1 NA 0.0000 -SN 9999 1250 0 0 0
2017/11/01 21:45:00 BASE 10.64 9 12.04 16 -2.1 87 -3.9 68 181 969.0 NA 0.0000 -SN 9999 1120 0 0 0
2017/11/01 21:46:00 BASE 10.55 8 12.04 16 -2.1 87 -3.9 69 182 969.0 NA 0.0000 -SN 9999 1180 0 0 0
2017/11/01 21:47:00 BASE 10.66 5 12.04 16 -2.1 87 -3.9 69 181 968.9 NA 0.0000 -SN 9999 1210 0 0 0
2017/11/01 21:48:00 BASE 11.00 2 12.04 16 -2.1 87 -3.9 68 180 968.9 NA 0.0000 -SN 9999 1180 0 0 0
2017/11/01 21:49:00 BASE 10.87 4 12.04 16 -2.1 87 -3.9 67 177 969.0 NA 0.0000 -SN 9999 980 0 0 0
2017/11/01 21:50:00 BASE 10.90 6 12.30 8 -2.1 87 -3.9 66 173 969.0 NA 0.0000 -SN 9999 1050 0 0 0
2017/11/01 21:51:00 BASE 11.28 6 12.30 8 -2.1 87 -3.9 65 172 969.0 NA 0.0000 -SN 9999 1050 0 0 0
2017/11/01 21:52:00 BASE 11.70 6 12.91 6 -2.1 87 -3.9 64 170 969.0 NA 0.0000 -SN 9999 850 0 0 0
2017/11/01 21:53:00 BASE 11.64 6 12.91 6 -2.1 87 -3.9 63 167 969.0 NA 0.0000 -SN 9999 720 0 0 0
2017/11/01 21:54:00 BASE 11.52 4 12.91 6 -2.1 87 -3.9 61 164 968.9 NA 0.0000 -SN 9999 660 0 0 0
2017/11/01 21:55:00 BASE 11.48 3 12.91 6 -2.1 87 -3.9 60 161 969.0 NA 0.0000 -SN 9999 750 0 0 0
2017/11/01 21:56:00 BASE 11.07 3 12.91 6 -2.1 87 -3.9 59 159 969.0 NA 0.0000 -SN 9999 1120 0 0 0
2017/11/01 21:57:00 BASE 11.14 5 12.91 6 -2.1 87 -3.9 59 158 969.0 NA 0.0000 -SN 9999 1380 0 0 0
2017/11/01 21:58:00 BASE 11.86 7 13.27 12 -2.1 87 -3.9 60 159 968.9 NA 0.0000 -SN 9999 720 0 0 0
2017/11/01 21:59:00 BASE 11.96 6 13.27 12 -2.1 88 -3.9 61 160 969.0 NA 0.0000 -SN 9999 850 0 0 0
2017/11/01 22:00:00 BASE 11.47 4 13.27 12 -2.1 88 -3.9 61 161 969.0 NA 0.0000 -SN 9999 1310 0 0 0
2017/11/01 22:01:00 BASE 11.49 5 13.27 12 -2.1 88 -3.8 62 162 969.0 NA 0.0000 -SN 9999 820 0 0 0
2017/11/01 22:02:00 BASE 11.52 7 13.27 12 -2.1 88 -3.8 62 161 969.0 NA 0.0000 -SN 9999 1020 0 0 0
2017/11/01 22:03:00 BASE 11.70 7 13.27 12 -2.1 88 -3.8 61 160 968.9 NA 0.0000 -SN 9999 750 0 0 0
2017/11/01 22:04:00 BASE 11.66 5 13.27 12 -2.1 88 -3.8 62 161 969.0 NA 0.0000 -SN 9999 460 0 0 0
2017/11/01 22:05:00 BASE 11.28 6 13.27 12 -2.1 87 -3.9 62 160 969.0 NA 0.0000 -SN 9999 1310 0 0 0
2017/11/01 22:06:00 BASE 11.36 3 13.27 12 -2.1 87 -3.9 61 159 969.0 NA 0.0000 -SN 9999 720 0 0 0
2017/11/01 22:07:00 BASE 11.46 3 13.27 12 -2.1 87 -3.9 61 158 969.0 NA 0.0000 -SN 9999 920 1900 0 0
2017/11/01 22:08:00 BASE 10.77 355 12.86 9 -2.1 87 -3.9 60 155 969.0 NA 0.0000 -SN 9999 1050 0 0 0
2017/11/01 22:09:00 BASE 10.61 350 12.86 9 -2.1 88 -3.9 59 153 969.0 NA 0.0000 -SN 9999 820 0 0 0
2017/11/01 22:10:00 BASE 11.33 354 12.86 9 -2.1 88 -3.9 58 150 969.0 NA 0.0000 -SN 9999 920 0 0 0
2017/11/01 22:11:00 BASE 12.13 354 13.17 3 -2.1 88 -3.9 57 148 968.9 NA 0.0000 -SN 9999 1020 0 0 0
2017/11/01 22:12:00 BASE 11.96 359 13.17 3 -2.1 87 -3.9 57 148 969.0 NA 0.0000 -SN 9999 1210 0 0 0
2017/11/01 22:13:00 BASE 10.80 0 13.17 3 -2.1 87 -3.9 57 148 969.1 NA 0.0000 -SN 9999 980 0 0 0
2017/11/01 22:14:00 BASE 10.15 358 13.17 3 -2.1 87 -4.0 56 146 969.1 NA 0.0000 -SN 9999 1410 0 0 0
2017/11/01 22:15:00 BASE 10.31 355 13.17 3 -2.1 87 -4.0 56 145 969.1 NA 0.0000 -SN 9999 1440 0 0 0
2017/11/01 22:16:00 BASE 10.69 358 13.17 3 -2.1 87 -4.0 56 146 969.1 NA 0.0000 9999 1250 0 0 0
2017/11/01 22:17:00 BASE 11.25 1 13.17 3 -2.1 87 -4.0 57 147 968.9 NA 0.0000 9999 1440 23070 0 0
2017/11/01 22:18:00 BASE 11.34 2 13.17 3 -2.1 87 -4.0 58 148 969.1 NA 0.0000 9999 920 0 0 0
2017/11/01 22:19:00 BASE 10.66 3 13.17 3 -2.1 87 -4.0 57 146 969.2 NA 0.0000 9999 980 0 0 0
2017/11/01 22:20:00 BASE 10.06 360 13.17 3 -2.1 87 -4.0 56 144 969.1 NA 0.0000 9999 1120 0 0 0
2017/11/01 22:21:00 BASE 9.94 356 12.60 1 -2.1 87 -4.0 56 143 969.1 NA 0.0000 9999 950 0 0 0
2017/11/01 22:22:00 BASE 10.03 350 12.60 1 -2.1 87 -4.0 56 143 969.2 NA 0.0000 9999 1050 0 0 0
2017/11/01 22:23:00 BASE 10.32 353 12.60 1 -2.1 87 -4.0 56 142 969.1 NA 0.0000 9999 1480 0 0 0
2017/11/01 22:24:00 BASE 11.15 359 12.81 1 -2.1 87 -4.0 55 140 969.0 NA 0.0000 9999 1210 0 0 0
2017/11/01 22:25:00 BASE 11.78 1 12.81 1 -2.1 87 -4.0 54 138 969.0 NA 0.0000 9999 1020 0 0 0
2017/11/01 22:26:00 BASE 12.40 3 13.63 4 -2.1 87 -4.0 54 138 969.0 NA 0.0000 9999 1180 0 0 0
2017/11/01 22:27:00 BASE 12.38 3 13.63 4 -2.1 87 -3.9 54 136 969.1 NA 0.0000 9999 1050 0 0 0
2017/11/01 22:28:00 BASE 12.01 4 13.63 4 -2.1 87 -3.9 52 132 969.0 NA 0.0000 9999 1250 0 0 0
2017/11/01 22:29:00 BASE 12.35 2 13.74 1 -2.1 88 -3.9 48 125 968.9 NA 0.2540 9999 1380 0 0 0
2017/11/01 22:30:00 BASE 12.64 358 14.15 1 -2.1 88 -3.9 46 119 968.9 NA 0.0000 9999 1280 0 0 0
2017/11/01 22:31:00 BASE 12.37 357 14.15 1 -2.1 88 -3.8 45 117 969.0 NA 0.0000 9999 1570 0 0 0
2017/11/01 22:32:00 BASE 12.79 1 14.15 1 -2.1 88 -3.8 44 116 968.9 NA 0.0000 9999 1410 0 0 0
2017/11/01 22:33:00 BASE 13.04 5 14.15 1 -2.2 89 -3.8 45 116 969.0 NA 0.0000 9999 1250 0 0 0
2017/11/01 22:34:00 BASE 12.23 5 14.15 1 -2.2 89 -3.8 45 116 969.1 NA 0.0000 9999 1410 0 0 0
2017/11/01 22:35:00 BASE 11.68 5 14.15 1 -2.2 89 -3.8 45 116 969.1 NA 0.0000 9999 1480 0 0 0
2017/11/01 22:36:00 BASE 11.73 6 14.15 1 -2.2 89 -3.8 44 114 969.0 NA 0.0000 9999 1250 0 0 0
2017/11/01 22:37:00 BASE 12.15 5 14.15 1 -2.2 89 -3.7 43 112 968.9 NA 0.0000 9999 1540 0 0 0
2017/11/01 22:38:00 BASE 12.72 3 14.15 1 -2.2 89 -3.7 43 110 968.8 NA 0.0000 9999 1640 0 0 0
2017/11/01 22:39:00 BASE 12.89 4 14.15 1 -2.1 89 -3.6 43 110 968.9 NA 0.0000 9999 1640 0 0 0
2017/11/01 22:40:00 BASE 12.61 3 13.99 5 -2.1 90 -3.6 43 110 969.0 NA 0.0000 9999 1640 0 0 0
2017/11/01 22:41:00 BASE 12.45 4 13.99 5 -2.1 90 -3.6 43 109 969.0 NA 0.0000 9999 1210 0 0 0
2017/11/01 22:42:00 BASE 12.41 4 13.84 1 -2.2 90 -3.5 41 106 968.9 NA 0.0000 9999 1350 0 0 0
2017/11/01 22:43:00 BASE 12.10 3 13.84 1 -2.2 91 -3.5 40 102 969.0 NA 0.0000 9999 1510 0 0 0
2017/11/01 22:44:00 BASE 11.61 0 13.84 1 -2.2 91 -3.5 37 98 969.0 NA 0.0000 9999 1670 0 0 0
2017/11/01 22:45:00 BASE 12.13 360 13.84 1 -2.2 91 -3.5 35 94 968.9 NA 0.0000 9999 1640 0 0 0
2017/11/01 22:46:00 BASE 12.27 358 13.84 1 -2.2 91 -3.5 33 89 969.0 NA 0.0000 9999 1570 0 0 0
2017/11/01 22:47:00 BASE 11.69 359 13.84 1 -2.2 91 -3.5 31 84 969.0 NA 0.0000 9999 1350 0 0 0
2017/11/01 22:48:00 BASE 11.86 3 13.79 5 -2.2 91 -3.5 29 79 969.0 NA 0.0000 9999 1540 2760 0 0
2017/11/01 22:49:00 BASE 12.07 4 13.79 5 -2.3 91 -3.5 27 75 969.0 NA 0.0000 9999 1800 0 0 0
2017/11/01 22:50:00 BASE 12.48 4 13.79 5 -2.3 91 -3.5 26 71 969.0 NA 0.0000 9999 1800 0 0 0
2017/11/01 22:51:00 BASE 13.01 4 14.61 7 -2.3 92 -3.5 25 69 968.9 NA 0.0000 9999 1840 0 0 0
2017/11/01 22:52:00 BASE 12.41 4 14.61 7 -2.4 92 -3.5 24 66 969.1 NA 0.0000 -SN 9999 1770 0 0 0
2017/11/01 22:53:00 BASE 11.86 4 14.61 7 -2.4 92 -3.5 22 63 969.0 NA 0.0000 -SN 9999 1740 0 0 0
2017/11/01 22:54:00 BASE 11.37 3 14.61 7 -2.4 92 -3.5 21 59 969.1 NA 0.0000 -SN 9999 1740 0 0 0
2017/11/01 22:55:00 BASE 11.53 3 14.61 7 -2.4 92 -3.5 19 56 969.0 NA 0.0000 -SN 9999 1770 0 0 0
2017/11/01 22:56:00 BASE 12.24 5 14.61 7 -2.4 92 -3.5 18 53 969.1 NA 0.0000 -SN 9999 1740 0 0 0
2017/11/01 22:57:00 BASE 11.57 7 14.61 7 -2.4 92 -3.5 17 51 969.2 NA 0.0000 -SN 9999 1800 0 0 0
2017/11/01 22:58:00 BASE 11.10 5 14.61 7 -2.4 92 -3.5 17 49 969.2 NA 0.0000 -SN 9999 1900 0 0 0
2017/11/01 22:59:00 BASE 10.90 4 14.61 7 -2.4 92 -3.4 17 49 969.2 NA 0.0000 -SN 9999 1800 0 0 0
2017/11/01 23:00:00 BASE 10.71 6 14.61 7 -2.4 93 -3.4 18 50 969.2 NA 0.0000 -SN 9999 1840 0 0 0
2017/11/01 23:01:00 BASE 10.78 7 13.17 3 -2.4 93 -3.4 18 50 969.2 NA 0.0000 -SN 9999 1740 0 0 0
2017/11/01 23:02:00 BASE 10.69 5 13.17 3 -2.3 93 -3.3 17 48 969.2 NA 0.0000 9999 1670 0 0 0
2017/11/01 23:03:00 BASE 10.81 5 13.17 3 -2.3 93 -3.3 15 45 969.2 NA 0.0000 9999 1940 0 0 0
2017/11/01 23:04:00 BASE 11.08 6 13.17 3 -2.3 93 -3.3 14 41 969.2 NA 0.0000 9999 1900 0 0 0
2017/11/01 23:05:00 BASE 11.26 7 12.96 6 -2.3 93 -3.3 12 38 969.2 NA 0.0000 9999 1900 0 0 0
2017/11/01 23:06:00 BASE 11.15 7 12.60 1 -2.3 92 -3.3 11 36 969.3 NA 0.0000 9999 1970 0 0 0
2017/11/01 23:07:00 BASE 10.97 6 12.60 1 -2.3 92 -3.4 11 35 969.2 NA 0.0000 9999 2030 0 0 0
2017/11/01 23:08:00 BASE 10.61 6 12.19 8 -2.3 92 -3.4 10 34 969.3 NA 0.0000 9999 2000 0 0 0
2017/11/01 23:09:00 BASE 10.87 6 12.35 8 -2.3 92 -3.4 10 33 969.2 NA 0.0000 9999 2030 0 0 0
2017/11/01 23:10:00 BASE 11.26 7 12.35 8 -2.3 92 -3.4 10 32 969.3 NA 0.0000 9999 2000 0 0 0
2017/11/01 23:11:00 BASE 10.64 9 12.35 8 -2.3 92 -3.4 10 32 969.3 NA 0.0000 9999 1900 0 0 0
2017/11/01 23:12:00 BASE 10.16 7 12.35 8 -2.3 92 -3.4 10 32 969.3 NA 0.0000 9999 1940 0 0 0
2017/11/01 23:13:00 BASE 9.77 9 12.35 8 -2.3 92 -3.5 10 31 969.3 NA 0.0000 9999 1900 0 0 0
2017/11/01 23:14:00 BASE 9.89 13 12.35 8 -2.3 92 -3.5 10 31 969.4 NA 0.0000 9999 1900 0 0 0
2017/11/01 23:15:00 BASE 10.53 15 12.35 8 -2.3 91 -3.5 10 30 969.4 NA 0.0000 9999 1870 0 0 0
2017/11/01 23:16:00 BASE 10.47 15 12.35 8 -2.3 91 -3.5 9 30 969.4 NA 0.0000 9999 1870 0 0 0
2017/11/01 23:17:00 BASE 9.84 13 12.35 8 -2.3 91 -3.6 9 29 969.5 NA 0.0000 9999 1940 0 0 0
2017/11/01 23:18:00 BASE 8.95 10 12.35 8 -2.3 91 -3.6 9 28 969.5 NA 0.0000 9999 1900 0 0 0
2017/11/01 23:19:00 BASE 8.91 7 12.04 14 -2.3 91 -3.6 9 28 969.5 NA 0.0000 9999 1800 0 0 0
2017/11/01 23:20:00 BASE 8.94 6 11.47 16 -2.3 91 -3.6 9 28 969.5 NA 0.0000 9999 1900 0 0 0
2017/11/01 23:21:00 BASE 9.01 5 11.47 16 -2.3 91 -3.6 9 28 969.5 NA 0.0000 9999 1740 0 0 0
2017/11/01 23:22:00 BASE 9.42 4 11.47 16 -2.3 91 -3.6 9 28 969.5 NA 0.0000 9999 1770 0 0 0
2017/11/01 23:23:00 BASE 9.52 5 11.47 16 -2.3 91 -3.6 9 28 969.5 NA 0.0000 9999 1740 0 0 0
2017/11/01 23:24:00 BASE 9.67 6 11.47 16 -2.3 90 -3.6 9 28 969.5 NA 0.0000 9999 1710 0 0 0
2017/11/01 23:25:00 BASE 10.18 6 11.42 7 -2.2 90 -3.6 10 28 969.5 NA 0.0000 9999 1710 0 0 0
2017/11/01 23:26:00 BASE 10.34 5 11.42 7 -2.2 90 -3.6 10 28 969.5 NA 0.0000 9999 1770 0 0 0
2017/11/01 23:27:00 BASE 10.04 4 11.42 7 -2.2 90 -3.7 10 28 969.6 NA 0.0000 9999 1670 2260 0 0
2017/11/01 23:28:00 BASE 10.24 4 11.42 7 -2.2 90 -3.7 10 28 969.6 NA 0.0000 9999 1640 0 0 0
2017/11/01 23:29:00 BASE 10.24 5 11.42 7 -2.2 90 -3.7 10 28 969.6 NA 0.0000 9999 1710 0 0 0
2017/11/01 23:30:00 BASE 9.70 4 11.42 7 -2.2 90 -3.7 11 29 969.7 NA 0.0000 9999 1640 0 0 0
2017/11/01 23:31:00 BASE 8.89 3 11.42 7 -2.2 89 -3.7 11 31 969.7 NA 0.0000 9999 1570 0 0 0
2017/11/01 23:32:00 BASE 8.34 4 11.42 7 -2.2 89 -3.7 13 32 969.8 NA 0.0000 9999 1540 0 0 0
2017/11/01 23:33:00 BASE 7.89 8 11.42 7 -2.2 89 -3.8 13 34 969.8 NA 0.0000 9999 1610 0 0 0
2017/11/01 23:34:00 BASE 7.42 11 11.42 7 -2.2 89 -3.8 14 35 969.8 NA 0.0000 9999 1670 0 0 0
2017/11/01 23:35:00 BASE 7.49 11 11.06 8 -2.2 89 -3.8 15 36 969.8 NA 0.0000 9999 1670 0 0 0
2017/11/01 23:36:00 BASE 8.04 14 11.06 8 -2.2 89 -3.8 16 37 969.8 NA 0.0000 9999 1480 0 0 0
2017/11/01 23:37:00 BASE 8.02 11 11.06 8 -2.2 88 -3.9 17 38 969.8 NA 0.0000 9999 1510 0 0 0
2017/11/01 23:38:00 BASE 7.57 9 11.06 8 -2.2 88 -3.9 17 39 969.8 NA 0.0000 9999 1740 0 0 0
2017/11/01 23:39:00 BASE 7.68 8 9.67 3 -2.2 88 -3.9 17 38 969.8 NA 0.0000 9999 1310 0 0 0
2017/11/01 23:40:00 BASE 8.74 5 10.24 360 -2.2 88 -4.0 17 37 969.7 NA 0.0000 9999 1510 0 0 0
2017/11/01 23:41:00 BASE 9.07 3 10.24 360 -2.3 88 -4.0 15 35 969.8 NA 0.0000 9999 1120 0 0 0
2017/11/01 23:42:00 BASE 8.57 1 10.24 360 -2.3 88 -4.0 14 32 969.8 NA 0.0000 9999 1380 0 0 0
2017/11/01 23:43:00 BASE 8.45 1 10.24 360 -2.3 88 -4.0 13 30 969.8 NA 0.0000 9999 1380 0 0 0
2017/11/01 23:44:00 BASE 7.99 2 10.24 360 -2.3 88 -4.0 12 28 969.9 NA 0.0000 9999 1510 0 0 0
2017/11/01 23:45:00 BASE 7.59 1 10.24 360 -2.3 88 -4.0 11 27 969.9 NA 0.0000 9999 1670 0 0 0
2017/11/01 23:46:00 BASE 7.55 1 10.24 360 -2.3 88 -4.0 11 26 969.9 NA 0.0000 9999 1180 0 0 0
2017/11/01 23:47:00 BASE 7.81 353 10.24 360 -2.3 88 -4.0 10 25 969.9 NA 0.0000 9999 1570 0 0 0
2017/11/01 23:48:00 BASE 8.13 347 10.24 360 -2.3 88 -4.0 10 24 969.9 NA 0.0000 9999 1480 0 0 0
2017/11/01 23:49:00 BASE 7.40 355 10.24 360 -2.3 88 -4.0 9 23 969.9 NA 0.0000 9999 1570 0 0 0
2017/11/01 23:50:00 BASE 6.11 357 9.77 3 -2.3 88 -4.0 9 23 970.0 NA 0.0000 9999 1510 0 0 0
2017/11/01 23:51:00 BASE 5.36 345 9.11 354 -2.3 88 -4.0 8 22 970.1 NA 0.0000 9999 1770 0 0 0
2017/11/01 23:52:00 BASE 5.44 333 9.05 3 -2.3 88 -4.0 8 22 970.0 NA 0.0000 9999 1570 0 0 0
2017/11/01 23:53:00 BASE 6.16 326 8.85 272 -2.3 89 -3.9 9 22 969.9 NA 0.0000 9999 1480 0 0 0
2017/11/01 23:54:00 BASE 7.43 326 9.31 328 -2.3 89 -3.9 9 23 969.8 NA 0.0000 9999 1610 0 0 0
2017/11/01 23:55:00 BASE 7.87 328 9.31 328 -2.3 89 -3.9 9 23 969.8 NA 0.0000 9999 1570 0 0 0
2017/11/01 23:56:00 BASE 8.04 330 9.77 330 -2.3 89 -3.9 9 24 969.7 NA 0.0000 9999 1570 0 0 0
2017/11/01 23:57:00 BASE 8.16 334 9.77 330 -2.3 89 -3.9 9 23 969.8 NA 0.0000 9999 1640 0 0 0
2017/11/01 23:58:00 BASE 7.58 335 9.77 330 -2.3 89 -3.9 8 22 969.8 NA 0.0000 9999 1710 0 0 0
2017/11/01 23:59:00 BASE 7.46 330 9.77 330 -2.3 89 -3.9 8 21 969.8 NA 0.0000 9999 1610 0 0 0